GFSSW_con_sbcape_000.txt.gz
CAPE
0 0 1 1 1 0 0 0 0 0 16 52 92 83 85 93 49 15 5 0 0 0 0 0 25 137 60 1 0 0 0 0 0 0 0 0 0 0 0 0 0 0 0 0 0
0 1 0 0 0 0 0 0 3 0 0 1 51 49 73 69 44 30 0 0 0 0 0 0 18 190 94 0 0 0 0 0 0 0 0 0 0 0 0 0 0 0 0 0 0
0 0 0 0 0 1 5 2 2 20 6 2 27 59 82 66 38 8 0 13 36 20 0 0 246 226 107 13 5 0 0 0 0 0 0 0 0 0 0 0 0 0 0 0 0
1 0 0 0 0 0 0 3 9 18 38 36 51 68 81 46 20 49 0 0 12 34 20 0 36 163 124 59 7 0 0 0 0 0 0 0 0 0 0 0 0 0 0 0 0
7 2 0 0 0 0 0 0 0 21 36 52 61 70 59 42 18 34 0 0 0 5 13 1 58 85 193 112 34 0 0 0 0 0 0 0 0 0 0 0 0 0 0 0 0
13 7 0 1 1 0 0 0 3 2 46 72 79 77 41 24 1 0 3 0 0 1 6 8 43 68 49 181 84 5 0 0 0 0 0 0 0 0 0 0 0 0 0 0 0
17 13 0 0 0 6 0 4 17 42 35 66 82 73 45 1 0 0 0 0 0 0 2 4 5 268 105 240 182 71 26 27 0 0 0 0 0 0 0 0 0 0 0 0 0
10 29 21 5 0 0 0 6 52 119 60 56 54 51 15 0 0 0 0 0 0 0 0 5 20 62 278 248 219 192 84 59 0 8 0 0 0 0 0 0 0 0 0 0 0
7 25 12 36 32 33 10 33 70 93 91 61 37 44 15 0 0 0 0 0 0 0 0 10 86 115 357 207 155 178 59 21 15 3 0 0 0 0 0 0 0 0 0 0 0
13 36 46 62 45 54 33 44 67 57 45 31 40 37 0 0 0 0 0 0 74 232 148 145 92 189 286 108 98 40 44 23 24 1 0 0 0 0 0 0 0 0 0 0 0
18 38 45 70 57 22 26 34 9 37 14 0 0 0 0 0 0 5 2 0 65 238 102 121 76 34 130 60 74 23 31 33 10 0 0 0 0 0 0 0 0 0 0 0 0
10 35 50 67 64 32 37 40 0 0 10 0 1 0 24 8 30 35 75 16 48 62 128 62 46 38 21 136 80 53 11 14 18 0 0 0 0 0 0 0 0 0 0 0 0
9 27 46 49 31 22 31 16 0 1 3 8 1 12 18 15 90 131 122 16 11 16 38 17 13 26 60 106 96 52 14 9 7 0 0 0 0 0 0 0 0 0 0 0 0
12 19 48 15 15 31 45 2 0 0 3 7 20 7 35 75 36 76 140 17 98 42 30 5 9 95 92 62 80 55 40 9 0 25 43 0 0 0 0 0 0 0 0 0 0
13 16 44 28 31 21 5 1 0 0 6 0 12 4 3 15 57 68 165 30 49 48 8 0 29 3 92 25 42 53 19 17 11 15 3 0 0 0 0 0 0 0 0 0 0
22 25 42 53 50 16 1 3 3 5 3 20 15 25 34 28 49 142 116 39 64 16 6 0 35 25 95 18 51 1 1 0 0 0 18 1 0 0 0 0 0 0 0 0 0
35 37 24 17 19 9 9 10 17 20 3 30 28 33 14 9 12 40 52 40 36 59 25 0 5 65 139 42 0 40 46 36 55 27 8 0 0 0 0 0 0 0 0 0 0
21 26 15 17 30 43 11 17 26 2 14 10 23 27 18 28 25 44 31 22 18 40 0 16 29 12 43 13 0 6 42 20 15 1 1 0 0 0 0 0 0 0 0 0 0
3 6 10 9 73 8 5 11 7 22 2 17 32 39 32 25 7 42 19 8 23 3 0 18 3 5 28 0 0 0 3 2 0 0 0 0 0 0 0 0 0 0 0 0 0
0 0 7 0 59 25 7 20 10 10 4 21 5 11 14 12 22 57 13 1 8 1 22 0 4 0 0 9 0 0 0 1 0 2 1 0 0 0 0 0 0 0 0 0 0
3 5 1 16 23 13 10 14 18 8 0 2 0 2 3 3 8 23 2 3 0 13 2 2 1 0 0 3 0 3 4 0 0 0 2 0 0 0 0 0 0 0 0 0 0
4 9 18 16 18 24 20 10 6 22 4 0 0 0 0 0 1 12 0 3 0 39 1 0 6 2 0 0 0 5 5 2 17 0 0 0 0 0 0 0 0 0 0 0 0
3 5 21 5 11 12 25 17 12 30 4 1 8 5 0 0 1 15 6 0 1 5 14 0 13 11 0 0 0 0 0 1 0 0 0 0 0 0 0 0 0 0 0 0 0
1 14 34 38 12 18 12 15 25 18 14 33 9 2 0 0 0 0 6 11 15 0 0 0 0 0 0 0 0 0 0 0 0 1 0 0 0 0 0 0 0 0 0 0 0
0 3 1 4 6 6 19 16 4 41 48 37 4 0 0 0 11 5 5 4 4 0 2 0 3 0 0 0 0 0 0 0 0 0 0 0 0 0 0 0 0 0 0 0 0
0 0 0 2 0 8 2 20 6 10 4 0 2 0 0 0 0 3 0 1 7 3 21 1 4 0 0 0 0 0 0 0 0 0 0 0 0 0 0 0 0 0 0 0 0
0 0 0 0 0 4 0 11 1 7 1 0 1 0 2 0 0 2 0 0 0 0 4 0 0 0 0 0 0 0 0 0 0 0 0 0 0 0 0 0 0 0 0 0 0

GFSSW_con_sbcape_003.txt.gz
CAPE
1 0 2 2 0 0 0 0 0 0 0 4 13 63 78 79 32 11 2 0 0 0 0 0 0 0 32 10 1 0 1 0 0 0 0 0 0 0 0 0 0 0 0 0 0
3 1 1 1 0 0 0 0 0 0 0 0 17 60 73 52 22 35 2 2 1 3 0 0 0 0 131 48 30 0 0 0 0 0 1 0 0 0 0 0 0 0 0 0 0
6 2 1 0 0 0 0 0 0 0 3 0 6 54 61 44 36 21 22 8 25 15 0 0 0 32 58 98 34 25 0 0 0 1 0 0 0 0 0 0 0 0 0 0 0
7 9 2 1 4 3 0 0 0 0 0 13 22 67 78 37 21 58 25 0 0 3 7 0 0 22 101 41 42 38 9 0 3 5 0 0 0 0 0 0 0 0 0 0 0
5 14 9 4 13 8 0 0 0 0 0 26 53 53 59 51 23 40 0 0 0 7 19 4 0 0 64 43 46 31 15 3 2 12 0 0 0 0 0 0 0 0 0 0 0
4 12 10 2 8 9 0 0 0 0 0 14 70 84 54 32 4 28 20 0 0 6 31 31 3 0 10 93 90 48 64 23 15 16 0 0 0 0 0 0 0 0 0 0 0
2 7 18 0 10 37 25 1 2 0 0 0 41 53 49 4 2 3 0 0 0 0 10 33 49 36 28 96 38 158 109 57 17 35 4 3 0 0 0 0 0 0 0 0 0
1 9 24 17 19 43 39 16 2 0 0 0 18 50 55 0 6 2 0 0 0 0 0 5 83 24 30 85 75 135 189 70 20 44 9 6 0 0 0 0 0 0 0 0 0
7 6 11 27 27 70 65 47 44 37 27 14 30 54 23 0 0 0 1 0 3 0 0 4 85 51 53 91 185 202 158 52 74 46 9 23 0 0 0 0 0 0 0 0 0
36 26 20 31 38 87 87 58 61 54 37 37 34 51 1 0 0 0 0 1 6 23 46 27 75 70 71 192 109 153 91 98 127 32 20 22 0 0 0 0 0 0 0 0 0
48 35 32 27 51 64 34 46 14 10 19 1 1 0 1 0 0 0 0 8 9 28 48 61 99 86 10 0 114 123 229 170 150 53 50 8 0 0 0 0 0 0 0 0 0
44 34 36 21 31 66 55 29 5 3 15 2 7 8 13 4 2 0 4 20 27 35 33 144 221 63 43 17 191 192 202 230 107 8 0 2 0 0 0 0 0 0 0 0 0
36 22 15 13 41 79 49 0 0 0 6 2 4 10 4 19 16 35 27 46 41 42 57 226 115 121 109 1 273 204 184 179 92 37 0 5 0 0 0 0 0 0 0 0 0
26 9 12 30 14 23 36 1 0 0 1 8 14 3 5 36 29 20 66 71 37 98 145 140 138 214 149 83 9 251 95 36 60 62 39 7 0 0 0 0 0 0 0 0 0
31 4 29 15 34 50 4 2 0 0 13 7 24 4 18 16 12 2 56 147 111 151 109 0 104 99 104 2 5 110 22 41 103 149 100 17 4 0 0 0 0 0 0 0 0
34 21 26 48 40 32 1 0 6 7 10 8 12 18 24 40 19 42 43 149 138 57 97 0 24 57 31 46 0 70 101 110 104 90 26 8 7 2 0 0 0 0 0 0 0
31 32 8 11 27 2 0 12 17 23 1 22 23 24 28 28 48 57 53 85 93 75 123 10 6 12 4 8 18 32 51 104 39 80 19 15 27 11 0 0 0 0 0 0 0
20 23 2 2 71 16 12 7 18 2 0 10 15 23 60 16 38 50 47 92 31 6 2 6 14 3 1 40 22 8 39 4 13 12 14 0 0 0 0 0 0 0 0 0 0
13 11 20 1 55 22 7 7 13 16 8 24 37 40 78 11 8 17 14 89 4 0 38 6 7 1 2 44 0 0 79 2 13 0 59 0 0 0 0 0 0 0 0 0 0
0 0 0 8 46 22 4 18 23 20 5 17 27 31 55 42 31 35 13 3 5 1 5 8 18 4 27 5 0 15 52 13 24 5 32 8 5 14 0 0 0 0 0 0 0
0 3 11 4 79 14 2 15 21 24 0 17 33 7 25 15 7 13 7 0 0 1 1 24 5 1 2 24 10 4 35 26 28 15 76 83 25 4 0 0 0 0 0 0 0
2 10 31 24 25 15 9 9 11 15 1 28 11 17 14 4 4 26 13 0 0 0 12 20 15 9 2 0 2 32 18 41 101 1 1 2 0 0 0 0 0 0 0 0 0
4 22 27 6 13 11 9 15 16 9 42 6 14 14 2 9 9 10 7 0 0 0 35 37 7 19 16 0 0 0 3 54 55 1 9 0 2 0 0 0 0 0 0 0 0
8 40 19 22 11 16 11 13 16 2 17 1 8 33 6 4 0 0 6 0 0 0 3 6 2 5 14 0 0 1 0 0 0 0 0 3 2 0 0 0 0 0 0 0 0
1 24 18 16 11 6 20 12 11 20 8 0 26 36 5 0 1 6 0 13 0 3 0 9 17 1 1 1 0 0 9 0 2 6 0 0 0 0 0 0 0 0 0 0 0
0 0 28 30 0 7 7 9 16 2 27 18 49 15 10 1 0 0 1 11 21 5 20 3 20 0 0 0 0 0 0 0 0 0 0 0 0 0 0 0 0 0 0 0 0
0 0 0 14 36 4 10 0 2 7 7 11 28 21 21 6 1 1 1 7 20 6 31 22 19 6 7 0 0 0 0 0 0 0 0 0 0 0 0 0 0 0 0 0 0

GFSSW_con_sbcape_006.txt.gz
CAPE
0 1 3 10 6 1 0 0 0 0 0 3 2 11 58 60 49 6 0 0 0 0 0 0 0 0 0 6 0 11 0 0 0 0 0 0 0 0 0 0 0 0 0 0 0
1 3 2 4 3 1 0 0 0 1 0 0 2 5 25 9 4 23 0 11 15 1 0 0 0 0 0 36 0 3 0 0 0 0 0 0 0 0 0 0 0 0 0 0 0
2 4 1 3 2 4 0 2 1 1 5 0 0 27 50 0 13 0 13 14 30 18 0 0 0 0 7 7 18 5 0 0 0 0 0 0 0 0 0 0 0 0 0 0 0
2 3 2 2 3 3 0 0 1 1 0 8 1 19 58 30 23 34 12 0 0 1 5 0 0 0 13 11 13 20 11 0 0 0 8 0 0 0 0 0 0 0 0 0 0
1 3 4 3 6 9 0 0 0 2 17 12 36 50 9 9 5 11 0 0 0 0 2 1 6 0 0 20 43 20 15 10 1 0 0 2 0 0 0 0 0 0 0 0 0
12 4 5 4 7 10 7 0 2 32 23 39 48 66 17 5 0 0 15 2 0 3 24 36 30 6 0 11 22 50 38 23 10 1 1 2 0 0 0 0 0 0 0 0 0
22 2 20 19 6 10 7 9 4 28 34 47 53 27 21 0 0 0 15 0 0 0 0 15 20 45 27 11 30 50 48 70 13 4 6 2 0 0 0 0 0 0 0 0 0
22 20 22 38 27 23 6 0 16 40 57 50 52 41 11 0 0 0 0 0 0 0 0 0 1 40 39 26 36 49 57 7 0 10 8 4 0 0 0 0 0 0 0 0 0
17 33 27 49 52 59 46 7 16 24 50 56 36 51 2 0 0 0 0 0 0 0 0 0 0 18 49 31 36 47 9 1 0 16 7 9 0 0 0 0 0 0 0 0 0
58 56 51 44 66 67 55 0 4 24 32 39 24 34 0 0 0 0 0 1 0 0 0 17 21 26 27 40 5 4 32 1 7 4 44 3 9 0 0 0 0 0 0 0 0
61 51 46 67 66 65 36 0 0 2 2 0 0 0 4 0 0 0 0 1 1 4 2 9 41 10 1 0 0 7 21 155 25 71 78 6 6 0 0 0 0 0 0 0 0
61 32 40 66 74 65 49 6 0 0 6 3 0 1 3 7 1 0 0 9 13 12 2 25 16 0 0 1 15 2 26 25 56 154 69 41 18 0 0 0 0 0 0 0 0
49 24 30 35 53 53 17 2 0 0 5 7 0 0 1 7 9 6 0 0 1 9 10 7 0 0 9 13 25 26 23 88 60 147 46 20 2 0 0 0 0 0 0 0 0
42 26 21 33 24 8 38 36 2 0 0 1 3 5 0 3 7 1 13 9 11 7 13 39 0 3 8 10 4 13 0 25 4 110 5 0 0 0 0 0 0 0 0 0 0
38 39 21 6 46 30 2 0 0 0 0 0 18 0 6 3 5 0 0 27 24 3 33 0 0 8 23 0 4 1 7 31 20 2 25 0 0 0 0 0 0 0 0 0 0
25 19 35 42 21 16 5 1 0 3 0 1 10 19 32 12 12 0 8 44 26 39 22 12 40 73 48 13 0 17 21 3 71 0 31 0 0 10 0 0 0 0 0 0 0
28 10 13 5 3 1 0 1 4 18 0 13 12 16 7 29 33 12 24 36 31 32 31 10 12 43 11 44 121 151 94 52 37 6 5 0 38 0 0 0 0 0 0 0 0
24 19 2 0 0 0 7 7 7 4 0 3 9 13 40 34 34 14 14 44 46 24 18 6 7 2 0 2 98 71 24 1 26 2 2 0 0 2 0 0 0 0 0 0 0
15 7 6 2 0 0 9 2 5 16 10 13 13 27 39 51 17 16 24 7 0 4 9 177 5 7 0 0 75 28 0 0 10 0 0 0 0 0 0 0 0 0 0 0 0
1 2 7 0 2 5 15 4 9 9 2 10 26 2 9 9 3 11 16 0 4 11 0 0 6 15 28 22 14 15 0 10 12 1 11 0 0 0 0 0 0 0 0 0 0
0 2 0 1 4 20 10 3 7 5 6 8 0 3 5 0 0 0 0 0 0 0 0 4 28 1 0 69 29 44 42 24 7 4 3 1 0 0 0 0 0 0 0 0 0
0 3 5 20 21 22 13 4 22 17 4 17 3 9 1 2 0 6 0 0 0 0 2 19 16 3 1 0 8 22 17 1 7 0 0 0 0 0 0 0 0 0 0 0 0
1 11 14 14 10 13 3 12 10 21 30 18 3 0 8 2 0 0 9 3 1 0 0 10 13 2 0 6 2 33 1 0 0 0 0 0 0 0 0 0 0 0 0 0 0
0 16 30 17 5 20 8 17 10 8 3 10 0 2 4 3 0 0 0 7 14 0 64 26 15 5 0 0 0 2 0 0 0 2 0 0 0 0 0 0 0 0 0 0 0
0 7 5 8 5 4 9 8 11 12 7 0 1 0 12 6 3 0 0 1 2 0 25 16 16 5 0 0 0 4 5 0 0 0 0 0 0 0 0 0 0 0 0 0 0
0 0 9 33 0 5 4 14 6 8 17 7 0 16 19 0 0 0 0 0 0 1 2 0 2 0 0 0 2 3 3 0 0 0 0 0 0 0 0 0 0 0 0 0 0
0 0 0 8 14 22 16 1 4 5 11 0 0 0 29 11 1 0 0 0 0 0 0 3 0 1 0 0 0 0 0 0 0 0 0 0 0 0 0 0 0 0 0 0 0

GFSSW_con_sbcape_009.txt.gz
CAPE
0 0 1 2 1 0 0 0 1 1 1 4 13 26 75 63 52 2 0 0 0 0 0 0 0 0 0 0 0 0 0 0 0 0 0 0 0 0 0 0 0 0 0 0 0
0 2 4 0 0 0 0 0 2 2 0 0 6 36 41 44 2 9 0 0 17 1 0 0 0 0 0 0 0 0 0 0 0 0 0 0 0 0 0 0 0 0 0 0 0
0 3 6 0 0 0 0 0 0 1 3 6 0 40 67 8 17 0 0 2 52 28 0 0 0 0 0 0 0 0 0 0 0 0 0 0 0 0 0 0 0 0 0 0 0
0 2 5 4 1 0 0 0 0 0 4 7 10 14 61 57 18 3 0 0 24 28 1 2 0 0 0 0 0 0 0 0 0 0 0 0 0 0 0 0 0 0 0 0 0
1 1 4 6 7 0 2 0 0 0 0 14 26 58 48 31 1 3 0 0 0 0 0 11 3 0 0 0 0 0 0 0 0 0 0 0 0 0 0 0 0 0 0 0 0
22 10 1 2 9 0 4 1 0 0 1 0 9 45 35 4 0 0 0 0 0 0 0 1 3 0 4 0 0 0 0 0 0 0 0 0 0 0 0 0 0 0 0 0 0
44 25 17 0 8 0 3 18 17 2 0 0 0 10 12 0 0 0 18 0 0 0 0 2 21 36 20 1 0 9 6 0 0 0 0 0 0 0 0 0 0 0 0 0 0
49 44 24 16 1 18 10 18 21 30 9 19 4 19 2 0 0 0 0 0 0 0 0 0 0 0 13 9 0 1 17 13 0 0 0 8 0 0 0 0 0 0 0 0 0
51 52 40 29 32 38 39 28 19 32 31 30 13 14 0 0 0 0 0 0 0 0 0 0 0 0 0 16 6 9 4 17 11 0 13 23 0 0 0 0 0 0 0 0 0
78 65 53 42 29 41 42 5 7 17 27 33 13 16 0 0 0 0 0 0 0 0 0 0 0 0 0 32 14 21 14 1 6 0 18 12 0 0 0 0 0 0 0 0 0
82 64 53 40 37 41 5 0 0 0 18 0 0 0 0 0 0 0 0 0 0 0 0 0 4 8 0 0 0 0 0 14 5 0 11 0 0 0 0 0 0 0 0 0 0
89 65 69 58 46 65 2 1 0 0 3 2 0 1 0 1 3 0 0 1 5 1 0 1 3 0 0 0 0 4 6 0 0 0 31 12 0 0 0 0 0 0 0 0 0
93 72 63 55 67 24 0 2 0 0 0 6 2 1 0 2 4 6 0 0 1 5 1 0 0 0 0 0 11 12 3 0 0 0 7 11 2 0 0 0 0 0 0 0 0
78 80 57 58 13 0 3 0 0 0 4 0 1 9 8 1 4 5 8 0 18 2 0 0 0 0 2 5 0 4 0 2 7 31 18 46 39 0 0 0 0 0 0 0 0
88 83 47 0 0 2 0 0 2 6 0 0 4 1 13 2 3 0 0 16 13 4 10 0 0 0 0 0 5 0 0 0 27 47 39 0 9 0 0 0 0 0 0 0 0
92 57 53 17 0 0 0 0 0 0 0 1 1 5 15 25 13 5 0 5 9 18 10 0 0 4 0 0 0 1 6 16 51 40 53 0 3 0 0 0 0 0 0 0 0
49 45 23 0 1 0 0 0 5 1 0 1 6 6 2 10 18 23 22 23 46 9 4 1 0 0 14 2 7 37 21 52 61 42 7 11 2 0 0 0 0 0 0 0 0
12 24 8 0 0 0 0 13 3 0 0 2 1 4 19 2 23 16 7 35 19 2 3 0 0 0 0 1 0 0 9 32 4 0 0 43 1 0 0 0 0 0 0 0 0
12 8 10 0 0 0 0 4 0 0 0 7 6 13 22 22 14 35 14 6 0 0 0 13 0 2 2 38 63 0 39 0 14 36 37 2 0 0 0 0 0 0 0 0 0
12 3 8 1 0 0 3 0 0 0 0 6 17 7 0 2 33 12 1 0 0 0 0 0 5 0 8 9 39 102 10 44 13 17 47 3 0 0 0 0 0 0 0 0 0
0 3 8 2 5 6 12 0 0 0 0 18 19 5 0 0 0 0 0 0 0 0 0 6 3 0 3 11 14 3 10 38 26 9 4 0 0 0 0 0 0 0 0 0 0
0 13 9 2 20 20 14 0 9 1 12 6 19 10 0 0 0 0 0 0 0 0 0 3 28 21 0 17 0 30 13 8 2 0 3 0 0 0 0 0 0 0 0 0 0
3 19 10 3 2 10 6 5 11 13 20 27 10 4 11 0 0 0 0 0 0 0 3 16 23 8 10 14 6 6 34 34 2 0 0 0 0 0 0 0 0 0 0 0 0
0 18 29 21 6 7 6 9 17 6 10 27 14 2 9 1 0 4 0 3 0 0 20 13 13 10 8 3 1 18 14 7 12 3 0 0 0 0 0 0 0 0 0 0 0
0 6 2 5 6 13 10 12 8 9 3 5 10 1 0 0 0 3 0 6 0 32 0 1 3 1 0 0 0 0 1 7 3 0 0 0 0 0 0 0 0 0 0 0 0
0 1 5 1 1 4 9 21 16 5 10 12 0 0 0 0 0 0 0 0 0 1 0 2 5 12 1 0 21 6 0 3 0 0 0 0 0 0 0 0 0 0 0 0 0
0 0 1 6 0 4 0 0 0 4 5 4 5 1 7 0 4 0 0 0 0 0 0 1 7 3 0 0 2 0 1 0 0 0 0 0 0 0 0 0 0 0 0 0 0

GFSSW_con_sbcape_012.txt.gz
CAPE
0 1 5 5 5 0 0 0 0 0 0 0 2 5 37 70 53 3 0 0 0 0 0 0 0 0 0 0 0 0 0 0 0 0 0 0 0 0 0 0 0 0 0 0 0
0 1 7 7 4 2 0 0 0 0 0 1 0 14 13 29 25 11 0 28 22 2 0 0 0 0 0 0 0 0 0 0 0 0 0 0 0 0 0 0 0 0 0 0 0
3 0 8 12 5 0 0 0 0 0 0 0 1 13 50 10 4 0 1 43 77 24 0 0 0 0 0 0 0 0 0 0 0 0 0 0 0 0 0 0 0 0 0 0 0
24 3 4 6 5 1 0 0 0 0 0 0 7 1 22 12 0 0 0 1 40 36 0 0 0 0 0 0 0 0 0 0 0 0 0 0 0 0 0 0 0 0 0 0 0
31 17 4 4 6 1 0 0 0 0 0 0 0 25 2 10 0 0 0 0 0 1 7 0 0 0 0 0 0 0 0 0 0 0 0 0 0 0 0 0 0 0 0 0 0
56 30 20 1 7 4 0 0 0 0 0 0 1 6 0 0 0 0 0 0 0 0 0 1 0 0 0 0 0 0 0 0 0 0 0 0 0 0 0 0 0 0 0 0 0
73 61 58 15 5 7 0 0 8 0 0 0 0 5 10 0 0 0 0 0 0 1 1 16 0 22 11 0 0 0 0 0 0 0 0 0 0 0 0 0 0 0 0 0 0
70 97 64 42 15 26 5 21 0 15 0 14 15 6 0 0 0 0 0 0 0 0 0 0 0 0 0 8 0 0 0 3 0 0 0 0 0 0 0 0 0 0 0 0 0
106 95 84 48 52 54 53 29 11 14 10 25 0 0 0 0 0 0 0 0 0 0 0 0 0 0 0 38 15 2 3 0 3 0 0 0 0 0 0 0 0 0 0 0 0
108 100 89 67 64 73 59 30 12 16 30 29 16 9 0 0 0 0 0 0 0 0 0 0 0 0 0 15 7 4 2 0 0 0 0 0 0 0 0 0 0 0 0 0 0
96 90 80 81 54 65 19 0 0 0 18 0 0 0 0 0 0 0 0 0 0 0 0 0 3 2 0 0 0 0 0 0 0 0 0 0 0 0 0 0 0 0 0 0 0
91 84 92 91 71 68 0 0 0 0 0 0 0 0 0 0 0 0 0 0 1 2 0 2 5 2 0 0 0 0 0 0 0 0 0 1 0 0 0 0 0 0 0 0 0
96 96 82 94 78 42 0 0 0 0 0 0 0 1 1 8 5 7 0 0 0 6 2 5 0 0 0 0 3 0 0 0 0 0 0 0 0 0 0 0 0 0 0 0 0
119 114 98 77 20 0 9 0 0 0 0 0 0 8 15 31 12 7 3 0 6 5 0 1 0 0 0 9 0 4 1 1 11 27 5 27 4 0 0 0 0 0 0 0 0
95 138 97 5 0 1 0 0 0 2 0 0 0 0 7 14 1 0 1 10 6 0 0 2 0 0 0 0 1 3 0 0 14 20 32 0 25 0 0 0 0 0 0 0 0
79 137 42 1 0 0 0 0 0 0 0 1 0 5 10 14 6 5 2 23 11 16 10 0 0 0 0 0 0 5 23 27 27 33 11 0 8 0 0 0 0 0 0 0 0
53 107 4 0 1 0 0 0 0 0 0 1 3 4 0 7 7 10 12 13 16 9 2 6 0 0 1 10 10 13 28 11 15 18 5 0 0 0 0 0 0 0 0 0 0
34 55 1 0 0 0 0 0 0 0 0 0 0 1 3 0 12 6 26 15 15 12 13 2 0 3 0 0 0 12 3 2 5 7 0 40 0 0 0 0 0 0 0 0 0
31 14 3 3 0 0 3 4 0 0 0 0 4 8 11 5 8 15 33 11 0 1 1 3 0 0 0 0 7 8 27 0 0 9 21 0 0 0 0 0 0 0 0 0 0
27 3 6 0 0 0 2 0 0 0 0 0 1 2 0 1 9 7 3 0 0 0 0 0 0 0 0 1 5 12 5 5 19 7 1 7 1 0 0 0 0 0 0 0 0
35 6 14 1 1 8 6 0 0 0 0 0 14 21 0 0 0 0 0 0 0 0 0 0 0 0 0 0 12 10 24 30 0 4 55 13 0 0 0 0 0 0 0 0 0
39 5 15 9 13 8 32 3 0 0 0 6 1 18 2 0 0 0 0 0 0 0 0 0 24 3 0 0 14 1 0 1 27 0 2 1 0 0 0 0 0 0 0 0 0
28 44 12 6 2 6 9 5 7 13 13 19 18 12 0 0 0 0 0 0 0 0 0 17 12 1 0 6 8 32 0 2 0 23 10 34 0 0 0 0 0 0 0 0 0
1 10 25 18 22 7 9 9 9 5 9 19 21 4 5 8 0 0 0 0 0 0 3 15 13 5 0 16 2 32 13 0 0 20 2 0 0 0 0 0 0 0 0 0 0
33 22 7 4 13 1 3 5 3 11 6 9 12 9 5 0 0 0 0 0 0 10 15 10 6 0 3 3 13 14 7 9 7 0 0 0 0 0 0 0 0 0 0 0 0
24 17 9 0 7 6 2 3 17 8 12 15 6 5 0 0 0 0 0 1 0 1 0 13 4 4 8 1 7 7 0 8 23 0 1 0 0 0 0 0 0 0 0 0 0
5 0 0 1 0 3 7 2 4 1 2 2 5 13 0 0 0 1 0 1 0 0 2 9 5 9 5 3 12 11 5 6 1 1 0 0 0 0 0 0 0 0 0 0 0

GFSSW_con_sbcape_015.txt.gz
CAPE
15 0 3 7 10 14 7 1 3 0 0 8 6 15 36 59 45 19 1 0 0 0 0 0 0 0 0 0 0 0 0 0 0 0 0 0 0 0 0 0 0 0 0 0 0
25 9 2 10 13 8 8 2 0 2 0 1 1 14 11 30 32 45 0 11 12 8 0 0 0 0 0 0 0 0 0 0 0 0 0 0 0 0 0 0 0 0 0 0 0
40 23 6 11 23 12 7 6 0 0 0 4 0 0 18 22 6 2 5 34 60 32 0 0 0 0 0 0 0 0 0 0 0 0 0 0 0 0 0 0 0 0 0 0 0
68 33 14 9 12 20 11 6 0 0 0 0 2 0 19 3 0 0 0 0 38 14 0 0 0 0 0 0 0 0 0 0 0 0 0 0 0 0 0 0 0 0 0 0 0
101 61 28 14 16 27 15 12 0 0 0 0 0 9 1 2 0 0 0 0 0 7 0 0 0 0 0 0 0 0 0 0 0 0 0 0 0 0 0 0 0 0 0 0 0
168 88 55 24 15 24 22 16 6 0 0 0 0 5 0 0 0 0 0 0 0 0 0 0 0 0 1 0 0 0 0 0 0 0 0 0 0 0 0 0 0 0 0 0 0
110 132 88 70 17 18 26 25 28 10 1 0 0 0 1 0 0 0 0 0 0 0 0 0 3 26 19 9 0 0 0 0 0 0 0 0 0 0 0 0 0 0 0 0 0
142 146 114 101 56 29 34 29 33 43 18 1 0 1 0 0 0 0 0 0 0 0 0 0 20 0 1 5 4 8 0 0 0 0 0 0 0 0 0 0 0 0 0 0 0
124 105 151 96 71 53 72 46 27 25 32 31 0 0 0 0 0 0 0 0 0 0 0 0 0 0 1 34 24 12 2 0 0 0 0 0 0 0 0 0 0 0 0 0 0
126 118 101 104 90 70 72 65 35 27 41 47 7 0 0 0 0 0 0 0 0 0 0 0 0 0 0 13 0 0 5 1 0 1 0 0 0 0 0 0 0 0 0 0 0
47 104 113 96 101 96 50 0 0 0 5 2 0 0 0 0 0 0 0 0 0 0 0 0 0 2 0 0 0 0 0 0 0 0 0 0 0 0 0 0 0 0 0 0 0
13 99 131 157 120 105 0 0 0 0 0 0 0 0 0 0 0 0 0 0 0 0 0 0 0 0 0 0 0 0 0 1 0 0 0 0 0 0 0 0 0 0 0 0 0
0 74 120 147 138 43 1 0 0 0 0 0 0 2 0 3 5 4 0 0 0 0 0 0 0 0 0 0 0 0 1 1 0 0 0 0 0 0 0 0 0 0 0 0 0
3 39 82 138 37 1 9 0 0 0 0 0 0 0 5 20 9 1 2 0 0 0 0 11 4 0 0 0 0 3 0 0 0 2 0 0 0 0 0 0 0 0 0 0 0
41 33 70 41 0 3 0 0 0 0 0 0 0 0 17 9 1 0 0 5 2 1 0 1 0 0 0 0 0 5 1 2 14 25 9 0 10 0 0 0 0 0 0 0 0
64 26 109 0 0 0 0 0 0 0 0 0 0 6 10 12 11 2 5 27 6 19 2 0 0 0 0 0 0 5 4 8 13 4 6 0 0 0 0 0 0 0 0 0 0
58 20 37 0 0 0 0 0 0 0 0 1 4 7 1 1 7 11 0 20 27 22 3 9 13 0 0 0 0 1 13 16 18 26 2 0 0 0 0 0 0 0 0 0 0
50 47 22 0 0 0 0 0 0 0 0 0 0 2 1 0 5 8 16 5 13 6 8 1 3 9 0 0 0 0 0 3 0 0 0 0 0 0 0 0 0 0 0 0 0
63 4 55 3 0 0 0 0 0 0 0 0 4 8 8 5 4 9 8 0 1 0 0 0 0 0 0 0 1 14 11 0 2 0 25 1 0 0 0 0 0 0 0 0 0
38 20 69 2 1 5 0 0 0 0 0 0 0 0 0 0 2 4 0 0 1 0 1 0 0 0 0 0 0 0 0 18 13 13 3 0 1 0 0 0 0 0 0 0 0
58 25 50 4 9 3 1 0 0 0 0 0 0 0 0 0 0 1 0 0 0 0 0 2 0 0 0 2 0 1 12 23 1 0 5 0 0 0 0 0 0 0 0 0 0
36 7 53 10 13 5 11 0 0 0 0 0 0 3 2 0 0 0 0 0 0 0 3 2 1 0 0 0 0 1 0 0 88 0 0 2 0 0 0 0 0 0 0 0 0
71 20 17 7 1 2 6 3 0 0 0 3 3 8 2 0 0 0 0 0 0 0 0 1 12 0 9 4 5 15 1 0 0 0 0 0 0 0 0 0 0 0 0 0 0
45 2 50 36 27 0 7 2 8 1 0 13 7 16 7 1 0 0 0 0 0 0 1 1 9 2 0 5 2 12 4 2 0 0 0 0 0 0 0 0 0 0 0 0 0
13 9 3 1 10 0 0 5 0 21 1 5 14 10 12 0 1 0 0 0 0 22 21 9 2 0 1 3 5 16 1 2 1 0 0 0 3 0 0 0 0 0 0 0 0
23 21 6 1 3 6 5 2 6 0 11 9 13 7 5 19 0 0 0 0 0 0 4 12 1 4 1 1 5 28 10 5 0 0 0 0 0 0 0 0 0 0 0 0 0
6 0 0 1 10 17 9 0 0 11 3 0 4 6 13 8 0 0 0 0 0 0 6 7 7 10 6 7 7 17 3 10 1 3 0 4 0 0 0 0 0 0 0 0 0

GFSSW_con_sbcape_018.txt.gz
CAPE
40 16 8 0 8 12 8 4 3 11 12 2 14 20 40 60 67 22 0 0 0 0 0 0 0 0 0 0 0 0 0 0 0 0 0 0 0 0 0 0 0 0 0 0 0
74 30 16 8 0 13 12 6 5 5 14 3 7 11 11 31 52 43 0 10 8 1 0 0 0 0 0 0 0 0 0 0 0 0 0 0 0 0 0 0 0 0 0 0 0
70 65 33 23 4 6 15 5 6 4 6 7 0 3 23 34 19 1 1 49 68 58 0 0 0 0 0 0 0 0 0 0 0 0 0 0 0 0 0 0 0 0 0 0 0
72 92 60 36 21 2 12 10 6 3 0 7 11 0 18 11 0 0 0 0 79 19 0 0 0 0 0 0 0 0 0 0 0 0 0 0 0 0 0 0 0 0 0 0 0
112 123 109 60 33 4 25 12 15 3 2 3 19 21 10 2 0 0 0 0 0 25 1 4 0 0 0 0 0 0 0 0 0 0 0 0 0 0 0 0 0 0 0 0 0
102 131 124 93 44 19 31 19 23 9 6 8 13 27 1 0 0 0 0 0 0 24 8 5 0 0 0 0 0 0 0 0 0 0 0 0 0 0 0 0 0 0 0 0 0
59 134 122 112 67 32 28 27 32 17 1 0 16 5 0 0 0 0 0 0 0 0 0 3 0 3 3 0 0 0 0 0 0 0 0 0 0 0 0 0 0 0 0 0 0
36 48 131 118 126 81 44 44 39 38 31 17 22 4 0 0 0 0 0 0 0 0 0 0 15 31 2 0 0 7 6 2 0 0 0 0 0 0 0 0 0 0 0 0 0
22 17 90 109 128 94 79 74 55 28 55 42 0 0 0 0 0 0 0 0 0 0 0 0 0 0 0 4 1 1 0 1 1 0 0 0 0 0 0 0 0 0 0 0 0
22 10 19 103 146 108 117 83 65 41 41 49 1 0 0 0 0 0 0 0 0 0 0 0 0 0 5 5 0 0 1 2 1 0 0 0 0 0 0 0 0 0 0 0 0
37 22 18 73 149 131 69 0 0 0 14 4 0 0 0 0 0 0 0 0 0 0 0 0 1 9 2 0 0 0 0 0 0 0 0 0 0 0 0 0 0 0 0 0 0
65 63 24 9 167 149 0 0 0 0 0 0 0 0 0 0 0 0 0 0 0 0 0 0 0 0 0 0 0 0 0 0 0 0 0 0 0 0 0 0 0 0 0 0 0
56 40 21 8 86 24 0 0 0 0 0 0 0 1 0 0 0 0 0 0 0 0 0 0 0 0 0 0 0 0 0 0 0 0 0 0 0 0 0 0 0 0 0 0 0
75 58 34 1 39 3 9 0 0 0 0 0 0 0 2 5 11 1 0 0 0 0 1 0 0 0 0 0 0 0 0 0 1 1 1 0 0 0 0 0 0 0 0 0 0
109 73 56 69 8 1 0 0 0 0 0 0 4 0 21 0 0 0 0 8 11 0 0 0 0 0 0 0 0 0 0 0 1 8 3 1 12 0 0 0 0 0 0 0 0
117 88 64 8 15 0 0 0 0 0 0 0 3 18 36 21 13 0 13 18 3 11 4 0 0 0 0 0 0 0 0 1 4 11 10 0 0 0 0 0 0 0 0 0 0
101 75 3 9 13 0 0 0 0 0 0 2 3 8 6 6 7 11 11 30 18 7 5 2 6 0 0 0 0 2 34 6 9 10 0 0 0 0 0 0 0 0 0 0 0
96 96 57 67 3 0 0 0 0 0 0 0 0 3 0 0 2 7 17 14 10 12 15 3 0 0 0 0 0 0 0 1 0 0 0 0 0 0 0 0 0 0 0 0 0
104 4 12 26 6 0 0 0 0 0 0 0 3 0 6 0 1 4 16 7 0 17 7 0 0 0 0 0 1 30 1 0 4 0 6 0 0 0 0 0 0 0 0 0 0
43 0 0 1 26 7 0 0 0 0 0 0 0 0 0 1 4 9 0 0 0 0 0 0 2 0 0 0 0 1 0 20 2 0 0 0 0 0 0 0 0 0 0 0 0
53 2 1 5 69 15 1 0 0 0 0 0 0 0 0 0 0 0 0 0 0 0 0 0 0 0 1 0 0 5 16 8 1 5 0 0 0 0 9 0 0 0 0 0 0
24 0 25 70 10 20 4 0 0 0 0 0 0 0 0 0 0 0 0 0 0 0 0 2 29 1 0 0 0 0 0 0 3 0 0 0 0 1 0 0 0 0 0 0 0
31 10 56 26 3 5 3 0 0 0 0 0 0 0 3 0 0 0 0 0 0 0 0 0 15 3 0 0 4 9 0 2 0 9 0 0 0 0 0 0 0 0 0 0 0
29 2 16 36 18 1 1 5 0 0 0 0 9 14 1 8 0 0 0 0 0 0 0 0 13 0 0 0 2 15 21 8 6 1 0 0 0 0 0 0 0 0 0 0 0
8 5 3 3 3 0 0 0 3 4 0 1 14 0 15 11 2 0 0 0 0 0 6 16 2 1 2 3 1 13 3 9 9 0 0 0 0 0 0 0 0 0 0 0 0
10 23 1 1 5 0 1 0 0 0 0 5 2 3 11 20 0 0 0 0 0 0 0 12 1 1 2 1 1 9 33 11 9 1 3 0 0 0 0 0 0 0 0 0 0
14 4 12 6 14 0 0 0 0 0 1 2 0 6 13 8 0 0 0 0 0 2 0 6 6 12 0 1 8 7 2 11 5 1 0 1 0 0 0 0 0 0 0 0 0

GFSSW_con_sbcape_021.txt.gz
CAPE
90 95 55 10 0 0 5 13 16 11 9 0 0 20 36 53 62 9 0 0 0 1 0 0 0 0 0 0 0 0 0 0 0 0 0 0 0 0 0 0 0 0 0 0 0
100 106 99 38 12 3 1 5 10 11 6 1 0 14 34 30 43 31 0 20 30 23 0 0 0 0 0 0 0 0 0 0 0 0 0 0 0 0 0 0 0 0 0 0 0
93 114 124 91 37 12 5 4 8 8 5 2 1 6 26 41 14 1 25 70 94 81 0 0 0 0 0 0 0 0 0 0 0 0 0 0 0 0 0 0 0 0 0 0 0
31 103 114 96 79 27 9 6 3 3 6 5 1 0 19 24 1 0 0 0 71 16 0 0 0 0 0 0 0 0 0 0 0 0 0 0 0 0 0 0 0 0 0 0 0
22 38 116 125 117 52 9 4 4 4 4 3 8 8 1 13 3 0 0 0 0 0 12 0 0 0 0 0 0 0 0 0 0 0 0 0 0 0 0 0 0 0 0 0 0
24 30 35 99 136 110 32 8 12 20 0 11 0 10 0 0 0 0 0 0 0 36 14 8 0 0 0 0 0 0 0 0 0 0 0 0 0 0 0 0 0 0 0 0 0
19 23 28 46 85 133 43 17 25 41 16 1 13 0 0 0 0 0 0 0 0 7 14 12 0 3 0 0 0 0 0 0 0 0 0 0 0 0 0 0 0 0 0 0 0
34 25 24 26 70 143 103 42 38 68 56 15 31 0 0 0 0 0 0 0 0 0 0 1 3 14 4 0 0 7 1 0 0 0 0 0 0 0 0 0 0 0 0 0 0
71 23 24 24 23 109 104 127 76 45 79 70 0 0 0 0 0 0 0 0 0 0 0 20 0 0 0 0 0 0 0 0 0 0 0 0 0 0 0 0 0 0 0 0 0
69 36 22 21 16 77 129 120 85 24 42 46 2 0 0 0 0 0 0 0 0 0 0 0 0 1 9 4 0 0 0 0 0 0 0 0 0 0 0 0 0 0 0 0 0
91 67 46 23 41 42 75 15 0 11 13 0 0 0 0 0 0 0 0 0 0 0 0 0 4 8 4 0 0 0 0 0 0 0 0 0 0 0 0 0 0 0 0 0 0
116 60 28 11 56 9 9 0 0 0 0 0 0 0 0 0 0 0 0 0 0 0 0 0 5 1 0 2 2 5 5 6 0 0 0 0 0 0 0 0 0 0 0 0 0
85 77 23 17 29 21 8 0 0 0 0 0 0 5 0 0 0 0 0 0 0 0 0 0 0 0 0 0 1 1 1 0 1 0 0 0 0 0 0 0 0 0 0 0 0
68 98 81 64 44 31 5 0 0 0 0 0 0 0 11 16 1 0 0 0 0 0 2 0 0 0 0 0 0 3 0 0 0 2 0 0 0 0 0 0 0 0 0 0 0
69 168 80 95 53 57 3 0 0 0 0 0 5 1 11 4 0 0 0 4 1 0 0 0 0 0 2 0 0 0 0 0 0 6 4 2 7 0 0 0 0 0 0 0 0
192 170 117 83 38 7 0 0 0 0 0 2 8 21 27 21 18 0 12 29 5 10 8 0 0 0 0 0 0 0 0 1 6 13 17 0 0 0 0 0 0 0 0 0 0
134 175 96 38 0 45 0 1 0 0 0 3 6 27 22 11 20 6 26 26 14 8 8 7 5 0 0 0 0 1 37 17 12 24 1 0 0 0 0 0 0 0 0 0 0
82 114 68 1 1 20 20 2 0 0 0 0 1 9 3 8 6 17 12 18 20 10 15 0 0 3 5 2 0 5 1 1 0 0 0 0 0 0 0 0 0 0 0 0 0
49 64 18 18 48 44 11 0 0 0 0 1 6 4 3 0 0 5 8 7 6 10 1 1 0 0 0 0 1 28 6 0 3 0 12 0 0 0 0 0 0 0 0 0 0
20 17 1 5 62 17 0 0 0 0 0 0 0 0 1 0 0 4 1 0 0 4 1 0 2 0 0 1 0 13 0 6 15 1 9 0 0 0 0 0 0 0 0 0 0
36 21 22 67 18 5 1 0 0 0 0 0 0 0 0 1 0 2 0 0 0 0 0 0 1 0 0 11 1 7 29 31 5 20 5 0 0 0 0 0 0 0 0 0 0
16 12 17 49 0 1 0 0 0 0 0 0 0 0 0 0 0 0 0 0 0 0 0 1 1 0 0 0 0 0 1 5 16 0 1 0 0 0 3 0 0 0 0 0 0
10 21 75 1 3 3 0 0 0 0 0 0 0 0 0 0 0 0 0 0 0 0 0 0 10 0 0 0 0 4 1 2 1 2 2 0 0 0 0 0 0 0 0 0 0
16 3 2 21 2 3 0 0 0 0 0 0 0 0 0 5 0 0 0 0 0 0 0 0 0 0 0 0 0 4 5 6 5 3 0 0 0 0 0 0 0 0 0 0 0
17 9 3 4 3 0 0 0 0 0 0 0 0 1 4 13 9 2 0 0 0 0 0 0 13 3 1 0 0 0 3 11 6 0 0 0 0 0 0 0 0 0 0 0 0
8 11 1 0 0 0 0 0 0 1 0 0 0 0 0 20 2 0 0 0 0 0 0 6 3 7 4 4 2 1 4 4 6 4 1 0 0 0 0 0 0 0 0 0 0
12 8 9 13 0 0 0 0 0 0 0 1 0 0 8 3 11 0 0 0 0 3 2 10 4 8 0 0 1 10 6 3 9 8 0 2 0 0 0 0 0 12 0 0 1

GFSSW_con_sbcape_024.txt.gz
CAPE
38 73 102 92 28 2 0 0 11 13 1 8 1 1 18 35 63 38 29 1 0 8 0 0 0 0 0 0 0 0 0 0 0 0 0 0 0 0 0 0 0 0 0 0 0
24 63 110 102 85 18 0 0 0 4 3 2 3 3 8 19 55 48 2 30 31 30 0 0 0 0 0 0 0 0 0 0 0 0 0 0 0 0 0 0 0 0 0 0 0
9 30 31 99 94 72 18 0 0 0 3 0 3 10 14 34 28 6 28 84 86 71 0 0 0 0 0 0 0 0 0 0 0 0 0 0 0 0 0 0 0 0 0 0 0
11 13 41 33 94 100 50 7 2 0 0 1 0 0 17 53 3 0 0 7 128 58 8 0 0 0 0 0 0 0 0 0 0 0 0 0 0 0 0 0 0 0 0 0 0
17 11 13 20 40 100 122 13 6 0 0 0 0 0 18 24 11 0 0 0 2 61 28 3 1 2 0 0 0 0 0 0 0 0 0 0 0 0 0 0 0 0 0 0 0
29 30 13 21 24 98 129 76 14 5 0 9 0 5 0 3 0 0 0 0 16 47 44 4 4 0 1 0 0 0 0 0 0 0 0 0 0 0 0 0 0 0 0 0 0
54 34 34 10 23 44 120 88 57 28 0 1 2 5 6 0 0 0 0 0 1 72 38 19 0 0 13 15 6 1 0 0 0 0 0 0 0 0 0 0 0 0 0 0 0
69 63 49 15 29 26 74 148 166 108 48 0 15 1 0 0 0 0 0 0 0 0 59 43 6 1 3 0 2 0 0 0 0 0 0 0 0 0 0 0 0 0 0 0 0
83 69 60 46 23 23 37 161 153 96 84 40 4 0 0 0 0 0 0 0 0 0 7 53 19 0 0 1 4 2 0 0 0 0 0 0 0 0 0 0 0 0 0 0 0
86 89 72 46 27 13 11 107 88 77 95 3 1 1 0 0 0 0 0 0 0 0 4 8 3 7 2 6 0 0 1 0 0 0 0 0 0 0 0 0 0 0 0 0 0
124 107 105 44 15 6 22 18 15 46 57 9 1 0 0 0 0 0 0 0 0 14 13 6 13 3 0 0 0 0 0 2 0 0 0 0 0 0 0 0 0 0 0 0 0
144 103 95 48 18 15 34 40 0 0 6 0 7 0 0 0 0 0 0 0 7 16 14 8 12 0 1 1 2 4 4 3 1 1 0 0 0 0 0 0 0 0 0 0 0
82 103 45 28 49 49 79 39 0 0 0 0 2 1 3 0 0 0 0 2 2 10 7 1 0 0 3 6 9 5 5 4 2 4 4 0 0 0 0 0 0 0 0 0 0
101 63 62 77 54 43 84 43 0 0 4 0 4 2 12 7 0 0 0 0 0 4 8 5 4 0 0 5 4 6 2 3 6 3 2 0 0 0 0 0 0 0 0 0 0
101 225 58 117 44 75 16 1 0 0 11 0 9 12 13 0 0 3 0 1 12 0 0 0 0 6 1 2 3 1 0 0 5 7 3 1 8 0 0 0 0 0 0 0 0
110 97 75 130 117 23 12 0 0 8 1 15 18 39 24 21 7 14 16 21 10 12 11 3 0 1 4 1 1 3 7 13 11 24 27 0 4 0 0 0 0 0 0 0 0
116 86 49 135 51 93 24 0 7 17 0 11 11 36 11 14 30 22 28 30 15 23 22 12 10 1 0 5 5 17 25 16 8 30 1 0 11 0 0 0 0 0 0 0 0
185 24 147 111 122 105 54 2 11 0 4 3 16 26 23 10 13 12 24 25 23 15 8 3 2 5 5 3 8 17 13 14 0 0 0 1 0 0 0 0 0 0 0 0 0
56 46 134 82 66 25 4 11 1 0 1 4 12 9 10 5 3 9 12 4 2 9 3 8 1 0 2 3 2 14 19 1 23 17 37 3 0 0 0 0 0 0 0 0 0
20 30 75 52 63 27 1 10 0 0 0 1 2 1 4 6 4 1 3 0 2 8 6 0 6 0 1 6 10 18 4 8 35 12 14 0 0 0 0 0 0 0 6 0 0
10 12 43 47 94 9 25 4 7 0 0 0 0 4 3 3 5 3 0 0 0 0 21 4 0 1 15 11 0 7 28 57 16 29 10 4 0 0 0 0 0 0 9 31 1
18 19 6 7 0 3 27 1 8 0 0 0 0 0 1 1 3 0 0 0 0 0 6 2 9 5 3 0 0 1 3 4 29 3 15 39 5 0 0 24 50 0 1 9 1
16 11 68 58 15 13 7 9 1 1 0 0 0 0 0 0 0 0 0 0 0 0 0 4 21 5 0 1 0 8 0 0 17 19 24 29 0 0 0 0 0 5 0 0 0
4 9 2 23 9 4 12 8 9 0 0 0 0 0 0 0 0 0 0 0 0 0 0 3 10 0 0 0 6 14 2 4 10 17 6 18 0 0 1 1 1 0 0 0 0
13 12 4 16 35 4 0 0 0 0 0 0 0 0 0 3 1 0 0 0 0 0 1 2 15 4 1 0 2 5 10 13 3 5 7 0 5 1 4 3 2 0 0 0 0
14 14 8 4 1 0 0 0 0 0 0 0 0 0 1 5 0 2 3 3 0 0 5 14 12 22 8 2 5 5 8 6 8 13 12 13 8 0 0 1 0 9 0 1 4
13 10 8 2 9 4 0 0 0 1 0 0 0 0 0 0 0 8 1 0 2 1 3 14 10 15 13 0 6 7 8 6 4 5 5 12 0 0 0 1 0 5 0 0 5

GFSSW_con_sbcape_027.txt.gz
CAPE
13 10 32 33 81 78 22 1 0 0 2 0 3 2 1 16 71 53 25 7 9 13 0 1 0 0 0 0 0 0 3 0 0 0 0 0 0 0 0 0 0 0 0 0 0
9 14 12 33 47 91 81 14 1 1 2 1 1 1 1 11 55 40 0 7 7 1 0 2 0 0 0 0 0 2 0 0 0 0 0 0 0 0 0 0 0 0 0 0 0
22 14 11 15 31 45 101 51 1 4 2 0 0 0 0 2 48 6 54 40 53 40 9 8 7 0 0 0 0 0 0 0 0 0 0 0 0 0 0 0 0 0 0 0 0
23 26 17 9 8 30 71 131 4 9 6 1 0 0 2 13 21 43 10 55 102 51 24 13 6 2 0 0 0 0 0 0 0 0 0 0 0 0 0 0 0 0 0 0 0
20 33 34 24 10 22 21 100 99 37 7 1 0 0 1 24 21 1 0 0 23 67 36 10 17 6 3 0 0 0 0 0 0 0 0 0 0 0 0 0 0 0 0 0 0
23 36 42 42 16 6 25 83 125 58 14 3 0 0 11 6 4 0 0 0 5 62 46 19 17 25 20 10 0 4 1 0 0 0 0 0 0 0 0 0 0 0 0 0 0
25 38 50 51 35 18 17 10 141 66 31 29 0 0 10 0 0 0 0 1 37 37 61 17 4 5 29 15 9 1 1 0 0 0 0 0 0 0 0 0 0 0 0 0 0
36 48 61 58 55 38 16 10 39 93 78 39 6 7 10 0 0 0 0 5 16 55 71 52 3 6 4 0 0 0 1 0 0 0 0 0 0 0 0 0 0 0 0 0 0
31 49 81 88 67 39 10 13 14 127 82 49 14 8 5 0 0 0 0 26 0 20 85 11 14 0 0 5 9 6 0 0 0 0 0 0 0 0 0 0 0 0 0 0 0
102 84 86 106 88 48 11 16 3 99 73 44 19 5 0 0 0 0 0 15 5 8 23 23 0 0 0 3 10 1 1 0 0 0 0 0 0 0 0 0 0 0 0 0 0
133 160 135 131 117 82 53 8 73 41 56 11 0 1 1 0 0 0 0 11 11 22 6 6 11 6 1 17 6 0 0 0 0 0 0 0 0 0 0 0 0 0 0 0 0
94 91 140 125 79 43 64 13 35 8 25 21 0 2 3 0 1 2 8 8 8 8 1 9 9 0 1 0 0 0 1 0 0 0 0 0 0 0 0 0 0 0 0 0 0
38 84 97 91 19 113 69 13 0 2 17 17 6 6 1 0 6 5 2 6 11 1 11 12 0 0 0 1 1 0 0 0 0 0 0 0 0 0 0 0 0 0 0 0 0
30 70 86 105 75 48 24 9 14 11 28 7 20 13 5 5 8 4 1 7 6 1 5 11 1 0 0 1 0 1 0 2 4 1 0 0 0 0 0 0 0 0 0 0 0
49 85 151 160 61 82 56 86 11 18 30 7 14 14 10 1 3 9 9 15 8 12 0 1 0 4 2 0 2 1 1 0 4 3 0 0 2 0 0 0 0 0 0 0 0
64 102 135 133 184 97 117 15 6 12 17 11 14 14 18 14 10 15 16 15 5 1 7 7 0 3 4 2 5 1 2 0 5 2 3 0 0 0 0 0 0 0 0 0 0
99 209 79 57 112 176 112 19 22 14 1 19 16 19 13 8 13 19 22 23 9 14 14 2 4 4 2 5 5 11 12 4 11 18 0 0 0 0 0 0 0 0 0 0 0
180 124 110 139 187 184 0 13 50 6 2 4 22 32 25 11 20 12 15 23 11 5 0 2 6 4 2 5 5 12 14 0 0 0 0 0 0 0 0 0 0 0 0 0 0
47 22 168 172 168 16 8 35 66 6 3 15 35 30 36 8 11 21 12 17 7 7 3 3 1 0 4 6 3 9 12 1 10 3 3 0 0 0 0 0 0 0 0 0 0
22 34 87 154 101 44 7 14 3 2 0 16 9 2 11 14 14 6 18 4 0 7 5 4 4 0 7 5 1 3 4 2 15 6 1 0 0 0 0 1 1 0 0 0 8
18 7 113 103 81 21 79 30 10 4 6 8 2 2 1 11 3 2 4 0 4 3 4 0 1 2 2 2 0 4 8 8 6 37 9 4 0 0 0 0 0 0 23 23 18
13 9 86 90 3 5 36 7 5 7 3 1 6 3 5 7 7 7 0 0 0 0 2 2 2 6 0 0 0 1 0 6 28 0 5 17 3 0 0 0 0 0 43 51 4
9 10 40 32 56 45 14 29 15 13 2 0 1 0 1 2 1 1 0 0 0 0 5 2 13 2 0 0 0 2 0 0 13 15 18 30 2 0 0 0 0 0 1 13 0
9 29 14 11 47 28 31 23 17 7 5 0 0 0 0 1 0 2 1 0 0 0 0 10 7 0 0 0 9 17 3 4 7 15 8 10 2 0 8 36 18 20 5 0 10
7 19 5 24 17 24 10 7 0 0 0 0 0 0 1 0 1 2 2 0 0 0 0 7 31 10 8 2 3 9 10 5 5 6 6 0 4 0 1 13 4 16 1 6 27
9 14 2 7 10 14 0 6 10 1 1 0 3 0 3 7 7 5 5 5 5 1 1 8 24 34 10 0 1 13 3 3 6 5 6 5 4 6 1 1 0 8 8 25 0
12 6 7 11 7 7 3 5 11 2 2 6 5 6 6 9 0 4 0 0 0 4 3 13 24 19 2 0 1 5 0 8 10 11 4 4 2 3 2 0 0 0 0 5 5

GFSSW_con_sbcape_030.txt.gz
CAPE
8 7 7 13 15 29 41 108 24 1 1 7 3 3 3 0 8 34 5 0 2 22 0 1 0 0 0 0 0 0 0 0 0 0 0 0 0 0 0 0 0 0 0 0 271
6 8 16 9 10 15 23 44 95 19 4 11 7 0 0 7 12 17 0 18 32 38 0 0 0 0 0 0 0 0 0 0 0 0 0 0 0 0 0 0 0 0 0 0 0
23 17 13 14 10 10 22 27 84 63 15 8 6 0 0 0 24 1 0 5 37 27 0 0 0 0 0 0 0 0 0 0 0 0 0 0 0 0 0 0 0 0 0 0 0
25 25 29 34 25 15 19 27 30 120 44 8 2 0 0 2 2 16 66 81 83 56 27 8 0 3 0 0 0 0 0 0 0 0 0 0 0 0 0 0 0 0 0 0 0
42 35 30 42 57 40 18 6 35 113 77 8 1 0 0 13 3 18 18 10 48 73 41 14 1 0 0 0 0 0 0 0 0 0 0 0 0 0 0 0 0 0 0 0 0
51 40 26 51 68 60 40 20 28 78 126 10 0 0 0 5 14 0 0 0 0 67 62 40 7 1 3 0 1 0 0 0 0 0 0 0 0 0 0 0 0 0 0 0 0
97 81 53 44 54 68 57 35 21 13 123 51 2 0 0 0 0 0 0 0 6 40 64 68 14 18 23 17 7 4 0 0 0 0 0 0 0 0 0 0 0 0 0 0 0
140 150 84 54 78 94 73 37 11 16 7 64 50 0 13 0 0 0 0 0 3 16 77 66 1 0 13 1 6 0 0 0 0 0 0 0 0 0 0 0 0 0 0 0 0
133 158 148 90 93 113 93 46 13 0 3 81 51 21 1 0 0 0 0 0 1 72 102 25 12 0 0 0 3 4 0 0 0 0 0 0 0 0 0 0 0 0 0 0 0
166 167 149 130 162 128 108 51 6 0 61 64 43 50 2 0 0 0 0 10 0 82 52 26 0 0 0 1 2 0 1 0 0 0 0 0 0 0 0 0 0 0 0 0 0
154 184 94 124 173 141 100 62 46 132 133 10 28 3 0 0 0 0 0 4 5 20 4 15 3 2 0 0 0 1 0 0 0 0 0 0 0 0 0 0 0 0 0 0 0
159 132 57 111 107 121 105 13 2 16 24 30 16 17 0 0 0 0 5 9 11 25 15 1 1 0 1 2 1 0 0 0 0 0 0 0 0 0 0 0 0 0 0 0 0
116 51 62 159 197 56 36 2 2 0 24 28 27 16 0 0 0 0 8 0 0 4 4 1 0 0 0 0 0 0 0 0 0 0 0 0 0 0 0 0 0 0 0 0 0
63 65 93 156 94 65 59 36 6 17 5 25 18 16 4 6 7 0 3 3 2 3 3 4 0 0 0 0 0 0 0 0 0 0 0 0 0 0 0 0 0 0 0 0 0
68 72 102 116 45 6 78 7 10 24 7 17 3 12 5 0 1 9 3 5 1 0 1 0 0 0 0 0 0 0 0 0 0 0 0 0 0 0 0 0 0 0 0 0 0
59 63 145 74 152 68 73 20 19 2 2 18 1 15 28 34 11 1 5 4 1 5 3 2 0 0 0 0 0 0 0 0 0 1 0 0 0 0 0 0 0 0 0 0 0
41 56 37 55 55 131 15 0 31 19 2 20 6 22 11 23 20 7 13 2 0 0 4 0 0 1 0 0 0 3 1 0 0 2 0 0 0 0 0 0 0 0 0 0 0
69 68 5 101 118 1 13 5 4 47 7 0 18 16 17 13 19 19 22 16 12 0 4 0 0 1 0 0 2 7 2 0 0 0 0 0 0 0 0 0 0 0 0 0 0
57 19 37 210 148 14 20 1 13 2 1 13 32 9 19 15 5 21 10 11 5 4 0 0 0 0 0 1 1 2 0 0 1 0 0 0 0 0 0 0 0 0 0 0 0
29 0 60 130 51 7 12 28 4 1 7 20 5 10 8 16 6 10 17 4 0 5 0 0 2 0 7 1 0 0 0 0 3 0 0 0 0 0 0 0 0 0 0 0 0
0 9 55 58 42 30 11 2 1 20 10 2 2 2 2 8 7 6 0 0 2 1 1 1 0 0 0 0 0 1 2 1 1 2 0 0 0 0 0 0 0 0 0 0 0
11 1 65 55 1 4 6 12 3 10 2 8 3 0 0 3 4 0 0 0 0 0 0 0 0 0 0 0 0 0 0 0 2 0 0 0 0 0 0 0 0 0 0 0 18
6 2 32 3 7 22 2 19 5 11 3 0 2 3 0 0 0 4 1 0 0 1 3 0 2 0 0 0 0 0 0 0 0 0 0 0 0 0 0 0 0 0 0 0 0
17 6 8 25 30 3 15 17 8 14 6 0 0 0 0 0 3 1 0 0 0 0 0 0 3 0 0 0 0 0 0 0 2 1 0 0 0 0 0 0 1 1 0 0 0
1 9 4 25 19 16 11 14 7 4 1 1 0 3 3 1 2 0 0 0 0 0 0 1 1 0 0 0 0 0 0 0 1 1 4 0 1 0 0 12 3 0 0 0 0
6 4 2 0 9 6 5 1 10 2 8 1 0 0 1 0 0 0 0 0 0 0 0 0 1 1 0 0 0 0 0 0 2 5 7 4 3 0 1 4 0 3 3 0 0
5 6 5 0 0 12 15 5 6 3 0 1 2 2 5 3 0 0 0 0 0 0 0 16 2 0 0 0 0 1 0 1 1 4 10 6 3 7 4 0 0 1 0 0 0

GFSSW_con_sbcape_033.txt.gz
CAPE
25 26 19 17 15 19 21 25 27 100 19 0 2 5 5 3 5 12 8 0 0 11 0 0 0 0 0 0 0 0 0 0 0 0 0 0 0 0 0 0 0 0 0 28 158
29 31 28 24 16 16 18 17 27 33 88 11 8 4 2 9 10 10 0 0 1 11 2 0 0 0 0 0 0 0 0 0 0 0 0 0 0 0 0 0 0 0 0 0 177
43 30 37 37 25 37 39 19 30 36 69 54 8 7 3 4 21 0 0 0 35 44 0 0 0 0 0 0 0 0 0 0 0 0 0 0 0 0 0 0 0 0 0 0 39
59 59 44 45 47 29 50 37 23 29 41 106 22 10 7 5 0 2 145 20 50 17 0 0 0 0 0 0 0 0 0 0 0 0 0 0 0 0 0 0 0 0 0 0 0
74 72 78 56 32 56 61 69 41 44 58 118 72 30 17 16 0 6 189 218 64 56 7 0 1 0 0 0 0 0 0 0 0 0 0 0 0 0 0 0 0 0 0 0 0
105 108 89 96 60 22 47 60 63 58 21 35 109 80 17 2 0 0 0 22 56 64 48 44 0 0 0 0 0 0 0 0 0 0 0 0 0 0 0 0 0 0 0 0 0
114 141 154 116 87 55 64 86 66 44 10 6 132 36 0 0 0 0 0 0 0 76 35 61 26 8 0 3 0 0 0 0 0 0 0 0 0 0 0 0 0 0 0 0 0
142 150 194 158 150 117 94 89 66 25 0 0 97 24 3 0 0 0 0 0 0 7 71 72 1 0 0 0 0 0 0 0 0 0 0 0 0 0 0 0 0 0 0 0 0
158 167 174 173 151 150 118 104 52 14 3 2 78 23 3 0 0 0 0 0 0 54 48 25 5 0 0 0 1 1 0 0 0 0 0 0 0 0 0 0 0 0 0 0 0
168 187 203 194 140 164 141 113 30 9 0 3 39 18 3 0 0 0 0 0 6 59 16 1 0 0 0 1 0 0 0 0 0 0 0 0 0 0 0 0 0 0 0 0 0
154 195 169 107 137 127 20 0 2 45 22 57 15 0 0 0 0 0 0 0 44 24 28 4 0 2 1 0 0 0 0 0 0 0 0 0 0 0 0 0 0 0 0 0 0
126 103 74 87 193 191 98 9 1 3 5 16 0 1 0 0 0 0 0 0 9 4 0 0 0 0 0 0 3 0 0 0 0 0 0 0 0 0 0 0 0 0 0 0 0
128 69 94 130 191 28 4 3 30 7 5 19 15 6 0 0 0 0 2 0 1 3 0 0 0 0 0 0 0 0 0 0 0 0 0 0 0 0 0 0 0 0 0 0 0
63 62 97 144 90 30 0 18 4 0 1 23 34 10 3 13 0 0 9 0 3 0 0 0 0 0 0 0 0 0 0 0 0 0 0 0 0 0 0 0 0 0 0 0 0
48 40 41 76 24 16 27 0 0 0 3 17 25 10 10 0 0 8 0 0 0 0 0 0 0 0 0 0 0 0 0 0 0 0 0 0 0 0 0 0 0 0 0 0 0
59 67 86 13 46 36 3 0 0 0 0 11 6 22 23 12 4 0 0 0 0 3 0 0 0 0 0 0 0 0 0 0 0 0 0 0 0 0 0 0 0 0 0 0 0
81 107 66 52 52 6 0 0 0 0 6 5 13 13 8 24 1 3 0 0 0 0 0 0 0 0 0 0 0 0 0 0 0 0 0 0 0 0 0 0 0 0 0 0 0
91 88 5 55 35 0 1 1 0 5 12 7 5 10 9 16 7 10 1 0 0 0 0 0 0 0 0 0 0 0 0 0 0 0 0 0 0 0 0 0 0 0 0 0 0
18 2 10 18 0 6 32 0 1 20 4 11 10 0 18 13 9 8 4 0 0 0 0 0 0 0 0 0 0 0 1 0 0 0 0 0 0 0 0 0 0 0 0 0 0
0 2 18 31 0 0 6 30 5 9 3 0 0 3 8 17 8 8 12 1 0 0 0 0 0 0 1 0 0 0 0 0 0 0 0 0 0 0 0 0 0 0 0 0 0
0 11 2 10 18 8 3 2 6 8 0 4 0 4 3 10 5 9 0 0 0 0 0 0 0 0 0 0 0 0 0 0 0 0 0 0 0 0 0 0 0 0 0 0 0
0 7 0 0 0 3 0 3 11 0 0 5 0 0 0 1 1 0 0 0 0 0 0 0 0 0 0 0 0 0 0 0 0 0 0 0 0 0 0 0 0 0 0 0 0
0 0 0 0 0 0 4 1 11 16 15 9 4 0 0 0 0 0 0 0 0 0 5 0 0 0 0 0 0 0 0 0 0 0 0 0 0 0 0 0 0 0 0 0 0
0 0 0 0 0 0 5 0 8 3 1 0 0 0 0 4 0 0 0 0 0 0 6 0 0 0 0 0 0 0 0 0 0 0 0 0 0 0 0 0 0 0 0 0 4
0 0 1 0 0 0 0 0 0 0 0 0 10 0 0 0 0 1 0 0 0 0 0 0 0 0 0 0 0 0 0 0 0 0 0 0 0 0 0 0 7 0 3 1 6
1 2 0 0 0 0 0 0 3 0 0 0 0 1 0 0 1 0 0 0 0 0 0 0 0 0 0 0 0 0 0 0 0 0 0 0 1 0 0 2 1 0 3 5 1
1 1 5 0 0 0 0 1 0 0 0 0 1 2 7 3 0 0 0 0 0 0 0 2 0 0 0 0 0 0 0 0 0 0 1 6 1 0 0 4 1 3 2 1 0

GFSSW_con_sbcape_036.txt.gz
CAPE
35 40 34 25 25 18 30 25 20 10 20 113 15 3 12 14 19 23 2 0 0 2 0 0 0 0 0 0 0 0 0 0 0 0 0 0 0 0 0 0 0 0 2 0 23
50 41 44 32 56 22 17 29 31 17 15 23 87 4 14 18 12 7 0 0 0 10 6 0 0 0 0 0 0 0 0 0 0 0 0 0 0 0 0 0 0 0 0 1 0
69 54 61 73 53 63 53 52 54 29 14 13 86 51 23 21 12 0 0 0 2 7 0 0 0 0 0 0 0 0 0 0 0 0 0 0 0 0 0 0 0 0 10 2 0
103 118 77 82 96 48 47 39 49 59 15 24 80 73 22 23 0 0 77 0 84 13 0 0 0 0 0 0 0 0 0 0 0 0 0 0 0 0 0 0 0 0 0 0 0
120 114 117 130 89 98 51 42 43 47 30 47 50 63 21 10 0 0 114 121 31 19 0 0 0 0 0 0 0 0 0 0 0 0 0 0 0 0 0 0 0 0 0 0 0
126 145 161 178 140 122 96 49 65 62 38 25 4 85 2 0 0 0 55 107 18 32 0 7 0 0 0 0 0 0 0 0 0 0 0 0 0 0 0 0 0 0 0 0 0
135 160 194 213 162 158 165 122 90 91 37 2 0 30 6 0 0 0 50 86 60 47 16 17 18 0 0 0 0 0 0 0 0 0 0 0 0 0 0 0 0 0 0 0 0
126 160 176 195 186 154 143 144 95 89 56 11 0 23 1 0 0 0 0 0 0 43 51 60 27 0 0 0 0 0 0 0 0 0 0 0 0 0 0 0 0 0 0 0 0
126 161 169 186 203 158 152 197 186 122 62 24 0 25 0 11 0 0 0 0 0 29 40 42 11 1 0 0 0 0 0 0 0 0 0 0 0 0 0 0 0 0 0 0 0
138 159 162 166 137 139 139 162 77 73 30 28 0 8 1 0 0 0 0 0 29 91 33 2 1 1 0 0 0 0 0 0 0 0 0 0 0 0 0 0 0 0 0 0 0
108 110 117 100 147 178 130 8 0 32 67 0 7 0 0 0 0 0 0 0 87 38 28 0 2 3 8 0 0 0 0 0 0 0 0 0 0 0 0 0 0 0 0 0 0
81 55 76 90 160 189 57 16 0 9 1 1 0 0 0 0 0 0 0 4 33 9 1 0 4 3 4 0 0 1 0 0 0 0 0 0 0 0 0 0 0 0 0 0 0
34 60 65 89 103 23 0 3 15 5 3 0 0 2 0 0 0 0 0 2 0 0 0 1 0 0 2 0 0 0 0 0 0 0 0 0 0 0 0 0 0 0 0 0 0
11 35 60 92 37 10 0 28 8 1 0 5 29 31 6 0 0 0 4 0 1 2 0 0 0 0 0 0 0 0 0 0 0 0 0 0 0 0 0 0 0 0 0 0 0
33 50 141 121 24 35 10 4 1 0 0 9 28 14 1 0 0 0 0 0 0 0 0 0 0 0 0 0 0 0 0 0 0 0 0 0 0 0 0 0 0 0 0 0 0
121 143 141 72 25 38 0 0 0 0 0 1 5 3 10 0 0 5 8 0 1 0 0 0 0 0 0 0 0 0 0 0 0 0 0 0 0 0 0 0 0 0 0 0 0
106 34 29 60 58 10 0 0 0 0 2 4 16 27 2 6 1 1 1 0 0 0 2 0 0 0 0 0 0 0 0 0 0 0 0 0 0 0 0 0 0 0 0 0 0
5 2 39 58 2 0 0 0 0 0 0 4 8 9 12 8 18 4 1 0 0 0 0 0 0 0 0 0 0 0 0 0 0 0 0 0 0 0 0 0 0 0 0 0 0
0 0 2 20 0 2 5 0 0 6 4 12 9 5 8 8 9 2 0 0 0 0 0 0 0 0 0 0 0 0 0 0 0 0 0 0 0 0 0 0 0 0 0 0 0
0 0 9 15 0 1 5 7 4 9 1 0 1 0 0 6 3 0 0 0 0 0 0 0 0 0 0 0 0 0 0 0 0 0 0 0 0 0 0 0 0 0 0 0 0
0 0 0 0 1 9 5 1 9 3 0 0 0 0 0 2 0 0 0 0 0 0 0 0 0 0 0 0 0 0 0 0 0 0 0 0 0 0 0 0 0 0 0 0 0
0 0 0 0 0 2 0 4 4 0 0 0 0 0 0 4 1 1 0 0 0 0 0 0 0 0 0 0 0 0 0 0 0 0 0 0 0 0 0 0 0 0 0 0 0
0 0 0 0 0 0 0 0 12 1 0 0 0 0 0 0 0 0 0 0 0 0 0 0 0 0 0 0 0 0 0 0 0 0 0 0 0 0 0 0 0 0 0 1 0
0 0 0 0 0 0 0 0 3 0 0 0 0 0 0 0 0 0 0 0 0 0 11 0 0 0 0 0 0 0 0 0 0 0 0 0 0 0 0 0 0 0 4 0 0
0 2 2 0 0 0 0 0 0 0 0 0 0 0 7 5 0 0 0 0 0 5 0 0 0 0 0 0 0 0 0 0 0 0 0 0 0 0 0 0 0 1 0 0 0
0 2 0 0 0 0 0 0 0 0 0 1 0 3 0 2 0 0 0 0 0 0 0 0 0 0 0 0 0 0 0 0 0 0 0 0 0 0 0 0 0 2 0 0 0
1 0 5 0 0 0 0 0 0 0 0 0 0 8 8 5 0 0 0 0 0 0 0 0 0 0 0 0 0 0 0 0 0 0 0 0 0 0 0 0 1 3 0 0 0

GFSSW_con_sbcape_039.txt.gz
CAPE
56 66 58 57 47 45 62 20 15 29 6 3 14 104 24 7 16 21 4 0 0 0 0 0 0 0 0 0 0 0 0 0 0 0 0 0 0 0 0 0 0 0 0 0 0
73 85 87 85 85 82 57 49 27 43 28 3 7 52 50 47 7 11 0 0 1 0 8 0 0 0 0 0 0 0 0 0 0 0 0 0 0 0 0 0 0 0 0 0 0
80 96 105 133 87 103 79 53 39 28 28 7 13 27 103 19 0 0 0 0 0 9 26 0 0 0 0 0 0 0 0 0 0 0 0 0 0 0 0 0 0 0 0 0 11
86 94 108 121 140 144 133 102 53 18 32 15 21 33 58 8 0 0 9 0 107 43 18 0 0 0 0 0 0 0 0 0 0 0 0 0 0 0 0 0 0 0 0 0 0
85 89 102 128 152 144 186 139 93 36 24 34 35 48 27 10 0 0 8 80 48 55 14 0 0 0 0 0 0 0 0 0 0 0 0 0 0 0 0 0 0 0 0 0 0
83 80 98 135 182 187 209 158 124 57 57 59 38 21 35 1 0 0 0 55 64 29 10 0 0 0 0 0 0 0 0 0 0 0 0 0 0 0 0 0 0 0 0 0 0
83 83 84 148 226 207 200 199 158 141 88 69 32 12 39 0 0 0 52 196 160 52 5 0 0 0 0 0 0 0 0 0 0 0 0 0 0 0 0 0 0 0 0 0 0
90 97 112 156 203 217 206 200 197 153 121 83 41 24 26 0 0 0 10 98 50 47 75 70 48 3 0 0 0 0 0 0 0 0 0 0 0 0 0 0 0 0 0 0 0
83 107 121 171 170 209 164 169 225 192 157 101 44 26 4 0 0 0 0 6 20 47 103 95 6 10 0 0 0 0 0 0 0 0 0 0 0 0 0 0 0 0 0 0 0
81 91 74 73 136 184 207 244 215 96 68 71 42 59 6 0 0 0 0 0 72 133 108 88 32 2 0 0 0 0 0 0 0 0 0 0 0 0 0 0 0 0 0 0 0
54 38 41 78 144 230 149 0 0 23 76 0 0 0 0 0 0 0 0 10 109 65 107 16 54 2 0 0 0 0 0 0 0 0 0 0 0 0 0 0 0 0 0 0 0
35 32 48 112 145 169 37 3 2 15 20 15 3 3 0 2 11 0 0 11 60 73 4 7 9 0 6 5 3 5 0 0 0 0 0 0 0 0 0 0 0 0 0 0 0
88 71 82 127 163 15 3 0 13 0 3 0 0 0 0 8 7 1 0 14 29 54 8 5 0 12 0 5 4 4 0 0 0 0 0 0 0 0 0 0 0 0 0 0 0
213 229 177 153 88 23 0 9 10 0 0 1 1 0 10 12 5 0 0 8 4 2 1 0 0 3 13 11 0 0 0 0 0 0 0 0 0 0 0 0 0 0 0 0 0
93 136 168 152 51 5 39 9 0 4 2 7 13 18 12 2 0 22 7 0 0 0 0 1 0 0 0 0 0 0 0 0 0 0 0 0 0 0 0 0 0 0 0 0 0
40 107 73 0 13 17 0 3 0 0 0 1 27 6 20 2 12 36 10 0 0 0 0 0 0 0 0 0 0 0 0 0 0 0 0 0 0 0 0 0 0 0 0 0 0
8 51 12 4 0 0 0 0 0 0 3 2 9 7 6 27 33 11 0 5 5 0 2 0 0 0 0 0 0 0 0 0 0 0 0 0 0 0 0 0 0 0 0 0 0
12 0 7 0 0 0 0 0 0 3 1 1 10 8 7 30 12 3 0 0 0 0 0 0 0 0 0 0 0 0 0 0 0 0 0 0 0 0 0 0 0 0 0 0 0
0 0 8 1 1 0 0 0 3 2 2 12 8 1 1 1 21 6 0 0 0 0 0 0 0 0 0 0 0 0 0 0 0 0 0 0 0 0 0 0 0 0 0 0 0
0 0 0 0 0 0 0 4 4 3 3 0 0 0 1 0 1 4 0 0 0 0 0 0 0 0 0 0 0 0 0 0 0 0 0 0 0 0 0 0 0 0 0 0 0
0 0 0 0 0 2 1 0 6 0 0 0 0 0 0 0 0 0 0 0 0 0 0 0 0 0 0 0 0 0 0 0 0 0 0 0 0 0 0 0 0 0 0 0 0
0 0 0 0 0 1 0 1 0 0 0 0 0 0 0 0 0 0 0 0 0 0 0 0 0 0 0 0 0 0 0 0 0 0 0 0 0 0 0 0 0 0 0 0 0
0 0 0 0 0 0 0 0 0 0 0 0 0 0 0 0 0 0 0 0 0 0 0 0 0 0 0 0 0 0 0 0 0 0 0 0 0 0 0 0 0 0 0 0 0
0 0 0 0 0 0 0 0 1 0 0 0 0 0 0 0 0 0 0 0 0 0 0 0 0 0 0 0 0 0 0 0 0 0 0 0 0 0 0 0 0 0 0 0 0
0 1 1 0 0 0 0 0 0 0 0 0 0 0 0 0 0 0 0 0 0 14 0 0 0 0 0 0 0 0 0 0 0 0 0 0 0 0 0 0 0 0 0 0 0
0 2 1 2 0 0 0 0 0 0 0 0 0 4 2 1 0 0 0 0 0 0 0 0 0 0 0 0 0 0 0 0 0 0 0 0 0 0 0 0 0 0 0 0 0
0 0 2 0 0 0 0 0 0 0 0 1 6 15 15 4 0 0 0 0 0 0 0 0 0 0 0 0 0 0 0 0 0 0 0 0 0 0 0 0 0 0 0 0 0

GFSSW_con_sbcape_042.txt.gz
CAPE
68 70 88 72 82 83 86 72 68 25 18 15 14 13 31 114 62 29 17 0 0 3 43 0 0 0 0 0 0 0 0 0 0 0 0 0 0 0 0 0 0 0 0 0 5
67 70 70 90 89 107 117 117 69 56 17 16 13 6 5 53 18 9 0 0 0 0 13 0 0 0 0 0 0 0 0 0 0 0 0 0 0 0 0 0 0 0 0 0 357
75 84 86 99 83 116 107 112 114 83 38 5 17 12 7 38 1 0 0 0 0 2 43 0 0 0 0 0 0 0 0 0 0 0 0 0 0 0 0 0 0 0 0 0 6
72 67 76 73 79 88 100 126 103 120 74 24 25 21 42 32 0 0 1 2 0 0 42 21 0 0 0 0 0 0 0 0 0 0 0 0 0 0 0 0 0 0 0 0 0
91 77 87 69 87 103 145 212 172 180 125 45 32 33 80 7 0 0 41 84 0 11 58 13 0 0 0 0 0 0 0 0 0 0 0 0 0 0 0 0 0 0 0 0 0
92 80 78 87 100 145 222 269 221 224 154 71 65 58 29 2 0 0 0 42 0 169 52 0 2 0 0 0 0 0 0 0 0 0 0 0 0 0 0 0 0 0 0 0 0
88 99 97 122 168 182 242 244 229 186 169 145 72 57 38 0 0 0 0 107 48 265 62 4 0 0 0 0 0 0 0 0 0 0 0 0 0 0 0 0 0 0 0 0 0
107 99 121 128 170 223 247 209 188 218 198 135 90 67 11 0 0 0 0 155 116 65 58 8 5 0 0 0 0 0 0 0 0 0 0 0 0 0 0 0 0 0 0 0 0
125 122 72 76 72 169 170 169 216 254 202 176 36 35 26 2 0 0 0 245 124 66 79 88 6 22 0 0 0 0 0 0 0 0 0 0 0 0 0 0 0 0 0 0 0
106 17 9 71 105 195 230 251 197 51 51 119 61 16 7 0 0 0 0 68 114 127 118 51 58 8 0 1 0 0 0 0 0 0 0 0 0 0 0 0 0 0 0 0 0
89 89 37 41 131 202 101 0 0 0 49 0 0 5 25 1 0 0 0 53 67 75 103 20 70 13 7 7 0 0 0 0 0 0 0 0 0 0 0 0 0 0 0 0 0
163 209 203 99 113 173 4 0 0 1 0 26 0 4 0 3 0 1 0 24 45 36 30 32 15 4 0 0 0 0 0 0 0 0 0 0 0 0 0 0 0 0 0 0 0
161 166 205 204 114 13 3 0 4 2 6 5 1 11 2 6 2 0 0 42 29 62 59 3 16 19 7 7 14 8 0 0 0 0 0 0 0 0 0 0 0 0 0 0 0
153 217 123 134 18 3 0 0 10 0 0 1 4 15 9 20 1 0 0 25 24 49 19 0 13 5 2 4 15 1 0 0 0 0 0 0 0 0 0 0 0 0 0 0 0
104 185 92 54 2 0 16 0 0 1 0 1 10 19 36 0 1 8 9 1 13 2 0 1 6 23 10 1 0 0 0 0 0 0 0 0 0 0 0 0 0 0 0 0 0
23 48 20 0 0 0 5 0 0 0 0 3 19 7 16 9 45 36 22 1 0 0 0 0 0 0 0 0 0 0 0 0 0 0 0 0 0 0 0 0 0 0 0 0 0
2 6 0 1 0 0 0 0 0 0 1 3 4 11 7 39 23 13 3 0 4 1 6 4 0 0 0 0 0 0 0 0 0 0 0 0 0 0 0 0 0 0 0 0 0
4 0 0 1 0 0 0 0 0 0 0 4 4 21 21 18 24 4 5 1 0 0 0 0 1 0 0 0 0 0 0 0 0 0 0 0 0 0 0 0 0 0 0 0 0
0 0 0 0 2 1 1 0 0 1 2 8 2 22 19 7 9 12 0 0 0 0 0 0 0 0 0 0 0 0 0 0 0 0 0 0 0 0 0 0 0 0 0 0 0
0 0 0 0 0 0 0 2 4 3 0 0 1 0 0 6 12 2 0 0 0 0 0 0 0 0 0 0 0 0 0 0 0 0 0 0 0 0 0 0 0 0 0 0 0
0 0 0 0 0 0 0 0 0 0 0 0 0 0 0 0 0 0 0 0 0 0 0 0 0 0 0 0 0 0 0 0 0 0 0 0 0 0 0 0 0 0 0 0 0
0 0 0 0 0 0 0 0 0 0 0 0 0 0 0 0 0 0 0 0 0 0 0 0 0 0 0 0 0 0 0 0 0 0 0 0 0 0 0 0 0 0 0 0 0
0 0 0 0 0 0 0 0 0 0 0 0 0 0 0 0 0 0 0 0 0 0 0 0 0 0 0 0 0 0 0 0 0 0 0 0 0 0 0 0 0 0 0 0 0
0 0 0 0 0 0 0 0 0 0 0 0 0 0 0 0 0 0 0 0 0 0 0 0 0 0 0 0 0 0 0 0 0 0 0 0 0 0 0 0 0 0 0 0 0
0 0 2 0 0 0 0 0 0 0 0 0 0 0 0 0 0 0 0 0 0 0 0 0 0 0 0 0 0 0 0 0 0 0 0 0 0 0 0 0 0 0 0 0 0
0 2 0 0 0 0 0 0 0 0 0 0 0 0 0 0 0 0 0 0 0 0 0 0 0 0 0 0 0 0 0 0 0 0 0 0 0 0 0 0 0 0 0 0 0
0 0 4 0 0 0 0 0 0 0 0 0 1 7 13 6 0 0 0 0 0 0 0 0 0 0 0 0 0 0 0 0 0 0 0 0 0 0 0 0 0 0 0 0 0

GFSSW_con_sbcape_045.txt.gz
CAPE
70 79 79 71 79 92 83 99 106 91 65 5 0 1 6 9 17 46 21 1 0 0 24 1 39 6 0 0 0 0 0 0 0 0 0 0 0 0 0 0 0 0 0 0 7
84 84 75 82 86 83 90 88 121 108 90 62 0 0 3 5 8 16 0 0 3 0 14 1 95 0 0 0 0 0 0 0 0 0 0 0 0 0 0 0 0 0 0 14 192
76 72 93 89 83 89 84 79 90 120 109 89 35 3 2 17 22 5 40 50 73 3 0 39 27 0 0 0 0 0 0 0 0 0 0 0 0 0 0 0 0 0 0 0 127
90 91 88 83 94 92 79 97 138 115 105 114 60 20 12 41 49 0 4 194 116 2 65 34 7 0 0 0 0 0 0 0 0 0 0 0 0 0 0 0 0 0 0 0 45
86 90 99 97 124 119 144 202 197 179 138 130 76 25 25 76 5 0 0 1 51 4 13 12 12 16 9 0 0 0 0 0 0 0 0 0 0 0 0 0 0 0 0 0 0
82 120 161 151 170 159 193 195 224 239 205 171 122 90 34 70 0 0 0 0 5 26 64 3 2 2 6 0 0 0 0 0 0 0 0 0 0 0 0 0 0 0 0 0 0
81 125 176 150 128 148 201 236 256 210 193 215 180 94 58 32 0 0 0 11 0 69 201 5 0 0 0 0 0 0 0 0 0 0 0 0 0 0 0 0 0 0 0 0 0
58 128 156 52 76 77 181 156 163 192 216 172 154 75 17 21 2 0 0 35 20 258 288 56 0 0 0 0 0 0 0 0 0 0 0 0 0 0 0 0 0 0 0 0 0
148 195 118 7 53 86 173 203 223 289 219 155 72 33 25 62 47 3 0 7 109 157 96 90 10 31 0 0 0 0 0 0 0 0 0 0 0 0 0 0 0 0 0 0 0
179 229 214 156 26 124 215 279 211 30 73 158 65 10 12 11 5 0 0 9 166 165 152 115 48 9 0 0 0 2 0 0 0 0 0 0 0 0 0 0 0 0 0 0 0
154 197 216 218 69 102 48 0 0 0 0 0 0 0 48 34 0 1 0 125 97 102 69 63 19 3 6 0 0 0 0 0 0 0 0 0 0 0 0 0 0 0 0 0 0
144 180 192 185 122 56 0 0 0 0 0 8 0 0 0 0 9 4 0 79 120 28 47 73 13 0 0 0 0 0 0 0 0 0 0 0 0 0 0 0 0 0 0 0 0
123 136 116 89 75 0 0 0 2 0 0 1 1 11 0 4 6 2 0 18 23 0 0 21 24 1 4 15 7 1 0 0 0 0 0 0 0 0 0 0 0 0 0 0 0
72 96 93 76 0 0 0 13 4 0 0 0 14 9 0 12 13 0 0 3 7 9 0 2 34 22 12 9 14 8 0 0 0 0 0 0 0 0 0 0 0 0 0 0 0
6 23 13 1 8 2 14 0 0 0 0 1 20 3 46 9 2 10 14 11 1 0 0 1 37 16 7 0 2 0 0 0 0 0 0 0 0 0 0 0 0 0 0 0 0
1 0 0 0 0 1 0 0 0 0 0 3 13 16 13 1 31 28 24 0 0 0 0 0 0 1 0 0 0 0 0 0 0 0 0 0 0 0 0 0 0 0 0 0 0
0 0 0 0 1 0 0 0 0 0 0 2 5 4 5 7 17 11 11 3 0 1 2 1 1 0 0 0 0 0 0 0 0 0 0 0 0 0 0 0 0 0 0 0 0
0 0 0 0 0 0 0 0 0 1 0 5 12 21 37 2 7 6 5 0 0 0 0 0 2 0 0 0 1 0 0 0 0 0 0 0 0 0 0 0 0 0 0 0 0
0 0 0 0 0 0 5 0 0 0 0 17 0 0 11 0 10 5 2 0 0 0 0 0 0 0 0 0 0 0 0 0 0 0 0 0 0 0 0 0 0 0 0 0 0
0 0 0 0 0 0 0 4 5 3 0 0 0 0 6 4 6 2 0 0 0 0 0 0 0 0 0 0 0 0 0 0 0 0 0 0 0 0 0 0 0 0 0 0 0
0 0 0 0 0 0 0 0 0 0 0 0 0 0 0 1 0 0 0 0 0 0 0 0 0 0 0 0 0 0 0 0 0 0 0 0 0 0 0 0 0 0 0 0 0
0 0 0 0 0 0 0 0 0 0 0 0 0 0 0 0 0 0 0 0 0 0 0 0 0 0 0 0 0 0 0 0 0 0 0 0 0 0 0 0 0 0 0 0 0
0 0 0 0 0 0 0 0 0 0 0 0 0 0 0 0 0 0 0 0 0 0 0 0 0 0 1 0 0 0 0 0 0 0 0 0 0 0 0 0 0 0 0 0 0
0 0 0 0 0 0 0 0 0 0 0 0 0 0 0 0 0 0 0 0 0 0 0 0 0 0 0 0 0 0 0 0 0 0 0 0 0 0 0 0 0 0 0 0 0
0 0 0 0 0 0 0 0 0 0 0 0 0 0 0 0 0 0 0 0 0 0 0 0 0 0 0 0 0 0 0 0 0 0 0 0 0 0 0 0 0 0 0 0 0
0 0 1 0 0 0 0 0 0 0 0 0 0 0 0 0 0 0 0 0 0 0 0 0 0 0 0 0 0 0 0 0 0 0 0 0 0 0 0 0 0 0 0 0 0
0 0 2 0 0 0 0 0 0 0 0 0 0 0 0 0 0 0 0 0 0 0 0 0 0 0 0 0 0 0 0 0 0 0 0 0 0 0 0 0 0 0 0 0 0

GFSSW_con_sbcape_048.txt.gz
CAPE
58 58 61 67 72 82 85 84 89 84 94 107 37 1 0 6 2 0 23 6 0 20 88 0 0 134 0 0 0 0 0 0 0 0 0 0 0 0 0 0 0 0 0 0 0
56 68 69 77 86 76 76 80 80 74 90 103 106 22 0 1 6 1 0 44 47 2 18 0 68 101 0 0 0 0 0 0 0 0 0 0 0 0 0 0 0 0 0 141 350
53 71 80 94 88 105 105 80 120 119 134 104 146 75 10 1 9 1 72 324 249 51 10 9 117 92 17 0 0 0 0 0 0 0 0 0 0 0 0 0 0 0 0 36 355
65 72 83 113 123 152 152 168 192 199 204 146 130 86 27 12 13 71 163 591 379 91 28 26 131 90 25 0 0 0 0 0 0 0 0 0 0 0 0 0 0 0 0 0 216
78 60 75 120 163 167 178 180 199 253 240 234 152 123 59 11 2 1 0 0 322 118 45 25 88 80 25 12 0 0 0 0 0 0 0 0 0 0 0 0 0 0 0 0 0
58 58 95 165 154 131 137 201 251 248 217 259 185 124 64 10 15 52 0 1 110 137 72 76 21 44 34 26 0 0 0 0 0 0 0 0 0 0 0 0 0 0 0 0 0
128 150 168 130 50 38 99 141 209 182 168 201 210 133 46 0 77 48 5 0 134 37 97 167 33 45 24 17 2 0 0 0 0 0 0 0 0 0 0 0 0 0 0 0 0
147 176 196 130 0 11 71 159 202 201 197 154 211 127 24 2 14 22 9 2 230 57 205 231 183 56 27 4 0 1 0 0 0 0 0 0 0 0 0 0 0 0 0 0 0
148 187 182 185 85 13 89 212 286 276 254 101 93 120 24 111 30 6 24 7 189 99 265 165 180 74 7 14 5 2 0 0 0 0 0 0 0 0 0 0 0 0 0 0 0
124 159 182 197 171 5 114 217 117 83 214 61 26 87 31 85 102 21 9 46 142 99 208 119 144 88 57 19 0 0 0 0 0 0 0 0 0 0 0 0 0 0 0 0 0
85 105 127 119 84 12 146 24 11 64 74 0 8 2 63 17 64 2 25 41 112 179 43 62 91 37 23 10 0 0 0 0 0 0 0 0 0 0 0 0 0 0 0 0 0
31 59 76 74 52 119 72 4 2 2 11 42 0 0 2 0 36 10 28 68 76 26 66 69 31 28 38 25 1 0 0 0 0 0 0 0 0 0 0 0 0 0 0 0 0
15 25 37 76 67 54 32 15 5 0 23 4 0 0 15 2 18 17 38 53 42 27 51 26 20 13 38 31 11 0 0 0 0 0 0 0 0 0 0 0 0 0 0 0 0
22 7 0 0 5 23 33 48 0 0 19 0 5 27 2 29 30 7 34 39 1 3 0 5 31 13 3 29 17 8 0 0 0 0 0 0 0 0 0 0 0 0 0 0 0
6 5 0 0 3 4 9 0 0 0 35 0 8 0 29 11 6 44 41 36 6 3 7 6 12 58 28 7 22 2 0 0 0 0 0 0 0 0 0 0 0 0 0 0 0
6 1 0 0 0 0 0 0 0 7 4 7 6 26 5 17 31 31 18 14 10 24 14 10 7 0 1 0 9 0 0 0 0 0 1 0 0 0 0 0 0 0 0 0 0
6 0 0 0 0 1 1 0 4 10 1 7 10 14 9 19 14 23 3 27 43 13 22 7 8 0 0 2 0 0 2 17 16 7 2 0 0 0 0 0 0 0 0 0 0
7 0 0 0 0 0 3 2 6 2 6 2 19 23 5 11 11 4 2 1 0 0 9 19 11 1 0 0 3 5 7 9 0 0 0 0 0 0 0 0 0 0 0 0 0
0 0 0 0 0 18 7 6 5 2 1 10 4 12 14 5 11 8 3 1 0 0 1 6 12 0 0 0 0 2 12 0 0 0 0 0 0 0 0 0 0 0 0 0 0
0 0 0 0 0 2 1 13 17 0 1 0 0 0 4 1 0 2 5 0 0 0 0 0 3 0 0 0 0 0 0 0 0 0 0 0 0 0 0 0 0 0 0 0 0
0 0 0 0 0 0 3 5 3 0 0 0 0 0 2 2 0 0 0 0 0 0 0 0 0 1 0 0 0 0 0 0 0 0 0 0 0 0 0 0 0 0 0 0 0
0 0 0 0 0 1 3 0 0 0 0 0 0 0 0 0 0 0 0 0 0 0 0 0 1 5 3 0 0 0 0 0 0 0 0 0 0 0 0 0 0 0 0 0 0
0 0 0 0 0 0 0 0 0 0 0 0 0 0 0 0 0 0 0 0 0 0 0 0 0 4 6 1 0 0 0 0 0 0 0 0 0 0 0 0 0 0 0 0 0
0 0 0 0 0 0 0 0 0 0 0 0 0 0 0 0 0 0 0 0 0 0 0 0 0 0 0 0 0 0 0 0 0 0 0 0 0 0 0 0 0 0 0 0 0
1 1 1 1 0 0 0 0 0 0 0 0 0 0 0 0 0 0 0 0 0 0 0 0 0 0 0 0 0 0 0 0 0 0 0 0 0 0 0 0 0 0 0 0 0
3 2 0 1 0 0 0 0 0 0 0 0 0 0 0 0 0 0 0 0 0 0 0 0 0 0 0 0 0 0 0 0 0 0 0 0 0 0 0 0 0 0 0 0 0
4 2 11 0 0 0 0 0 0 0 0 0 0 0 0 0 0 0 0 0 0 0 0 0 0 0 0 0 0 0 0 0 0 0 0 0 0 0 0 0 0 0 0 0 0

GFSSW_con_sbcape_051.txt.gz
CAPE
45 57 62 70 65 72 69 70 70 88 95 97 92 105 13 1 3 0 7 17 36 53 18 0 0 74 118 0 0 0 53 55 41 20 9 16 0 0 0 0 0 0 0 0 0
40 60 65 79 79 82 76 67 89 81 107 104 117 102 67 0 0 0 4 97 167 10 89 0 3 129 32 0 0 0 7 4 1 12 2 10 0 0 0 0 0 0 0 83 105
56 62 71 71 85 125 108 138 118 123 152 161 158 156 100 2 2 0 0 184 389 104 59 24 12 237 18 1 0 0 0 0 8 0 0 0 0 0 0 0 0 0 0 0 195
54 51 60 61 97 139 160 158 150 151 209 233 194 124 109 51 2 11 131 268 541 180 48 23 46 142 32 0 0 0 0 0 0 0 0 0 0 0 0 0 0 0 0 0 14
32 92 176 164 173 166 150 154 156 219 237 287 251 163 74 59 0 88 232 544 433 240 45 30 22 74 26 3 0 0 0 0 0 0 0 0 0 0 0 0 0 0 0 0 0
87 117 197 225 205 150 90 113 115 199 238 247 251 127 72 50 7 1 31 113 338 245 17 54 11 61 25 23 0 0 1 0 0 0 0 0 0 0 0 0 0 0 0 0 0
101 121 173 175 74 90 35 35 113 177 170 158 191 139 90 50 78 134 99 33 137 267 13 28 25 118 73 31 16 2 7 1 0 0 0 0 0 0 0 0 0 0 0 0 0
90 103 139 157 148 71 22 66 133 167 112 159 162 130 58 10 1 29 112 61 108 369 36 112 132 130 55 34 24 9 8 5 0 0 0 0 0 0 0 0 0 0 0 0 0
80 79 97 117 152 120 15 105 228 219 220 80 70 129 53 116 50 2 126 8 322 329 92 278 302 141 60 48 40 36 0 0 0 0 0 0 0 0 0 0 0 0 0 0 0
68 57 91 98 85 103 15 94 88 114 213 57 25 92 14 82 115 143 174 7 285 215 323 209 120 102 85 50 7 0 0 0 0 0 0 0 0 0 0 0 0 0 0 0 0
65 57 38 71 64 11 131 142 196 152 117 33 35 27 19 51 95 46 24 60 236 96 42 130 53 43 4 0 0 0 0 0 0 0 0 0 0 0 0 0 0 0 0 0 0
61 52 39 69 96 42 101 38 9 42 36 20 4 0 4 1 54 45 62 164 27 35 66 83 35 39 27 25 9 0 0 0 0 0 0 0 0 0 0 0 0 0 0 0 0
26 27 13 11 7 38 38 28 10 0 51 37 18 17 5 2 26 54 17 35 21 32 30 18 2 24 46 11 24 3 0 0 0 0 0 0 0 0 0 0 0 0 0 0 0
16 27 0 0 12 34 10 8 3 1 97 22 35 6 19 10 48 27 8 15 0 55 54 22 33 22 38 25 20 16 0 3 0 0 0 0 0 0 0 0 0 0 0 0 0
11 13 0 0 0 0 0 2 0 9 44 3 6 10 26 19 22 7 11 3 1 2 2 4 11 18 29 37 26 34 3 0 0 0 0 0 0 0 0 0 0 0 0 0 0
13 5 1 8 1 0 0 0 1 14 50 6 10 27 9 15 29 32 36 20 9 0 1 9 1 0 22 1 22 0 0 0 0 0 5 0 0 0 0 0 0 0 0 0 0
7 3 0 0 4 2 6 8 6 30 2 4 28 26 9 14 35 15 7 3 5 7 11 6 5 3 0 0 0 0 33 35 31 26 4 0 0 0 0 0 0 0 0 0 0
4 0 0 1 0 10 16 7 9 13 17 1 14 11 20 9 11 2 22 31 34 32 22 8 5 3 1 0 0 7 37 73 12 8 3 0 0 0 0 0 0 0 0 0 0
0 0 3 3 5 17 5 7 25 11 2 8 8 2 14 5 3 3 0 14 3 15 19 14 13 7 0 2 1 3 5 0 0 0 0 0 0 0 0 0 0 0 0 0 0
0 0 0 0 3 3 3 14 15 0 5 6 5 0 4 6 15 9 6 0 0 0 0 0 4 0 0 0 0 5 0 3 1 0 0 0 0 0 0 0 0 0 0 0 0
0 1 0 0 3 5 1 15 8 3 0 1 3 5 2 4 5 3 0 0 0 0 0 0 0 2 0 1 1 0 0 0 0 0 0 0 0 0 0 0 0 0 0 0 0
1 9 0 0 14 17 10 8 0 0 0 0 0 3 13 7 5 4 4 2 0 0 0 0 3 5 4 0 0 0 0 0 1 0 0 0 0 0 0 0 0 0 0 0 0
0 0 0 0 24 8 0 0 0 0 0 0 0 0 0 0 0 0 0 0 0 0 0 0 0 2 2 0 0 0 0 0 0 0 0 0 0 0 0 0 0 0 0 0 0
0 2 0 0 0 2 0 0 0 0 0 0 0 0 0 0 0 0 0 0 0 0 0 0 0 0 1 0 0 0 0 0 0 0 0 0 0 0 0 0 0 0 0 0 0
0 3 0 11 4 0 0 0 0 0 0 0 0 0 0 0 0 0 0 0 0 0 0 0 0 0 0 0 0 0 0 0 0 0 0 0 0 0 0 0 0 0 0 0 0
6 1 2 2 0 0 0 0 0 0 0 0 0 0 0 0 0 0 0 0 0 0 0 0 0 0 0 0 0 0 0 0 0 0 0 0 0 0 0 0 0 0 0 0 0
5 17 21 1 0 0 5 3 0 0 0 0 0 0 0 0 0 0 0 0 1 0 0 0 0 0 1 0 0 0 0 0 0 0 0 0 0 0 0 0 0 0 0 0 0

GFSSW_con_sbcape_054.txt.gz
CAPE
43 39 60 56 62 70 85 99 80 72 72 73 66 83 85 57 0 2 0 1 65 117 0 0 0 1 208 110 34 17 25 14 6 9 23 0 0 0 0 0 0 0 21 43 825
57 63 62 64 63 89 96 142 119 84 57 92 108 108 83 86 0 0 0 12 125 247 23 0 0 77 287 111 21 15 13 7 12 11 22 0 0 0 0 0 0 0 0 35 501
24 28 32 86 135 122 132 150 141 99 60 62 141 183 143 73 13 0 0 14 176 302 28 0 0 242 285 65 8 1 0 1 14 1 0 1 0 0 0 0 0 0 0 96 175
35 65 101 150 210 188 178 158 149 107 100 140 196 228 143 84 18 14 0 5 401 217 52 52 0 84 105 18 5 0 0 0 14 0 0 0 0 0 0 0 0 0 0 0 87
59 94 129 165 240 207 192 86 111 60 152 199 240 212 79 51 1 0 189 71 322 318 31 45 0 21 11 0 0 0 0 0 0 0 0 0 0 0 0 0 0 0 0 0 0
53 84 109 140 205 182 123 15 62 75 151 147 173 129 115 78 3 2 92 144 264 229 89 27 0 0 16 13 0 0 0 0 1 0 0 0 0 0 0 0 0 0 0 0 0
67 94 87 119 194 140 25 29 44 80 109 166 138 97 75 8 31 246 84 37 186 257 129 7 0 81 97 75 6 2 6 1 0 0 0 0 0 0 0 0 0 0 0 0 0
54 79 82 131 141 140 24 55 87 165 177 156 169 85 14 16 0 27 107 10 31 249 183 34 14 43 80 82 30 14 9 2 0 0 0 0 0 0 0 0 0 0 0 0 0
57 67 42 83 89 122 16 67 193 236 243 116 74 111 23 202 0 0 2 70 90 220 246 96 206 87 57 25 32 17 4 0 0 0 0 0 0 0 0 0 0 0 0 0 0
40 57 51 62 77 84 11 114 95 96 196 80 47 19 3 54 9 0 47 85 149 179 177 126 98 66 32 44 21 0 0 0 0 0 0 0 0 0 0 0 0 0 0 0 0
30 49 41 53 55 69 134 164 149 110 74 3 18 9 11 1 63 27 73 59 317 158 86 62 10 2 0 0 0 0 0 0 0 0 0 0 0 0 0 0 0 0 0 0 0
30 18 50 17 24 78 118 10 0 0 26 6 15 0 2 8 47 46 106 104 180 47 26 35 11 0 24 22 11 0 0 0 0 0 0 0 0 0 0 0 0 0 0 0 0
22 5 34 5 0 34 6 6 5 3 40 9 8 28 5 0 6 12 73 59 18 7 15 3 7 1 14 16 9 1 0 0 0 0 0 0 0 0 0 0 0 0 0 0 0
18 8 3 3 0 0 0 0 5 0 24 4 9 13 48 9 5 30 39 15 14 5 42 31 1 0 19 26 13 3 0 0 3 0 0 0 0 0 0 0 0 0 0 0 0
14 4 2 11 10 0 0 0 0 0 2 2 0 11 12 36 16 15 2 23 33 12 11 1 2 6 21 19 17 32 18 0 3 0 0 0 0 0 0 0 0 0 0 0 0
8 5 1 6 12 0 0 2 1 4 2 1 5 15 4 24 6 3 6 9 15 0 0 3 0 3 9 1 11 27 0 0 0 0 1 0 0 0 0 0 0 0 0 0 0
8 4 1 0 13 1 9 4 1 5 0 4 16 0 5 6 2 3 16 34 14 2 4 3 2 0 0 0 3 6 3 22 29 6 0 0 0 0 0 0 0 0 0 0 0
1 0 0 0 5 4 9 5 0 6 3 0 7 14 5 2 8 9 9 28 1 0 10 5 0 1 0 0 0 0 0 28 1 1 0 0 0 0 0 0 0 0 0 0 0
0 0 0 2 1 2 10 1 1 7 0 7 2 4 1 2 0 1 22 1 5 2 2 17 11 8 3 0 0 0 0 0 0 0 0 0 0 0 0 0 0 0 0 0 0
0 0 0 0 1 0 2 1 3 0 5 1 4 1 0 0 0 0 9 0 0 0 0 0 4 7 3 0 0 0 0 0 0 0 0 0 0 0 0 0 0 0 0 0 0
0 0 0 0 1 3 0 0 0 0 0 0 1 3 0 1 3 4 5 0 0 0 0 0 0 14 4 4 2 1 5 0 0 0 0 0 0 0 0 0 0 0 0 0 0
0 7 0 0 2 69 7 0 0 0 0 0 0 1 2 0 0 0 5 0 0 0 0 0 0 1 0 0 0 0 0 0 1 0 0 0 0 0 0 0 0 0 0 0 0
0 0 0 0 32 14 0 0 0 0 0 0 0 0 0 0 0 0 0 0 0 0 0 0 0 0 0 0 0 0 0 0 0 0 0 0 0 0 0 0 0 0 0 0 0
0 0 0 1 0 0 4 0 0 0 0 0 0 0 0 0 0 0 0 0 0 0 0 0 0 0 0 0 0 0 0 0 0 0 0 0 0 0 0 0 0 0 0 0 0
0 0 1 0 2 0 0 1 1 0 0 0 0 0 0 0 0 0 0 0 0 0 0 0 0 0 0 0 0 0 0 0 0 0 0 0 0 0 0 0 0 0 0 0 0
0 1 1 1 0 0 0 11 2 2 0 0 0 0 0 0 0 0 0 0 0 0 0 0 0 0 0 0 0 0 0 0 0 0 0 0 0 0 0 0 0 0 0 0 0
0 3 17 0 1 0 0 0 12 1 0 0 0 0 0 1 0 0 0 0 0 0 0 0 0 0 0 0 0 0 0 0 0 0 0 0 0 0 0 0 0 0 0 0 0

GFSSW_con_sbcape_057.txt.gz
CAPE
50 36 44 38 55 65 70 90 111 129 100 86 82 83 72 91 81 0 2 0 15 222 4 0 0 0 2 140 32 1 37 4 17 2 0 3 1 0 0 0 0 0 12 667 607
35 25 48 70 100 140 157 150 142 152 150 52 55 103 106 120 40 0 0 0 49 232 0 0 0 0 215 138 32 51 12 0 0 0 0 0 0 0 0 0 0 0 527 669 584
21 47 81 90 103 169 229 193 206 176 153 41 29 73 131 102 42 1 16 0 10 271 36 0 0 88 233 89 1 0 7 0 0 0 0 6 0 0 0 0 0 4 196 380 505
45 74 99 73 101 156 217 179 159 153 107 33 84 142 164 81 77 0 126 25 19 130 107 5 0 154 121 78 19 0 0 0 15 10 0 0 0 0 0 0 0 0 18 65 136
60 72 87 96 115 168 188 112 87 123 27 93 165 172 85 24 0 0 0 46 12 194 56 17 0 82 17 32 17 1 0 0 0 0 0 0 0 0 0 0 0 0 0 0 34
67 58 53 72 106 164 88 35 45 101 126 119 98 117 51 2 3 0 0 12 92 184 82 9 0 0 73 52 1 0 0 1 2 1 0 0 0 0 0 0 0 0 0 0 0
48 59 23 64 97 130 59 22 91 145 60 98 128 86 39 2 23 0 118 27 67 88 92 0 0 24 24 12 0 0 29 2 0 0 0 0 0 0 0 0 0 0 0 0 0
37 46 22 55 49 94 30 71 130 211 232 248 151 79 12 16 0 0 50 17 7 31 89 59 0 1 43 1 3 14 11 5 0 0 0 0 0 0 0 0 0 0 0 0 0
37 34 16 40 26 54 5 66 183 211 216 203 70 48 35 179 1 0 0 0 18 38 189 155 36 28 19 22 5 38 0 0 0 0 0 0 0 0 0 0 0 0 0 0 0
38 16 19 10 0 2 42 137 68 93 111 98 106 17 7 29 22 1 16 2 49 144 133 126 50 34 20 0 1 0 0 0 0 0 0 0 0 0 0 0 0 0 0 0 0
26 13 11 6 9 30 7 0 0 0 2 0 17 14 7 25 92 39 3 28 64 153 34 44 5 0 0 0 0 0 0 0 0 0 0 0 0 0 0 0 0 0 0 0 0
18 9 12 0 7 6 0 0 2 0 1 9 24 1 3 20 22 3 3 33 50 17 14 18 4 0 0 1 2 0 0 0 0 0 0 0 0 0 0 0 0 0 0 0 0
5 7 6 5 0 0 0 0 1 0 0 3 0 2 0 0 0 22 40 22 8 13 5 7 1 0 0 1 0 0 0 0 0 0 0 0 0 0 0 0 0 0 0 0 0
8 8 3 1 0 0 0 0 0 0 0 10 5 10 4 0 2 34 37 11 32 33 24 30 0 0 0 0 0 0 0 0 0 0 0 0 0 0 0 0 0 0 0 0 0
12 4 1 4 0 0 0 0 0 0 0 0 1 15 1 0 4 0 22 39 24 0 0 10 2 17 7 0 2 0 2 0 0 0 0 0 0 0 0 0 0 0 0 0 0
10 2 0 0 0 0 0 0 0 0 0 0 4 0 3 1 37 4 5 3 0 0 0 1 0 0 7 12 13 1 0 2 0 0 0 0 0 0 0 0 0 0 0 0 0
4 3 0 0 0 0 0 0 0 0 0 3 6 11 6 6 7 14 25 1 2 5 0 1 1 0 0 0 0 0 0 12 6 6 0 0 0 0 0 0 0 0 0 0 0
0 0 0 0 0 0 0 0 0 0 0 0 5 3 2 6 8 1 21 0 0 0 0 0 1 0 0 4 1 0 0 0 0 0 0 0 0 0 0 0 0 0 0 0 0
0 0 0 0 0 0 1 0 0 0 0 0 0 5 0 0 1 17 4 16 1 0 0 1 1 2 1 1 0 0 0 0 0 0 0 0 0 0 0 0 0 0 0 0 0
0 0 0 0 0 0 0 0 0 0 0 0 0 0 0 1 0 2 4 0 6 0 0 0 5 9 3 0 0 0 0 0 0 0 0 0 0 0 0 0 0 0 0 0 0
0 0 0 0 0 0 0 0 0 0 0 0 0 2 0 1 0 2 1 0 0 0 0 0 0 17 3 8 2 0 0 0 0 0 0 0 0 0 0 0 0 0 0 0 0
0 0 0 0 0 0 0 0 0 0 0 0 0 1 0 0 0 0 0 0 0 0 0 0 0 1 0 0 0 0 0 0 0 0 0 0 0 0 0 0 0 0 0 0 0
0 0 0 0 1 0 0 0 0 0 0 0 0 0 0 0 0 0 0 0 0 0 0 0 0 0 0 0 0 1 0 0 0 0 0 0 0 0 0 0 0 0 0 0 0
0 0 0 0 0 0 0 0 0 0 0 0 0 0 0 0 0 0 0 0 0 0 0 0 0 0 0 0 0 0 0 0 0 0 0 0 0 0 0 0 0 0 0 0 0
0 0 0 0 0 0 0 1 0 1 0 0 0 0 0 0 0 0 0 0 0 0 0 0 0 0 0 0 0 0 0 0 0 0 0 0 0 0 0 0 0 0 0 0 0
0 0 0 0 0 0 0 0 0 3 0 0 0 0 0 0 0 0 0 0 0 0 0 0 0 0 0 0 0 0 0 0 0 0 0 0 0 0 0 0 0 0 0 0 0
0 0 2 0 0 0 0 0 0 0 1 0 0 0 0 0 0 0 0 0 0 0 0 0 0 0 0 0 0 0 0 0 0 0 0 0 0 0 0 0 0 0 0 0 0

GFSSW_con_sbcape_060.txt.gz
CAPE
51 45 47 66 77 73 106 130 125 134 156 159 136 92 96 88 99 61 8 0 0 77 105 0 0 0 0 106 97 15 11 0 0 0 0 0 0 0 0 0 0 1 72 330 358
56 57 63 74 79 70 106 204 233 193 189 189 140 68 113 129 54 33 0 14 15 126 0 0 0 0 49 175 56 47 17 0 0 0 0 0 0 0 0 0 65 754 667 593 301
54 62 71 69 77 96 136 193 187 183 178 182 107 40 113 111 23 1 41 80 41 19 64 0 0 4 247 75 19 31 0 0 0 0 0 0 0 0 0 0 10 608 829 561 197
52 38 65 44 78 112 187 194 158 97 108 88 44 85 113 43 1 0 95 147 164 19 171 0 0 126 174 96 21 0 0 0 3 3 1 0 0 0 0 0 0 166 529 334 280
54 54 31 67 82 154 143 122 63 96 25 39 91 115 14 1 0 0 20 5 47 19 144 0 0 40 40 31 74 1 0 0 8 11 9 1 0 0 0 0 0 9 75 184 215
64 45 25 35 57 119 51 64 115 174 124 89 61 88 9 5 0 0 0 0 29 11 102 37 0 8 55 35 71 2 0 7 0 4 43 30 0 1 0 0 0 0 0 0 19
62 38 18 31 33 36 10 73 132 166 76 56 140 55 14 0 0 0 0 58 1 33 75 36 0 63 1 40 0 0 39 4 0 0 0 7 1 0 0 0 0 0 0 0 0
54 27 25 4 19 1 0 30 104 176 211 244 157 64 5 0 0 0 0 27 26 117 76 93 7 7 9 0 0 0 30 6 0 0 0 0 0 0 0 0 0 0 0 0 0
34 29 19 1 3 0 4 36 85 91 137 200 36 13 1 83 36 3 0 17 49 78 8 150 17 13 17 0 0 4 0 0 0 0 0 0 0 0 0 0 0 0 0 0 0
22 22 7 18 0 2 69 64 79 18 46 100 85 13 28 49 7 51 55 21 3 40 16 219 48 18 0 1 3 0 0 0 0 0 0 0 0 0 0 0 0 0 0 0 0
10 15 9 11 0 0 0 0 0 0 0 0 3 0 0 18 39 78 8 6 2 79 31 44 17 0 0 0 0 0 0 0 0 0 0 0 0 0 0 0 0 0 0 0 0
13 10 8 6 0 0 0 0 0 0 0 0 1 32 40 0 37 2 4 0 45 38 19 41 24 0 0 0 0 0 0 0 0 0 0 0 0 0 0 0 0 0 0 0 0
11 4 9 5 1 0 0 0 0 0 0 3 4 3 0 0 6 5 0 1 14 14 5 1 1 0 14 0 0 0 0 0 0 0 0 0 0 0 0 0 0 0 0 0 0
12 8 2 8 0 0 0 0 0 0 0 11 2 15 7 0 19 11 33 41 1 20 5 14 0 0 4 1 0 0 0 0 0 0 0 0 0 0 0 0 0 0 0 0 0
10 5 4 8 0 0 0 0 0 0 0 1 0 0 0 0 0 39 14 49 12 7 0 17 1 0 0 2 0 0 0 0 0 0 0 0 0 0 0 0 0 0 0 0 0
5 3 0 0 0 0 0 0 0 0 0 0 0 0 1 0 1 0 2 28 1 0 0 0 0 0 3 6 14 0 0 0 0 0 2 0 0 0 0 0 0 0 0 0 0
1 1 0 0 0 0 0 0 0 0 0 1 18 1 2 6 3 0 8 3 3 0 0 0 0 0 0 19 4 0 0 1 14 2 0 0 0 0 0 0 0 0 0 0 0
0 0 0 0 0 0 0 0 0 0 0 0 8 6 8 6 1 7 1 0 0 0 0 1 0 0 0 0 0 4 0 0 0 0 0 0 0 0 0 0 0 0 0 0 0
0 0 0 0 0 0 0 0 0 0 0 0 0 1 8 12 0 10 0 0 0 0 0 0 1 0 0 0 0 0 0 0 0 0 0 0 0 0 0 0 0 0 0 0 0
0 0 0 0 0 0 0 0 0 0 0 0 0 0 0 2 5 1 0 0 0 0 0 0 3 2 3 2 0 0 0 0 1 0 0 0 0 0 0 0 0 0 0 0 0
0 0 0 0 0 0 0 0 0 0 0 0 0 0 0 0 0 2 0 3 0 0 0 0 0 7 9 9 4 1 1 0 0 0 0 0 0 0 0 0 0 0 0 0 0
0 0 0 0 0 0 0 0 0 0 0 0 0 0 0 0 0 0 0 0 0 0 0 0 0 6 1 1 0 0 0 0 0 0 0 0 0 0 0 0 0 0 0 0 0
0 0 0 0 0 0 0 0 0 0 0 0 0 0 0 0 0 0 0 0 0 0 0 0 0 0 1 0 0 4 0 0 0 0 0 0 0 0 0 0 0 0 0 0 0
0 0 0 0 0 0 0 0 0 0 0 0 0 0 0 0 0 0 0 0 0 0 0 0 0 0 0 0 0 0 0 0 0 0 0 0 0 0 0 0 0 0 0 0 0
0 0 0 0 0 0 0 0 0 0 0 0 0 0 0 0 0 0 0 0 0 0 0 0 0 0 0 0 0 0 0 0 0 0 0 0 0 0 0 0 0 0 0 0 0
0 0 0 0 0 0 0 0 2 1 0 0 0 0 0 0 0 0 0 0 0 0 0 0 0 0 0 0 0 0 0 0 0 0 0 0 0 0 0 0 0 0 0 0 0
0 0 0 0 0 0 0 0 0 0 6 0 0 0 0 0 0 0 0 0 0 0 0 0 0 0 0 0 0 0 0 0 0 0 0 0 0 0 0 0 0 0 0 0 0

GFSSW_con_sbcape_063.txt.gz
CAPE
62 48 55 63 58 65 81 106 123 170 188 199 190 150 76 61 74 18 14 0 0 53 176 29 0 0 6 175 119 41 11 0 0 0 0 0 0 0 0 0 0 48 216 331 229
44 52 37 44 27 43 71 159 216 236 227 182 223 155 59 63 21 0 0 56 83 43 42 1 0 0 110 158 156 62 6 0 0 0 0 0 0 0 0 0 38 660 533 373 356
52 53 55 25 52 72 105 182 209 140 108 76 180 75 22 43 11 0 27 108 126 48 36 0 0 0 68 129 61 34 0 0 0 0 0 0 0 0 0 0 0 138 725 383 307
68 49 30 32 44 52 50 64 40 39 17 71 53 45 95 14 0 49 16 190 211 71 0 3 0 8 10 82 15 85 1 0 5 12 0 0 0 0 0 0 0 0 344 193 347
64 46 21 26 32 4 1 31 121 121 20 34 35 106 10 4 0 0 7 1 4 0 6 9 0 2 24 29 38 11 3 21 35 0 2 0 0 0 0 0 0 0 256 141 100
49 34 21 10 19 6 0 49 143 144 141 102 68 135 0 0 0 1 0 0 7 70 11 22 0 0 57 86 149 12 1 38 6 1 28 0 0 0 0 0 0 9 169 164 127
27 38 24 14 9 3 0 11 48 113 54 68 149 15 0 0 0 0 0 0 13 80 0 56 0 56 1 14 1 29 1 0 0 0 1 1 1 0 0 0 0 0 0 0 19
33 38 27 19 4 2 7 23 59 155 164 199 149 4 0 0 0 0 0 0 54 37 2 19 17 37 2 0 0 11 9 2 0 0 0 24 3 0 0 0 0 0 0 0 0
13 29 31 10 9 5 43 138 72 59 94 132 4 0 0 36 61 12 4 0 18 67 18 80 23 34 5 0 0 6 0 0 0 0 2 0 0 0 0 0 0 0 0 0 0
11 14 20 8 22 19 8 51 54 3 2 43 34 0 0 9 42 49 53 32 0 78 46 104 60 11 0 0 1 0 0 0 0 0 0 0 0 0 0 0 0 0 0 0 0
18 5 8 4 10 21 0 0 0 0 0 0 0 0 0 9 50 81 17 6 0 44 20 63 12 4 0 0 0 0 0 0 0 0 0 0 0 0 0 0 0 0 0 0 0
13 6 4 8 2 10 0 0 0 0 0 3 3 2 1 0 62 9 0 0 0 9 0 27 6 0 1 1 0 0 0 0 0 0 0 0 0 0 0 0 0 0 0 0 0
14 8 4 4 2 0 0 0 0 0 0 1 5 0 0 0 42 2 0 0 10 9 6 2 5 4 13 5 0 0 0 0 0 0 0 0 0 0 0 0 0 0 0 0 0
12 4 3 1 0 0 0 0 0 0 0 9 4 4 11 0 25 0 0 13 12 5 21 16 10 19 14 6 0 0 0 0 0 0 0 0 0 0 0 0 0 0 0 0 0
9 2 0 1 0 0 0 0 0 0 0 0 0 0 0 0 0 8 15 45 10 19 1 6 0 3 0 0 0 0 0 0 0 0 0 0 0 0 0 0 0 0 0 0 0
9 6 1 0 0 0 0 0 0 0 0 0 0 0 0 1 3 1 9 31 30 4 0 0 0 0 0 0 0 0 0 0 0 0 0 0 0 0 0 0 0 0 0 0 0
3 0 0 0 0 0 0 0 0 0 0 1 25 3 3 4 10 5 8 12 3 0 3 0 0 0 0 11 1 0 0 0 5 0 0 0 0 0 0 0 0 0 0 0 0
0 0 0 0 0 0 0 0 0 0 0 0 3 0 6 2 7 8 2 2 0 0 0 1 7 0 0 0 0 0 0 0 1 0 0 0 0 0 0 0 0 0 0 0 0
0 0 0 0 0 0 0 0 0 0 0 0 1 1 2 2 0 0 0 0 0 0 0 0 0 0 0 0 0 2 8 0 0 0 0 0 0 0 0 0 0 0 0 0 0
0 0 0 0 0 0 0 0 0 0 0 0 0 0 0 3 1 0 0 0 0 0 0 0 2 0 0 0 0 0 0 0 0 0 0 0 0 0 0 0 0 0 0 0 0
0 0 0 0 0 0 0 0 0 0 0 0 0 0 0 0 0 0 0 0 0 0 0 0 0 2 12 10 3 5 1 0 0 0 0 0 0 0 0 0 0 0 0 0 0
0 0 0 0 0 0 0 0 0 0 0 0 0 0 0 0 0 0 0 0 0 0 0 0 0 1 2 0 0 2 10 0 0 0 0 0 0 0 0 0 0 0 0 0 0
0 0 0 0 0 0 0 0 0 0 0 0 0 0 0 0 0 0 0 0 0 0 0 0 0 0 2 0 0 8 0 0 0 0 0 0 0 0 0 0 0 0 0 0 0
0 0 0 0 0 0 0 0 0 0 0 0 0 0 0 0 0 0 0 0 0 0 0 0 0 0 0 0 0 0 3 0 0 0 0 0 0 0 0 0 0 0 0 0 0
0 0 0 0 0 0 0 0 0 0 0 0 0 0 0 0 0 0 0 0 0 0 0 0 0 0 0 0 0 0 0 0 0 0 0 0 0 0 0 0 0 0 0 0 0
0 0 0 0 0 0 0 0 0 0 0 0 0 0 0 0 0 0 0 0 0 0 0 0 0 0 0 0 0 0 0 0 0 0 0 0 0 0 0 0 0 0 0 0 0
0 0 0 0 0 0 0 0 0 0 1 0 0 0 0 0 0 0 0 0 0 0 0 0 0 0 0 0 0 0 0 0 0 0 0 0 0 0 0 0 0 0 0 0 0

GFSSW_con_sbcape_066.txt.gz
CAPE
46 39 53 39 18 35 53 55 87 174 240 298 217 213 119 50 21 1 4 3 5 26 119 51 13 0 22 99 148 44 14 2 0 0 0 0 0 0 0 0 0 304 162 213 221
62 75 40 16 36 36 32 42 117 218 183 201 187 198 109 32 0 0 0 15 110 118 44 6 13 0 79 127 105 101 47 0 0 0 11 4 0 0 0 0 0 0 146 347 667
53 57 28 27 35 24 7 3 14 78 10 32 37 74 46 11 0 0 1 62 147 180 27 0 0 4 26 101 69 68 2 0 0 21 45 14 0 0 0 0 0 0 0 28 489
35 39 21 37 23 8 4 5 50 57 69 63 60 65 71 0 0 0 180 57 173 125 41 66 2 11 10 44 37 81 3 5 68 34 0 0 0 0 0 0 0 0 0 0 200
39 46 22 28 17 4 5 9 50 74 82 59 33 128 1 0 0 0 11 44 36 113 57 30 12 4 9 15 18 11 2 28 43 6 0 0 0 0 0 0 0 0 0 74 85
34 52 24 28 8 6 1 6 17 26 10 64 40 101 0 0 0 0 0 0 0 6 9 30 23 0 10 33 64 2 10 20 41 20 4 0 0 0 0 0 0 0 0 25 19
17 33 49 22 14 10 6 7 19 55 4 18 102 0 0 0 0 0 0 0 0 0 50 8 8 17 15 60 12 8 105 100 63 16 25 0 0 0 0 0 0 0 0 0 0
18 26 30 23 21 5 3 69 95 26 64 121 108 0 0 0 0 0 0 0 1 13 49 13 48 12 7 1 13 50 18 54 0 11 1 0 0 0 0 0 0 0 0 0 0
13 9 18 31 16 21 1 22 101 26 18 74 0 0 0 3 76 0 0 13 18 79 108 53 49 11 0 14 14 45 4 0 0 5 0 0 0 0 0 0 0 0 0 0 0
13 15 8 21 12 24 3 0 8 0 0 5 23 0 0 0 51 42 132 38 33 84 20 13 30 16 0 2 0 0 0 0 0 0 0 0 0 0 0 0 0 0 0 0 0
6 17 6 6 6 17 0 0 0 0 0 0 0 1 1 11 34 50 37 9 1 39 2 0 24 6 0 0 0 0 0 0 0 0 0 1 0 0 0 0 0 0 0 0 0
13 13 6 5 3 9 0 0 0 0 0 0 5 0 1 0 28 10 12 1 25 15 5 6 8 0 2 0 0 0 0 0 0 0 0 0 0 0 0 0 0 0 0 0 0
14 7 10 4 4 0 0 0 0 0 0 3 7 0 2 1 37 1 0 0 5 8 7 4 0 4 33 0 1 0 0 0 0 0 0 0 0 0 0 0 0 0 0 0 0
12 6 11 0 0 0 0 0 0 0 0 3 2 4 17 0 12 1 2 0 4 18 9 4 9 9 43 11 0 0 0 0 0 0 0 0 0 0 0 0 0 0 0 0 0
10 6 7 6 0 0 0 0 0 0 0 0 0 0 1 1 7 7 2 0 0 25 3 4 5 5 24 9 1 0 0 0 0 0 0 0 0 0 0 0 0 0 0 0 0
6 7 1 0 0 0 0 0 0 0 0 0 4 0 1 4 2 0 5 14 10 21 1 1 0 0 7 0 0 0 0 0 0 0 0 0 0 0 0 0 0 0 0 0 0
2 0 0 0 0 0 0 0 0 0 0 0 6 0 6 9 10 1 8 4 3 1 0 3 0 0 0 9 2 0 0 0 0 0 0 0 0 0 0 0 0 0 0 0 0
0 0 0 0 0 0 0 0 0 0 0 0 16 1 6 6 10 4 26 10 0 0 0 0 35 0 0 0 2 0 0 0 0 0 0 0 0 0 0 0 0 0 0 0 0
0 0 0 0 0 0 0 0 0 0 0 0 3 3 6 0 0 0 0 0 0 0 0 0 2 0 0 0 0 0 0 0 0 0 0 0 0 0 0 0 0 0 0 0 0
0 0 0 0 0 0 0 0 0 0 0 0 0 0 0 0 0 0 0 0 0 0 0 0 1 0 0 0 0 0 0 0 0 0 0 0 0 0 0 0 0 0 0 0 0
0 0 0 0 0 0 0 0 0 0 0 0 0 0 0 0 0 0 0 0 0 0 0 0 0 4 0 0 0 1 0 0 0 0 0 0 0 0 0 0 0 0 0 0 0
0 0 0 0 0 0 0 0 0 0 0 0 0 0 0 0 0 0 0 0 0 0 0 0 0 1 2 0 0 0 0 0 0 0 0 0 0 0 0 0 0 0 0 0 0
0 0 0 0 0 0 0 0 0 0 0 0 0 0 0 0 0 0 0 0 0 0 0 0 0 1 2 0 0 6 3 2 0 0 0 0 0 0 0 0 0 0 0 0 0
0 0 0 0 0 0 0 0 0 0 0 0 0 0 0 0 0 0 0 0 0 0 0 0 0 0 0 0 0 4 0 0 0 6 3 0 0 0 0 0 0 0 0 0 0
0 0 0 0 0 0 0 0 0 0 0 0 0 0 0 0 0 0 0 0 0 0 0 0 0 0 0 0 0 0 0 0 0 0 1 0 0 0 0 0 0 0 0 0 0
0 0 0 0 0 0 0 0 0 0 0 0 0 0 0 0 0 0 0 0 0 0 0 0 0 0 0 0 0 0 0 0 0 0 0 0 0 0 0 0 0 0 0 0 0
0 0 0 0 0 0 0 0 0 0 0 0 0 0 0 0 0 0 0 0 0 0 0 0 0 0 0 0 0 0 0 0 0 0 0 0 0 0 0 0 0 0 0 0 0

GFSSW_con_sbcape_069.txt.gz
CAPE
31 58 34 3 20 32 20 10 9 8 68 166 219 225 216 166 54 0 0 0 6 63 78 9 42 4 101 118 122 17 50 25 0 0 0 3 0 0 0 0 0 0 154 191 445
34 51 19 8 26 15 4 6 6 0 7 69 173 208 114 82 2 0 0 10 51 132 20 18 12 13 149 145 203 182 77 1 0 0 7 13 0 0 0 0 0 0 0 105 508
29 47 26 10 16 7 8 9 15 6 39 86 53 67 52 18 0 0 93 21 34 77 70 23 1 22 48 15 136 94 36 0 0 59 67 27 10 0 0 0 0 0 0 0 434
22 42 17 4 21 7 8 13 17 17 50 97 94 33 8 17 0 0 46 78 79 60 78 84 34 51 25 84 33 75 41 13 100 73 5 3 6 0 0 0 0 0 0 0 232
16 22 35 15 7 8 6 9 12 10 4 25 17 97 10 0 0 0 1 4 68 94 85 145 77 3 2 17 32 15 59 30 101 7 0 5 0 0 0 0 0 0 0 6 48
15 17 27 28 18 7 10 9 12 17 0 6 78 29 0 0 0 0 0 0 82 13 49 39 62 3 9 33 39 3 14 60 100 60 22 13 0 0 0 0 0 0 0 0 20
15 10 22 41 17 29 8 11 90 59 53 48 83 0 0 0 0 0 0 0 0 0 0 15 8 51 2 47 25 11 50 60 94 81 49 0 0 0 0 0 0 0 0 0 0
15 12 13 23 29 20 18 6 63 61 1 112 93 0 0 0 0 0 0 0 8 48 0 34 12 44 5 2 42 27 28 31 73 89 1 5 0 0 0 0 0 0 0 0 0
20 8 12 17 23 18 30 18 25 27 7 60 0 0 0 1 30 0 6 39 55 167 55 84 37 39 2 38 30 48 0 0 21 33 1 0 1 0 0 0 0 0 0 0 0
17 12 11 15 19 8 23 0 0 0 0 0 0 0 0 0 16 50 53 73 66 149 141 82 3 23 0 7 2 0 0 0 0 17 13 0 0 0 0 0 0 0 0 0 0
16 4 6 10 14 7 0 0 0 0 0 0 0 0 0 22 44 84 60 0 65 99 29 3 2 0 0 0 0 0 0 0 0 0 2 2 0 0 0 0 0 0 0 0 0
8 4 3 10 6 7 0 0 0 0 0 0 0 0 3 15 4 32 20 40 1 18 0 3 3 0 0 0 0 0 0 0 0 0 0 2 0 0 0 0 0 0 0 0 0
5 4 2 11 0 0 0 0 0 0 0 2 9 2 19 4 34 7 4 0 2 7 0 0 3 0 1 0 2 0 0 0 0 0 0 0 0 0 0 0 0 0 0 0 0
7 7 13 1 0 0 0 0 0 0 0 8 9 3 28 1 38 1 5 11 17 23 10 0 6 2 0 0 3 0 0 0 0 0 0 0 0 0 0 0 0 0 0 0 0
9 6 6 0 0 0 0 0 0 0 0 0 0 0 19 8 11 35 8 43 18 8 2 6 3 18 5 12 0 0 0 0 0 0 0 0 0 0 0 0 0 0 0 0 0
6 3 1 0 0 0 0 0 0 0 0 0 0 0 7 12 20 4 51 3 30 1 4 11 0 4 6 0 1 0 0 0 0 0 0 0 0 0 0 0 0 0 0 0 0
4 1 0 0 0 0 0 0 0 0 0 0 10 0 17 19 16 12 11 0 10 6 0 12 16 0 0 13 0 0 0 0 4 0 0 0 0 0 0 0 0 0 0 0 0
0 0 0 0 0 0 0 0 0 0 0 0 21 5 7 12 11 19 6 5 1 0 4 2 30 0 0 0 2 0 0 0 0 0 0 0 0 0 0 0 0 0 0 0 0
0 0 0 0 0 0 0 0 0 0 0 0 6 0 1 1 5 6 0 2 0 0 0 0 6 0 0 0 0 1 0 0 0 0 0 0 0 0 0 0 0 0 0 0 0
0 0 0 0 0 0 0 0 0 0 0 0 0 0 0 1 0 0 0 0 0 0 0 0 0 0 0 0 0 0 0 0 0 0 0 0 0 0 0 0 0 0 0 0 0
0 0 0 0 0 0 0 0 0 0 0 0 0 0 0 0 0 0 0 0 0 0 0 0 0 2 0 0 6 0 0 0 0 0 0 0 0 0 0 0 0 0 0 0 0
0 0 0 0 0 0 0 0 0 0 0 0 0 0 0 0 0 0 0 0 0 0 0 0 0 1 0 0 0 0 0 0 0 0 0 0 0 0 0 0 0 0 0 0 0
0 0 0 0 0 0 0 0 0 0 0 0 0 0 0 0 0 0 0 0 0 0 0 0 0 0 1 0 0 0 0 0 0 0 0 0 0 0 0 0 0 0 0 0 0
0 0 0 0 0 0 0 0 0 0 0 0 0 0 0 0 0 0 0 0 0 0 0 0 0 0 0 0 0 0 0 0 0 2 0 0 0 0 0 0 0 0 0 0 0
0 0 0 0 0 0 0 0 0 0 0 0 0 0 0 0 0 0 0 0 0 0 0 0 0 0 0 0 0 0 0 0 3 0 1 0 0 0 0 0 0 0 0 0 0
0 0 0 0 0 0 0 0 0 0 0 0 0 0 0 0 0 0 0 0 0 0 0 0 0 0 0 0 0 0 0 0 0 0 0 0 0 0 0 0 0 0 0 0 0
0 0 0 0 0 0 0 0 0 0 0 0 0 0 0 0 0 0 0 0 0 0 0 0 0 0 0 0 0 0 0 0 0 0 0 1 0 0 0 0 0 0 0 0 0

GFSSW_con_sbcape_072.txt.gz
CAPE
38 44 36 11 14 10 11 12 9 4 1 3 93 184 197 259 129 64 56 2 5 66 71 64 61 131 435 302 240 114 222 131 24 0 1 3 13 0 0 0 0 0 137 251 609
32 41 36 8 12 11 12 11 11 6 3 28 67 159 185 157 47 34 3 32 21 82 54 96 118 134 196 149 221 187 155 28 9 11 0 19 27 0 0 0 0 0 0 91 898
19 30 41 13 12 13 8 9 8 3 7 5 60 128 114 2 0 1 40 124 54 39 88 163 150 146 132 194 159 103 16 67 94 18 99 63 55 8 0 0 0 0 0 0 752
11 15 26 20 14 12 5 8 6 6 1 2 26 18 0 3 3 39 36 50 130 15 49 86 168 169 79 95 120 151 60 124 49 58 34 60 52 29 11 0 0 0 0 0 451
29 12 18 34 17 16 4 8 11 10 0 1 21 54 4 0 0 0 0 22 82 24 60 114 142 137 79 55 94 109 92 116 96 119 81 58 44 57 14 0 0 0 0 115 79
40 20 10 26 30 9 17 5 29 36 0 0 30 3 0 0 0 0 0 5 134 61 130 110 127 67 26 46 127 40 92 159 130 148 86 28 15 3 2 0 0 0 0 0 26
33 23 13 7 26 15 21 2 11 38 0 0 1 0 0 0 0 0 0 0 117 126 198 69 144 73 0 4 100 88 137 182 137 170 100 64 62 15 13 0 0 0 0 0 0
33 23 20 10 14 13 13 8 6 29 0 6 8 0 0 0 0 0 0 0 34 65 0 1 36 97 100 72 105 127 124 125 202 164 78 73 7 0 9 0 0 0 0 0 0
29 22 21 8 13 12 6 19 1 10 0 0 1 8 1 0 26 2 33 1 24 76 5 86 43 48 111 108 99 117 48 49 76 172 77 22 9 14 5 0 0 0 0 0 0
23 21 3 11 12 5 11 0 0 0 0 0 0 0 7 16 44 54 20 60 60 69 27 112 0 10 62 114 21 6 33 26 40 109 58 46 47 0 0 0 0 0 0 0 0
19 16 7 9 13 2 0 0 0 0 0 0 2 0 3 0 94 102 78 73 48 9 31 2 5 6 15 25 4 7 25 19 26 96 75 34 6 5 0 0 0 0 0 0 0
18 14 8 12 8 3 0 0 0 0 0 0 2 11 4 2 24 70 63 65 23 2 6 13 11 4 19 30 6 35 29 51 71 178 171 52 45 4 1 0 0 0 0 0 0
14 9 10 13 4 0 0 0 0 0 0 0 9 24 35 20 37 4 41 40 7 14 7 7 11 1 39 30 26 27 20 25 7 126 50 61 19 2 0 0 0 0 0 0 0
7 5 8 2 1 0 0 0 0 0 7 13 16 7 37 20 46 5 12 0 7 16 20 11 8 0 46 19 34 17 16 9 46 79 2 4 0 0 0 0 0 0 0 0 0
4 4 5 2 0 0 0 0 0 0 7 0 7 0 36 13 13 30 69 34 17 16 2 3 10 33 52 29 30 8 0 7 4 1 1 0 2 0 0 0 0 0 0 0 0
5 3 1 1 0 0 0 0 0 2 3 0 3 5 17 38 20 14 92 36 30 7 21 9 7 41 40 13 10 0 0 3 6 22 10 0 2 0 0 0 0 0 0 0 0
4 5 1 0 0 0 0 0 6 3 0 0 11 5 37 0 8 38 29 23 16 33 23 21 20 13 14 16 4 11 18 33 22 37 8 0 3 0 0 0 0 0 0 0 0
0 4 0 0 0 0 0 0 1 0 3 0 20 8 25 31 12 27 12 17 0 5 26 41 75 28 0 29 10 41 26 12 3 6 6 0 0 0 0 0 0 0 0 0 0
0 0 0 0 0 0 0 1 0 0 0 4 23 16 14 8 10 19 10 14 3 7 17 10 21 3 0 9 12 13 14 0 0 0 0 0 0 0 0 0 0 0 0 0 0
0 1 4 0 0 0 1 0 0 0 0 0 0 0 0 3 17 16 12 0 0 0 0 0 21 2 1 6 5 20 0 7 3 0 0 0 0 0 0 0 0 0 0 0 0
0 7 2 0 0 0 6 0 0 0 0 0 0 0 0 2 1 1 0 0 0 0 0 0 0 15 4 5 33 9 6 0 1 0 1 0 0 0 0 0 0 0 0 0 0
0 0 1 0 3 1 2 0 0 0 0 0 0 0 0 0 0 0 0 0 0 0 0 0 1 13 10 0 0 4 22 12 22 1 0 0 0 0 0 0 0 0 0 0 0
0 3 0 0 8 1 0 0 0 0 0 0 0 0 0 0 0 0 0 0 0 0 0 0 0 9 4 0 0 6 6 0 0 0 1 5 2 0 0 0 0 0 0 0 0
0 0 0 0 0 0 0 0 0 0 0 0 0 0 0 0 0 0 0 0 0 0 0 0 0 0 0 0 0 2 2 3 0 26 1 0 0 0 0 0 0 0 0 0 0
0 0 0 3 0 0 0 0 0 0 0 0 0 0 0 3 0 0 0 0 0 0 0 0 0 0 0 0 0 0 0 0 2 0 6 0 0 0 0 0 0 0 0 0 0
0 0 0 0 0 0 0 0 0 0 0 0 0 0 0 0 0 0 0 0 0 0 0 0 1 0 0 0 0 0 0 0 0 0 0 0 0 0 0 0 0 0 0 0 0
0 0 0 0 0 0 0 0 0 0 0 0 0 0 0 0 0 0 0 0 0 0 0 5 0 0 1 0 0 0 0 0 0 0 0 3 0 0 0 0 0 0 0 0 0

GFSSW_con_sbcape_075.txt.gz
CAPE
12 29 58 18 16 13 13 10 10 8 7 7 5 73 151 174 283 256 121 51 36 59 136 68 43 54 131 210 134 126 251 227 70 49 5 0 0 0 0 0 0 34 316 294 1007
16 15 41 34 16 12 9 9 8 4 5 6 3 80 162 131 103 142 76 224 95 37 49 80 154 169 227 126 269 141 189 87 106 38 21 0 0 0 12 3 2 3 60 778 1028
45 16 12 51 29 12 8 7 8 6 0 3 10 12 22 0 26 25 35 72 210 52 38 113 117 197 100 136 160 136 13 147 84 51 36 7 0 0 9 43 0 0 29 493 1206
33 38 12 23 44 22 10 4 7 9 1 2 4 0 0 2 13 17 58 136 112 90 38 126 180 196 79 63 34 67 58 21 35 101 99 16 0 13 20 40 0 0 11 180 831
29 41 16 11 35 30 26 9 8 49 9 0 2 0 27 14 0 0 10 8 65 92 17 88 129 114 94 13 62 146 112 87 55 27 31 26 10 19 5 2 0 0 7 264 747
27 40 21 15 12 38 20 33 4 36 3 0 10 0 7 4 0 3 0 4 76 95 40 83 66 84 55 39 42 21 38 49 133 22 78 86 39 0 2 15 0 0 0 36 541
25 32 24 18 16 24 25 33 5 17 18 0 0 0 6 5 0 3 0 6 165 106 78 122 106 89 63 57 28 85 108 112 118 10 81 162 90 0 0 1 0 0 0 0 0
21 23 25 16 13 18 18 21 26 9 2 0 11 13 19 1 2 1 0 1 139 168 51 40 53 77 92 80 99 118 153 100 68 49 125 167 15 1 0 33 12 1 0 0 0
22 19 21 13 17 15 9 17 14 0 0 0 8 21 26 19 30 16 9 12 100 97 30 22 52 54 62 64 84 97 52 65 90 135 93 114 2 50 45 12 2 3 0 0 0
17 16 15 14 15 18 3 4 0 0 0 1 1 50 10 19 83 34 19 21 86 118 79 63 1 90 44 135 53 26 36 21 42 89 76 76 74 41 16 3 5 0 2 0 0
14 14 16 15 12 15 5 0 1 1 0 0 8 9 1 3 77 105 30 8 94 54 45 19 7 6 8 45 14 0 0 49 39 83 103 76 97 53 12 21 8 8 2 0 0
10 11 13 14 13 3 4 0 0 0 7 0 11 15 6 2 54 154 93 61 74 63 1 16 9 2 15 38 5 49 38 60 55 47 95 63 54 64 26 10 4 0 0 0 2
8 6 8 12 6 4 0 0 0 0 4 14 10 18 13 0 73 93 130 90 3 4 1 23 13 4 7 18 3 22 46 74 63 62 73 67 42 11 1 1 0 0 0 0 0
6 8 9 4 0 1 0 0 0 0 5 14 18 3 38 45 12 8 95 42 2 0 3 20 13 3 19 34 13 34 28 51 53 93 10 33 0 0 0 0 0 0 0 0 0
6 6 7 0 3 1 0 0 0 0 9 9 7 4 40 21 30 29 44 23 0 7 44 19 10 15 87 16 27 9 43 53 51 103 55 27 10 0 0 0 0 0 0 0 0
1 3 1 2 2 0 0 0 0 10 1 2 10 15 14 26 32 56 25 21 35 43 60 18 10 21 45 44 35 33 65 41 51 38 21 0 1 0 0 0 0 0 0 0 0
0 4 1 0 2 0 0 6 7 13 0 4 22 6 11 0 0 30 39 14 47 34 101 20 21 26 28 47 41 50 62 48 29 26 12 0 5 0 0 0 0 0 0 0 0
0 1 0 2 0 0 0 4 4 1 1 1 27 19 20 0 0 24 15 41 33 15 3 30 109 27 27 8 9 34 54 23 1 4 2 0 0 0 0 0 0 0 0 0 0
0 9 3 4 0 0 2 18 10 1 0 9 31 25 21 13 13 22 30 23 3 12 50 33 22 15 37 23 63 40 40 0 1 0 10 8 0 0 0 0 0 0 0 0 0
4 9 10 6 0 2 1 1 1 0 0 5 9 14 6 7 15 16 5 1 4 4 0 13 13 5 29 35 24 36 24 6 4 0 0 0 0 0 0 0 0 0 0 0 0
9 6 11 0 0 5 1 1 0 0 0 9 8 3 0 11 12 22 27 0 10 1 0 19 17 16 44 41 32 19 1 20 12 5 12 1 2 0 0 0 0 0 0 0 0
9 10 5 1 16 4 2 0 0 0 0 0 0 15 8 15 12 17 22 16 2 0 0 0 9 10 25 7 1 11 27 25 24 7 0 0 0 0 0 0 0 0 0 0 0
1 4 0 2 2 11 0 0 0 0 0 0 0 0 4 15 16 8 1 0 3 0 1 0 10 5 9 3 0 0 3 11 29 21 30 10 0 0 0 0 0 0 0 0 0
0 3 4 3 6 0 3 2 1 0 0 0 0 0 1 2 0 2 0 0 0 0 0 0 1 8 22 1 0 1 0 9 16 43 1 2 0 0 0 0 0 0 0 0 0
0 0 0 5 1 0 0 1 8 0 0 0 0 1 5 6 9 10 0 0 0 0 0 0 3 0 0 0 0 0 1 3 6 0 37 0 1 0 0 1 2 0 0 0 0
0 0 0 0 0 0 0 2 14 0 0 0 0 0 0 14 1 13 5 8 11 0 0 0 0 0 0 0 0 0 0 0 3 3 10 0 0 0 0 0 0 0 0 0 0
0 0 0 0 0 0 0 8 7 0 0 0 0 0 7 0 0 0 0 0 1 9 12 33 0 0 19 0 0 0 0 0 0 0 0 0 0 0 0 0 0 0 0 0 0

GFSSW_con_sbcape_078.txt.gz
CAPE
33 15 2 38 29 15 12 11 10 8 3 6 5 2 38 131 154 247 154 156 169 284 157 75 49 64 105 178 151 205 165 66 9 118 10 0 0 0 0 37 0 102 146 1006 1350
22 35 11 6 52 23 8 11 12 8 6 4 7 3 6 69 53 68 154 202 200 306 29 38 60 80 152 107 222 135 144 51 52 4 0 0 0 0 1 5 30 81 695 853 1253
17 26 28 11 20 46 25 15 8 10 14 2 8 0 0 0 6 1 181 148 144 116 50 18 69 140 129 146 110 121 37 17 139 82 21 0 1 0 2 1 0 0 469 1159 1308
12 22 32 18 14 33 34 33 10 9 43 0 3 0 0 2 20 9 58 122 222 260 105 16 117 98 101 101 123 100 14 2 108 64 4 14 2 8 0 0 0 0 368 728 1181
13 19 27 32 13 9 43 18 28 7 28 0 2 0 0 12 0 14 28 8 16 51 66 22 105 81 51 3 79 54 75 64 43 17 10 26 17 7 2 0 0 0 334 742 835
10 17 27 34 18 14 21 25 29 3 24 2 0 0 2 4 0 5 19 0 45 56 80 52 49 79 9 7 41 69 43 74 13 1 0 0 14 1 0 0 0 0 23 430 811
8 17 19 29 15 12 16 24 16 10 7 0 0 0 7 0 0 4 12 1 94 112 127 99 105 112 67 64 8 64 99 81 31 46 0 8 56 0 1 0 0 0 0 5 3
10 14 24 22 9 13 20 12 4 20 1 0 0 0 15 0 0 2 6 0 45 250 188 103 135 75 45 37 25 97 55 14 14 48 39 28 0 25 14 0 0 0 0 0 0
8 12 17 11 4 11 21 1 5 1 0 0 0 25 13 0 4 4 0 32 81 91 203 102 60 78 36 32 40 49 15 18 52 2 0 0 15 45 38 0 0 0 0 0 0
7 10 16 15 13 10 6 0 0 0 0 0 3 12 13 6 15 8 0 0 28 69 111 65 6 8 9 69 8 5 0 22 10 15 1 7 30 69 7 1 0 0 0 0 0
6 6 11 11 11 17 0 0 0 0 0 0 0 11 23 1 30 26 1 0 57 12 35 4 9 26 2 0 13 0 0 0 0 86 69 72 52 41 24 0 0 0 0 0 0
6 6 7 14 14 7 0 0 0 0 3 0 1 8 4 0 26 37 2 18 21 28 0 3 16 1 13 1 9 0 0 2 31 93 50 37 34 38 4 2 0 0 0 0 0
5 4 6 13 6 0 0 0 0 0 2 7 0 7 8 3 74 33 41 25 12 5 0 4 1 3 4 37 9 0 0 4 0 21 23 25 26 1 0 0 0 0 0 0 0
3 3 6 5 0 2 0 0 0 0 3 9 8 1 8 0 2 28 86 48 1 13 0 1 10 2 0 6 17 5 5 32 9 30 43 50 0 0 0 0 0 0 0 0 0
3 3 4 0 3 1 0 0 0 0 0 1 0 0 8 6 0 0 35 51 1 0 2 6 2 0 18 2 23 17 0 10 54 57 24 27 0 0 0 0 0 0 0 0 0
0 2 4 0 1 0 0 0 0 1 0 0 14 10 5 22 11 3 12 0 10 0 0 14 6 8 82 46 2 1 24 4 26 29 2 0 0 0 0 0 0 0 0 0 0
0 1 0 2 6 0 0 0 4 3 0 0 4 4 3 1 5 13 9 6 16 1 16 54 36 16 21 17 21 19 8 2 4 1 0 0 0 0 0 0 0 0 0 0 0
0 1 0 0 0 0 0 3 0 0 0 2 6 1 7 0 12 21 11 1 32 55 0 0 6 20 3 24 16 9 0 2 0 0 0 0 0 0 0 0 0 0 0 0 0
3 2 6 0 0 1 6 1 11 0 0 8 3 16 3 1 2 23 8 10 58 10 38 6 3 0 8 12 13 20 18 0 0 0 0 0 0 0 0 0 0 0 0 0 0
0 5 4 10 1 6 1 0 1 0 0 13 24 19 14 2 5 5 6 2 15 4 0 0 0 0 8 17 9 13 3 0 0 0 0 0 0 0 0 0 0 0 0 0 0
2 10 8 0 0 17 0 0 3 0 0 5 9 9 2 5 1 6 3 0 2 0 0 0 0 3 13 17 0 0 4 6 4 0 12 0 0 0 0 0 0 0 0 0 0
5 11 1 0 22 3 1 0 0 0 0 0 1 11 2 11 10 7 0 0 5 0 0 0 1 4 11 0 0 6 15 3 3 4 0 0 0 0 0 0 0 0 0 0 0
6 4 0 1 2 1 0 0 0 0 0 0 1 0 6 15 10 7 2 0 0 0 0 0 1 1 2 0 0 0 17 33 1 0 0 0 0 0 0 0 0 0 0 0 0
0 5 6 7 1 0 1 0 0 0 0 0 0 0 0 5 2 9 0 0 0 0 0 0 0 2 0 0 0 0 0 0 1 0 0 0 0 0 0 0 0 0 0 0 0
0 0 0 4 2 0 0 1 2 0 0 0 0 0 3 8 7 10 0 0 0 0 0 0 0 0 0 0 0 0 0 0 0 0 0 0 0 0 0 0 0 0 0 0 0
0 0 0 0 0 0 0 0 3 0 0 0 0 0 0 0 0 7 0 1 1 0 0 0 0 0 0 0 0 0 0 0 0 0 0 0 0 0 0 0 0 0 0 0 0
0 0 0 0 0 0 0 0 3 2 0 0 0 0 0 0 0 0 0 0 0 2 1 1 0 0 2 0 0 0 0 0 0 0 0 0 0 0 0 0 0 0 0 0 0

GFSSW_con_sbcape_081.txt.gz
CAPE
14 15 26 8 11 52 26 10 12 16 15 11 1 1 0 0 0 4 84 158 210 434 308 52 70 1 6 122 167 203 80 21 1 8 36 0 0 0 0 0 58 85 301 525 773
7 17 28 26 12 16 53 22 16 7 18 14 0 1 0 0 0 0 93 352 284 199 151 43 61 77 93 128 213 199 76 11 28 17 0 0 0 0 0 9 398 587 676 1048 797
6 12 23 29 10 12 27 41 29 9 18 30 0 0 0 0 0 0 3 170 216 187 117 77 8 137 107 138 54 128 69 40 156 275 43 4 20 0 0 0 0 642 888 946 884
10 10 23 28 24 16 11 59 22 25 16 17 0 0 0 0 0 0 16 26 114 129 93 102 33 39 62 65 85 132 81 22 130 57 48 21 0 1 0 0 0 485 1052 1073 955
10 10 20 20 29 9 13 19 23 35 4 28 3 0 0 0 3 0 53 10 0 9 72 90 29 114 78 0 58 9 72 41 14 36 11 4 0 6 0 0 0 590 683 970 892
13 9 21 20 25 9 10 9 25 27 5 30 1 0 0 0 0 0 7 22 0 7 0 29 57 17 35 5 28 22 16 47 29 25 1 3 11 0 0 0 0 575 655 756 1029
11 12 18 21 18 10 10 16 18 7 20 20 0 0 6 2 0 0 16 1 0 80 4 97 97 83 44 31 0 69 39 0 9 1 8 0 34 0 0 0 0 35 414 510 603
7 10 15 22 13 8 10 21 3 4 12 9 0 0 17 0 0 0 6 26 166 151 207 153 103 107 51 1 31 98 76 37 14 59 9 5 4 0 0 0 0 0 0 0 0
5 8 14 14 11 6 4 14 0 4 0 0 0 4 5 1 0 0 0 0 113 175 161 18 41 33 25 32 54 41 1 20 7 24 12 24 1 0 0 0 0 0 0 0 0
4 5 8 15 9 13 11 0 0 0 0 0 1 9 2 2 2 0 0 0 25 63 14 6 2 1 9 40 32 30 26 23 26 0 19 7 0 0 0 0 0 0 0 0 0
3 5 5 8 9 14 0 0 0 0 0 0 2 2 9 0 10 2 0 0 11 0 0 1 4 0 0 1 0 2 5 21 30 30 0 0 0 0 0 0 0 0 0 0 0
3 3 2 5 8 10 0 0 0 0 0 0 0 1 0 0 5 2 0 0 0 2 0 0 3 4 3 0 6 0 5 2 30 63 23 0 0 0 0 0 0 0 0 0 0
0 1 0 2 3 0 0 0 0 0 0 1 0 0 0 0 3 1 2 1 4 0 0 0 6 3 6 3 1 1 0 1 0 32 2 23 4 0 0 0 0 0 0 0 0
0 2 0 5 0 0 0 0 0 0 0 1 2 0 0 0 0 0 29 36 0 0 0 0 0 8 36 4 3 3 0 0 12 17 19 8 0 0 0 0 0 0 0 0 0
0 1 0 3 0 0 0 0 0 0 0 5 0 0 12 0 0 0 19 32 0 0 0 0 42 20 22 10 0 3 0 0 1 18 3 19 0 0 0 0 0 0 0 0 0
0 0 1 0 0 0 0 0 0 0 0 1 3 1 2 4 9 9 55 0 0 0 0 0 15 14 37 23 1 0 2 16 4 0 5 0 0 0 0 0 0 0 0 0 0
0 0 0 1 1 0 0 0 0 0 0 0 0 3 3 3 12 1 8 1 11 0 0 49 27 41 47 12 5 4 0 1 0 0 0 0 0 0 0 0 0 0 0 0 0
0 0 0 1 0 0 0 0 0 0 0 0 0 0 2 0 7 3 5 0 0 2 3 0 0 2 8 8 0 4 0 0 0 0 0 0 0 0 0 0 0 0 0 0 0
1 0 0 0 0 0 6 0 0 0 0 0 0 1 5 13 1 21 6 1 14 0 1 0 2 1 1 0 0 0 0 0 0 0 0 0 0 0 0 0 0 0 0 0 0
0 1 3 0 0 5 1 0 0 0 0 0 7 8 14 1 1 3 9 3 10 1 0 0 0 0 2 0 0 0 0 0 0 0 0 0 0 0 0 0 0 0 0 0 0
0 3 1 0 1 12 0 0 0 0 0 1 9 17 5 1 0 1 0 0 0 0 0 0 0 0 1 0 0 0 3 0 0 0 0 0 0 0 0 0 0 0 0 0 0
0 2 1 0 4 5 0 0 0 0 0 0 1 11 3 0 0 0 0 0 0 0 0 0 0 0 0 0 0 0 0 1 0 0 0 0 0 0 0 0 0 0 0 0 0
0 4 0 2 1 1 0 0 0 0 0 0 0 0 6 9 10 1 0 0 0 0 0 0 0 0 2 0 0 0 0 1 0 0 0 0 0 0 0 0 0 0 0 0 0
0 1 3 11 1 0 0 0 0 0 0 0 0 0 0 13 1 0 0 0 0 0 0 0 0 0 0 0 0 0 0 0 0 0 0 0 0 0 0 0 0 0 0 0 0
0 0 0 2 0 0 0 0 0 0 0 0 0 0 0 0 7 0 0 0 0 0 0 0 0 0 0 0 0 0 0 0 0 0 0 0 0 0 0 0 0 0 0 0 0
0 0 0 0 0 0 0 0 0 0 0 0 0 0 0 0 0 0 0 0 0 0 0 0 0 0 0 0 0 0 0 0 0 0 0 0 0 0 0 0 0 0 0 0 0
0 0 0 0 0 0 0 0 0 0 0 0 0 0 0 0 0 0 0 0 0 0 0 0 0 0 0 0 0 0 0 0 0 0 0 0 0 0 0 0 0 0 0 0 0

GFSSW_con_sbcape_084.txt.gz
CAPE
5 7 11 30 16 13 14 56 18 6 5 14 12 1 4 3 1 0 0 6 117 352 360 194 47 81 95 126 190 41 126 19 1 0 0 0 0 0 0 2 87 93 71 213 257
5 7 11 23 30 14 15 33 47 14 11 13 31 2 5 5 0 0 0 121 342 405 221 116 38 96 58 131 136 137 35 17 0 21 0 0 0 0 11 179 495 705 775 351 40
7 6 11 23 30 17 18 11 59 25 19 15 21 2 5 0 0 0 0 48 169 215 184 207 64 71 74 192 78 129 48 24 166 297 151 0 0 0 0 0 76 688 690 673 245
7 6 9 13 16 25 14 9 22 22 27 2 32 10 2 0 0 0 9 17 46 99 107 80 110 122 134 93 60 230 90 72 183 58 114 26 0 0 0 0 111 738 892 824 385
6 7 6 9 18 23 10 15 12 29 32 1 33 6 0 0 0 0 41 20 8 8 31 34 105 118 71 11 12 86 123 80 49 34 13 1 0 0 0 0 129 828 1065 996 760
5 6 7 7 14 12 10 6 9 20 16 5 34 4 0 0 0 0 11 10 5 0 1 89 104 101 51 26 0 7 28 18 48 15 0 0 3 0 0 0 552 624 764 849 758
4 4 6 7 9 11 8 11 19 8 2 28 36 3 2 0 0 0 0 13 4 0 2 5 32 63 92 29 0 38 55 17 2 31 10 0 3 0 0 0 385 422 508 610 728
3 2 6 7 3 6 6 10 13 1 2 15 32 0 0 0 0 0 0 54 61 34 21 99 144 159 58 4 9 34 84 19 35 91 23 0 1 0 0 0 0 8 249 295 264
5 1 4 6 4 3 9 8 3 0 2 1 2 5 0 0 0 0 0 0 63 118 89 67 51 45 38 23 44 34 9 6 31 6 43 0 0 0 0 0 0 0 0 0 0
3 0 2 3 0 2 2 1 0 0 0 0 0 0 0 0 0 0 0 0 31 36 2 1 0 3 4 34 23 6 6 8 28 14 5 50 26 0 0 0 0 0 0 0 0
8 2 0 0 0 2 0 0 0 0 0 0 0 0 0 0 0 0 0 0 2 0 0 0 12 5 0 9 32 4 0 0 0 11 3 5 10 0 0 0 0 0 0 0 0
11 7 0 0 0 2 0 0 0 0 0 0 0 0 0 0 0 0 0 0 0 0 0 0 3 2 11 20 3 7 5 5 22 28 12 2 0 0 0 0 0 0 0 0 0
15 7 0 0 0 0 0 0 0 0 0 0 0 0 0 0 0 0 9 0 0 0 0 3 1 0 12 5 10 1 0 0 3 26 29 5 1 1 0 0 0 0 0 0 0
15 0 0 0 0 0 0 0 0 0 0 0 0 0 0 0 0 0 12 0 0 0 0 1 5 22 0 0 2 18 0 0 31 30 40 23 1 0 0 0 0 0 0 0 0
19 1 0 0 0 0 0 0 0 0 0 0 0 0 0 0 0 0 0 1 0 0 0 0 38 25 0 1 0 16 6 2 35 1 0 7 0 0 0 0 0 0 0 0 0
19 1 0 0 0 0 0 0 0 0 0 1 0 0 0 8 11 9 12 0 0 0 0 20 19 16 26 13 0 4 4 0 1 4 0 0 0 0 0 0 0 0 0 0 0
14 1 0 0 0 0 0 0 0 1 0 0 0 0 1 8 9 1 14 0 0 0 0 25 27 17 28 13 20 0 0 0 0 0 0 0 0 0 0 0 0 0 0 0 0
13 1 0 0 0 0 0 0 0 0 0 0 0 0 0 1 2 17 15 1 0 0 26 2 2 19 17 9 3 10 0 0 0 0 0 0 0 0 0 0 0 0 0 0 0
17 0 0 0 0 0 0 0 0 0 0 5 0 0 7 0 4 6 0 0 0 0 0 0 7 1 6 1 0 0 0 0 0 0 0 0 0 0 0 0 0 0 0 0 0
0 0 0 0 0 1 0 0 0 0 0 0 0 0 0 0 0 3 0 0 1 0 0 0 2 0 2 0 0 0 0 0 0 0 0 0 0 0 0 0 0 0 0 0 0
0 0 0 0 1 8 0 0 0 0 0 1 0 6 9 0 0 0 0 0 0 0 0 0 0 0 0 0 0 0 0 0 0 0 0 0 0 0 0 0 0 0 0 0 0
0 1 0 1 2 3 0 0 0 0 0 0 0 4 0 0 0 3 0 0 0 0 0 0 0 0 0 0 0 0 0 0 0 0 0 0 0 0 0 0 0 0 0 0 0
0 2 0 5 1 3 0 0 0 0 0 0 0 0 4 0 2 0 0 0 0 0 0 0 0 1 2 0 0 0 0 0 0 0 0 0 0 0 0 0 0 0 0 0 0
0 1 2 18 1 1 0 0 1 0 0 0 0 0 0 9 0 0 0 0 0 0 0 0 0 0 0 0 0 0 0 0 0 0 0 0 0 0 0 0 0 0 0 0 0
0 0 0 3 3 0 0 0 0 0 0 0 0 0 0 1 0 0 0 0 0 0 0 0 0 0 0 0 0 0 0 0 0 0 0 0 0 0 0 0 0 0 0 0 0
0 0 0 0 0 0 1 0 0 0 0 0 0 0 0 0 0 0 0 0 0 0 0 0 0 0 0 0 0 0 0 0 0 0 0 0 0 0 0 0 0 0 0 0 0
0 0 0 0 0 0 0 0 0 0 0 0 0 0 0 0 0 0 0 0 0 0 0 0 0 0 0 0 0 0 0 0 0 0 0 0 0 0 0 0 0 0 0 0 0

GFSSW_con_sbcape_087.txt.gz
CAPE
5 8 9 11 20 27 17 9 19 32 18 3 12 42 8 10 7 0 0 0 10 151 192 104 97 76 102 38 240 302 163 28 2 0 0 0 4 0 15 66 162 173 98 100 140
7 9 8 10 20 24 9 18 12 35 35 21 17 30 11 15 0 0 0 14 75 163 117 147 101 144 104 105 140 198 11 3 2 0 0 0 1 6 187 442 561 857 420 207 220
7 9 12 7 13 12 20 13 12 10 40 36 3 32 13 1 0 0 0 0 3 153 155 107 179 120 86 99 130 58 35 0 22 277 179 10 0 0 77 119 338 545 559 258 308
9 10 13 14 12 13 13 11 8 10 40 51 17 37 9 0 0 0 0 8 25 23 71 81 163 58 72 32 145 37 31 0 153 106 106 51 0 0 0 0 14 746 529 277 200
9 12 11 10 12 17 6 7 5 7 38 37 14 33 0 0 0 0 0 45 2 1 1 44 91 53 44 33 30 48 0 30 255 95 9 23 0 0 0 0 902 1092 627 246 233
12 15 11 7 10 14 5 8 10 16 25 25 19 12 1 0 0 0 0 8 13 9 0 32 43 80 43 71 15 32 90 30 231 73 2 7 0 0 0 1 795 908 911 650 406
11 15 11 10 15 10 9 3 6 26 9 25 26 3 2 0 0 0 0 15 3 32 0 5 47 127 58 54 6 14 74 19 173 3 12 0 26 0 0 0 473 499 500 591 540
9 18 19 9 8 15 5 3 1 8 4 19 8 0 1 0 0 0 0 20 59 5 0 46 53 45 93 31 68 73 26 2 91 13 2 0 24 0 0 0 43 83 278 313 405
11 18 18 5 11 15 3 6 1 2 5 4 0 1 0 0 0 0 0 2 62 22 9 107 63 36 117 36 33 55 12 5 24 1 13 2 0 0 0 0 0 0 0 0 6
5 18 19 2 6 3 2 2 0 0 0 0 0 1 0 0 0 0 0 0 25 1 0 31 42 4 5 36 2 3 3 8 6 32 35 5 0 0 0 0 0 0 0 0 0
6 16 16 1 3 0 2 0 0 0 0 0 0 0 0 0 0 0 0 0 4 8 5 0 2 1 34 9 0 0 0 2 19 43 17 1 6 0 0 0 0 0 0 0 0
11 9 15 0 1 6 0 0 0 0 0 0 0 0 0 0 0 0 0 0 0 0 0 0 1 6 2 61 25 19 39 62 46 46 12 11 3 0 0 0 0 0 0 0 0
33 14 20 0 2 0 0 0 0 0 0 0 0 0 0 0 0 0 0 0 0 0 0 0 5 1 19 53 40 10 28 30 30 43 30 15 3 0 0 0 0 0 0 0 0
36 19 21 5 0 0 0 0 0 0 0 0 0 0 0 0 0 0 0 0 0 0 0 0 2 11 8 11 4 41 0 11 66 18 97 12 5 0 0 0 0 0 0 0 0
40 20 31 19 0 0 0 0 0 0 0 0 0 0 2 0 0 0 0 0 0 0 0 0 1 11 3 2 0 28 0 0 16 0 13 15 1 0 0 0 0 0 0 0 0
41 20 43 32 0 0 0 0 0 0 0 0 0 0 3 1 12 0 2 0 0 0 2 33 7 2 16 17 3 0 4 11 10 7 1 0 0 0 0 0 0 0 0 0 0
56 27 33 2 0 0 0 0 0 1 0 0 0 0 0 23 5 2 1 0 0 0 8 13 15 12 25 32 0 1 0 0 0 0 0 0 0 0 0 0 0 0 0 0 0
47 32 35 6 0 0 0 0 0 0 0 0 0 0 1 6 5 25 0 0 0 1 11 0 1 14 4 6 2 21 0 0 0 0 0 0 0 0 0 0 0 0 0 0 0
79 23 20 0 0 0 0 0 0 0 0 0 0 0 0 2 16 4 0 0 0 0 0 1 24 0 23 13 1 0 0 0 0 0 0 0 0 0 0 0 0 0 0 0 0
6 27 10 0 0 0 0 0 0 0 0 0 0 0 0 0 4 1 0 0 0 0 0 0 1 3 1 0 0 0 0 0 0 0 0 0 0 0 0 0 0 0 0 0 0
11 19 10 0 0 0 0 0 0 0 0 0 0 0 0 0 0 0 0 0 0 0 0 0 0 0 0 0 0 0 0 0 0 0 0 0 0 0 0 0 0 0 0 0 0
23 2 2 0 0 0 0 0 0 0 0 0 0 0 0 0 3 10 0 0 0 0 0 0 0 0 0 0 0 0 0 0 0 0 0 0 0 0 0 0 0 0 0 0 0
17 12 0 5 0 0 0 0 0 0 0 0 0 0 0 0 3 2 0 0 0 0 0 0 0 0 0 0 0 0 0 0 0 0 0 0 0 0 0 0 0 0 0 0 0
4 1 8 22 0 0 0 0 2 0 0 0 0 0 0 0 0 0 0 0 0 0 0 0 0 0 0 0 0 0 0 0 0 0 0 0 0 0 0 0 0 0 0 0 0
0 1 0 2 9 0 0 0 0 0 0 0 0 0 0 0 0 0 0 0 0 0 0 0 0 0 0 0 0 0 0 0 0 0 0 0 0 0 0 0 0 0 0 0 0
0 0 0 0 0 0 1 0 0 0 0 0 0 0 0 0 0 0 0 0 0 0 0 0 0 0 0 0 0 0 0 0 0 0 0 0 0 0 0 0 0 0 0 0 0
0 0 0 1 0 0 0 0 0 0 0 0 0 0 0 0 0 0 0 0 0 0 0 0 0 0 0 0 0 0 0 0 0 0 0 0 0 0 0 0 0 0 0 0 0

GFSSW_con_sbcape_090.txt.gz
CAPE
6 8 9 8 9 23 30 8 6 7 15 31 25 16 32 3 6 0 0 0 0 22 23 7 0 0 0 60 113 172 186 50 74 66 0 0 0 3 39 183 231 54 43 51 88
8 8 9 12 8 15 16 27 11 11 3 43 30 14 38 13 0 0 0 1 13 13 6 5 31 33 7 74 134 149 59 4 20 3 0 0 0 7 374 477 477 497 305 234 45
11 10 13 15 15 13 9 32 23 12 3 39 39 13 30 0 0 0 0 0 3 18 21 52 74 61 32 38 78 80 63 0 70 2 40 60 0 5 277 447 436 411 229 94 77
41 12 13 20 17 13 19 24 23 13 9 33 32 11 2 0 0 0 0 8 26 0 9 47 51 60 35 25 29 81 10 13 38 0 164 185 43 3 185 59 1 638 322 164 60
97 9 9 18 19 14 11 19 20 9 6 22 28 21 0 0 0 0 0 2 10 5 1 1 31 46 24 101 71 59 0 26 11 20 15 19 21 6 0 0 749 784 362 413 157
138 5 4 18 15 15 16 14 12 16 36 5 23 7 0 0 0 0 0 0 16 19 3 3 28 62 37 28 24 21 3 10 25 4 32 10 25 0 0 0 1229 755 423 474 429
18 12 2 18 17 21 18 16 10 24 31 0 22 3 0 0 0 0 0 1 17 32 52 2 19 52 46 93 13 1 54 54 0 4 172 0 10 0 0 0 506 857 444 370 343
0 26 4 14 17 22 16 15 1 27 25 6 16 0 0 0 0 0 0 6 24 0 0 14 26 0 12 2 60 23 58 60 2 0 30 1 40 0 0 0 0 131 357 483 455
16 41 7 10 18 14 12 10 7 24 30 29 1 0 0 0 0 0 0 1 34 0 1 51 39 8 3 13 27 51 19 42 2 1 70 0 16 0 0 0 0 0 0 61 268
12 13 10 10 16 20 0 15 8 10 5 1 0 0 0 0 0 0 0 0 17 0 0 13 5 4 27 2 1 4 14 7 4 37 11 8 1 0 0 0 0 0 0 0 0
3 16 14 14 19 3 0 0 0 0 0 0 0 0 0 0 0 0 0 0 6 5 1 2 3 4 11 1 0 1 16 0 2 10 9 12 10 0 0 0 0 0 0 0 0
20 21 22 10 19 14 0 0 0 0 0 0 0 0 0 0 0 0 0 0 0 0 0 0 8 4 43 32 13 46 33 41 28 20 10 10 0 0 0 0 0 0 0 0 0
1 28 20 12 16 7 0 0 0 0 0 0 0 0 0 0 0 0 0 0 0 0 0 0 1 2 20 72 42 19 2 3 3 13 33 13 0 0 0 0 0 0 0 0 0
0 14 24 14 3 0 0 0 0 0 0 0 0 0 0 0 0 0 0 0 0 0 0 0 3 11 4 2 12 39 4 58 45 6 5 0 0 0 0 0 0 0 0 0 0
4 26 40 2 0 4 0 0 0 0 0 0 0 0 1 0 0 0 0 0 0 0 0 1 17 13 8 4 1 35 1 38 8 16 13 7 0 0 0 0 0 0 0 0 0
39 21 31 23 0 1 0 0 0 0 0 0 0 0 12 4 11 0 0 0 0 0 12 6 3 2 20 20 4 4 2 12 1 3 2 0 0 0 0 0 0 0 0 0 0
42 19 17 10 2 2 0 0 0 0 0 0 0 0 0 5 3 2 0 0 0 5 43 4 10 1 23 10 0 51 2 0 0 0 0 0 0 0 0 0 0 0 0 0 0
34 45 0 0 0 0 0 0 0 0 0 0 0 0 0 1 1 10 0 0 0 0 0 0 0 1 6 7 0 2 0 0 0 0 0 0 0 0 0 0 0 0 0 0 0
98 6 3 0 5 0 2 0 0 0 0 0 0 0 0 0 0 0 0 0 0 0 0 0 1 13 0 11 4 2 0 0 0 0 0 0 0 0 0 0 0 0 0 0 0
39 42 9 0 0 2 2 0 0 0 0 0 0 0 0 0 0 2 0 0 0 0 0 0 1 5 5 0 0 0 0 0 0 0 0 0 0 0 0 0 0 0 0 0 0
47 46 26 2 2 14 4 0 0 0 0 0 0 0 0 0 0 0 0 0 0 0 0 0 0 0 0 0 0 0 0 0 0 0 0 0 0 0 0 0 0 0 0 0 0
41 23 10 4 3 5 2 0 0 0 0 0 0 0 0 0 0 0 0 0 0 0 0 0 0 0 0 0 0 0 0 0 0 0 0 0 0 0 0 0 0 0 0 0 0
72 45 7 14 0 2 0 0 0 0 0 0 0 0 0 0 0 0 0 0 0 0 0 0 0 0 0 0 0 0 0 0 0 0 0 0 0 0 0 0 0 0 0 0 0
32 1 18 14 2 0 0 0 0 0 0 0 0 0 0 0 0 0 0 0 0 0 0 0 0 0 0 0 0 0 0 0 0 0 0 0 0 0 0 0 0 0 0 0 0
6 3 0 0 5 0 0 0 0 0 0 0 0 0 1 0 0 0 0 0 0 0 0 0 0 0 0 0 0 0 0 0 0 0 0 0 0 0 0 0 0 0 0 0 0
0 0 0 1 1 0 0 0 0 0 0 0 0 0 0 0 0 0 0 0 0 0 0 0 0 0 0 0 0 0 0 0 0 0 0 0 0 0 0 0 0 0 0 0 0
0 0 0 1 0 0 0 0 1 0 0 0 0 0 0 0 0 0 0 0 0 0 0 0 0 0 0 0 0 0 0 0 0 0 0 0 0 0 0 0 0 0 0 0 0

GFSSW_con_sbcape_093.txt.gz
CAPE
13 10 6 5 3 5 7 18 21 15 12 22 58 20 2 18 0 0 0 0 0 2 16 8 0 2 15 16 98 148 87 19 8 27 0 13 73 15 1 23 368 231 103 118 38
93 32 12 5 4 6 4 8 18 12 16 15 61 44 24 5 0 0 0 0 10 5 0 0 0 0 20 10 112 110 74 16 0 13 32 72 69 37 22 117 445 496 593 222 40
78 114 21 8 4 9 7 5 26 17 13 14 49 44 23 0 0 0 0 0 0 5 0 16 18 10 5 5 40 43 50 17 5 2 169 264 96 33 5 17 282 436 698 240 3
16 17 70 6 5 9 5 1 17 8 14 5 41 29 2 0 0 0 0 0 7 0 0 3 44 9 24 1 0 49 48 51 51 82 209 195 233 181 8 0 0 579 576 266 65
18 8 30 4 6 7 11 0 12 7 16 6 25 32 0 0 0 0 0 0 0 0 0 0 3 15 10 0 6 47 0 64 66 19 145 190 40 35 45 0 0 426 557 308 151
7 4 4 20 10 6 6 6 13 7 15 29 12 11 0 0 0 0 0 0 0 0 1 4 1 27 19 3 41 56 66 45 91 97 119 96 21 0 11 0 0 521 504 362 112
11 2 3 15 9 12 9 22 10 1 18 23 9 22 0 0 0 0 0 0 0 17 24 20 3 31 27 17 31 0 0 75 68 99 89 61 0 0 0 0 6 545 442 173 162
8 6 3 48 11 9 12 13 0 7 7 9 31 1 0 0 0 0 0 0 11 0 0 3 13 21 21 0 5 6 23 40 75 82 0 0 0 1 0 0 114 224 516 357 326
7 9 10 12 9 14 9 2 1 10 13 21 12 3 0 0 0 0 0 0 33 1 2 28 38 20 0 0 15 50 36 36 97 0 20 0 0 8 0 0 0 0 5 318 510
4 11 8 17 7 6 13 8 8 1 0 3 4 11 0 0 0 0 0 0 11 0 0 29 1 5 2 9 22 1 28 46 70 42 0 1 0 0 0 0 0 0 0 45 323
4 5 4 36 6 12 1 0 0 0 0 0 0 0 0 0 0 0 0 0 11 7 2 0 4 0 3 0 1 8 39 21 126 44 7 8 2 1 0 0 0 0 0 0 0
1 5 2 44 11 0 0 0 0 0 0 0 0 0 0 0 0 0 0 0 0 0 0 3 11 3 1 0 21 54 95 86 49 4 0 0 2 3 0 0 0 0 0 0 0
6 2 17 67 9 5 0 0 1 0 0 0 0 0 0 0 0 0 0 0 0 0 0 0 0 4 52 36 24 21 34 24 6 9 0 0 3 11 0 0 0 0 0 0 0
32 3 35 19 0 0 0 0 0 0 0 0 1 0 0 0 0 0 0 0 0 0 0 0 7 11 6 5 1 46 31 28 9 0 11 0 1 2 0 0 0 0 0 0 0
35 19 27 19 0 0 1 0 0 0 0 0 0 0 0 0 0 0 0 0 0 0 0 19 27 22 0 8 6 42 21 35 2 21 0 0 1 0 0 0 0 0 0 0 0
31 40 27 56 4 2 0 0 0 0 0 2 0 0 9 0 9 0 0 0 0 0 4 11 2 2 14 1 28 12 4 0 0 0 1 2 0 0 0 0 0 0 0 0 0
42 43 27 43 13 1 0 1 0 0 0 2 0 0 0 1 4 0 0 0 0 2 7 1 8 1 20 4 0 0 2 15 0 0 0 0 0 0 0 0 0 0 0 0 0
56 36 10 0 34 0 0 3 0 0 0 0 0 0 0 0 1 0 0 0 0 0 0 0 0 1 0 6 6 5 0 0 0 0 2 0 0 0 0 0 0 0 0 0 0
55 1 11 12 8 0 0 0 0 0 0 0 0 0 1 14 0 0 0 0 0 0 0 0 5 12 0 4 0 0 0 0 0 0 0 0 0 0 0 0 0 0 0 0 0
24 8 1 24 0 0 5 1 0 0 0 0 0 0 0 0 0 0 0 0 0 0 0 0 0 3 5 1 0 0 0 0 0 0 0 0 0 0 0 0 0 0 0 0 0
10 20 48 13 12 3 1 0 0 0 0 0 0 0 0 0 0 0 0 0 0 0 0 0 0 6 0 0 0 0 0 0 0 0 0 0 0 0 0 0 0 0 0 0 0
17 49 48 31 2 6 3 0 0 0 0 0 0 0 0 0 0 0 0 0 0 0 0 0 0 2 0 0 0 0 0 0 0 0 0 0 0 0 0 0 0 0 0 0 0
13 0 41 28 3 19 5 0 0 0 0 0 0 0 0 0 0 0 0 0 0 0 0 0 0 0 0 0 0 0 0 0 0 0 0 0 0 0 0 0 0 0 0 0 0
28 0 15 18 4 0 7 1 0 0 0 0 0 0 0 0 0 0 0 0 0 0 0 0 0 0 0 0 0 0 0 0 0 0 0 0 0 0 0 0 0 0 0 0 0
9 0 3 2 12 3 0 0 0 4 0 0 0 0 0 0 0 0 0 0 0 0 0 0 0 0 0 0 0 0 0 0 0 0 0 0 0 0 0 0 0 0 0 0 0
0 2 0 0 3 3 6 0 1 0 0 0 0 0 0 0 0 0 0 0 0 0 0 0 0 0 0 0 0 0 0 0 0 0 0 0 0 0 0 0 0 0 0 0 0
0 0 0 9 7 6 0 0 4 1 0 0 0 0 0 0 0 0 0 0 0 0 0 0 0 0 0 0 0 0 0 0 0 0 0 0 0 0 0 0 0 0 0 0 0

GFSSW_con_sbcape_096.txt.gz
CAPE
17 57 64 19 2 1 2 1 5 2 1 0 0 18 11 11 19 2 0 0 0 3 11 0 0 0 6 2 1 64 78 33 20 11 2 0 19 22 93 131 40 129 254 210 194
9 23 23 78 1 1 1 3 4 11 1 0 0 17 12 0 0 0 0 0 2 5 2 0 0 0 1 1 14 36 20 4 0 3 21 3 56 0 116 165 117 61 382 541 474
12 18 22 26 29 4 1 0 1 10 1 0 0 17 10 0 0 0 0 1 12 6 0 0 4 12 7 7 10 9 31 2 5 0 28 45 102 84 255 152 161 104 172 536 458
16 26 12 28 87 8 13 3 0 6 6 0 0 13 0 0 0 0 0 0 1 12 0 6 11 22 18 18 8 17 0 4 0 18 83 36 79 162 214 96 123 123 42 596 477
16 17 12 13 25 30 8 8 4 3 2 0 1 7 0 0 0 0 0 0 0 0 1 6 27 18 34 17 24 11 0 1 1 0 26 134 115 187 196 183 139 71 63 202 419
24 19 12 8 13 46 7 10 13 0 0 0 3 1 1 0 0 0 0 0 0 0 1 10 15 12 23 40 44 12 16 5 2 3 65 101 88 177 138 191 185 96 23 29 255
21 16 11 3 9 61 13 17 25 0 0 7 12 16 0 0 0 0 0 0 0 5 16 21 22 13 18 22 26 26 23 30 63 15 100 140 166 84 56 60 19 35 1 117 229
21 11 10 2 6 86 12 17 0 0 5 12 15 2 4 0 0 0 0 0 28 7 0 16 4 9 23 20 18 0 24 31 25 62 103 136 48 17 110 20 16 65 39 232 187
16 6 6 0 7 14 11 6 1 4 21 26 8 0 0 0 0 0 0 0 28 20 24 10 16 28 30 23 4 4 127 38 93 97 159 137 69 70 0 0 0 89 75 209 145
4 2 3 0 11 16 0 19 8 18 17 22 2 1 0 0 0 0 0 0 9 6 31 34 35 41 20 13 1 48 114 93 97 143 121 110 52 0 0 0 0 18 56 218 145
16 0 1 5 36 4 6 0 0 4 4 0 0 0 0 0 0 0 0 4 21 44 26 8 23 3 14 4 0 2 44 85 104 114 90 33 0 0 0 0 0 36 139 338 170
31 2 1 10 121 5 0 0 0 0 0 0 0 0 0 0 0 0 0 6 2 18 17 16 8 16 8 10 7 14 48 92 118 47 16 1 1 0 0 0 0 6 5 194 100
35 12 0 97 35 16 1 3 0 0 0 0 0 0 0 0 0 0 0 0 0 5 12 14 4 1 21 13 33 100 19 68 29 15 4 1 1 1 0 0 4 0 0 5 51
60 19 3 90 9 3 7 1 0 0 3 0 6 2 0 0 0 0 0 0 0 2 0 5 4 19 18 9 80 45 15 62 13 28 52 5 4 9 4 27 18 0 0 0 1
102 58 30 22 71 11 0 0 5 0 4 1 0 0 2 0 0 0 0 0 0 1 10 12 30 36 6 18 27 48 73 43 16 16 36 4 6 10 12 2 4 6 0 0 0
56 52 40 107 69 15 0 0 0 13 3 15 3 6 15 2 18 0 0 0 0 3 8 13 1 10 33 11 20 89 57 70 73 33 29 13 25 11 0 0 0 0 0 0 0
67 70 58 39 47 0 0 9 25 9 0 14 3 7 6 26 19 0 0 0 9 105 45 2 7 1 18 8 24 9 62 43 36 44 13 5 18 4 0 0 0 0 0 0 0
63 65 64 36 79 4 2 13 9 0 0 0 2 10 8 12 3 1 0 0 0 3 7 4 12 3 0 19 7 2 8 21 3 12 11 3 9 0 0 0 0 0 0 0 0
59 154 142 102 52 32 7 42 12 0 0 8 17 10 21 10 11 6 0 0 0 3 25 8 32 6 7 26 7 11 0 0 1 5 10 0 0 0 0 0 0 0 0 0 0
144 59 5 99 56 11 31 18 6 0 0 0 1 9 8 5 6 1 0 0 11 0 0 6 26 6 13 6 1 1 0 0 0 1 8 1 0 0 0 0 0 0 0 0 0
40 33 11 77 38 6 33 17 1 0 0 0 0 1 0 4 1 0 0 0 0 4 0 0 1 12 0 4 3 0 0 0 0 0 1 3 1 0 0 0 0 0 0 0 0
16 34 30 29 3 7 14 5 2 0 0 9 0 0 0 0 0 0 0 0 0 0 0 0 0 7 0 0 0 0 0 0 0 0 0 0 1 0 0 0 0 0 0 0 0
15 21 48 28 33 55 8 5 1 0 6 30 18 0 0 0 2 2 0 0 0 0 0 0 0 11 5 0 0 0 0 0 0 0 0 0 0 0 0 0 0 0 0 0 0
5 8 19 19 5 1 24 15 2 1 1 3 0 0 0 0 0 0 0 0 0 0 0 0 0 0 0 0 0 0 0 0 0 4 0 0 0 0 0 0 0 0 0 0 0
8 6 5 24 18 7 9 12 0 7 0 0 1 0 0 0 0 0 0 0 0 0 0 0 0 0 0 0 0 0 0 0 0 0 0 0 0 0 0 0 0 0 0 0 0
4 19 7 20 4 8 11 13 0 2 9 0 7 1 0 0 0 0 0 0 0 0 0 0 0 0 0 0 0 0 0 0 0 0 0 0 0 0 0 0 0 0 0 0 0
0 0 0 9 7 14 1 0 0 1 0 0 0 1 0 0 0 0 0 0 0 0 0 0 0 0 0 0 0 0 0 0 0 0 0 0 0 0 0 0 0 0 0 0 0

GFSSW_con_sbcape_099.txt.gz
CAPE
9 7 16 63 52 18 4 1 4 3 4 0 0 2 23 0 0 4 0 0 0 0 3 3 0 0 1 2 0 0 10 0 0 0 0 0 0 0 5 22 22 38 82 126 407
11 10 26 27 36 75 8 1 6 9 10 0 0 8 3 0 0 0 0 0 0 12 5 0 0 0 0 0 11 7 3 0 0 0 3 5 3 1 0 28 42 41 70 61 556
24 16 24 18 8 26 55 8 4 10 17 0 0 13 0 0 0 0 0 0 9 8 4 0 0 6 3 0 7 17 10 0 0 0 2 4 23 22 13 29 65 31 96 324 631
35 19 18 21 11 15 100 18 5 1 8 0 0 10 0 0 0 0 0 4 1 7 19 12 6 8 9 10 0 1 9 2 0 0 4 30 36 50 39 74 97 63 102 218 374
41 31 26 25 11 11 31 57 5 7 0 0 0 7 0 0 0 0 0 0 0 0 4 8 12 25 36 15 8 21 4 5 1 0 2 3 20 71 20 38 81 120 157 139 144
1 22 17 13 10 5 9 59 8 17 0 0 15 10 10 1 0 0 0 0 0 0 11 3 11 6 21 36 29 23 28 18 9 4 2 6 4 26 45 54 85 223 210 101 45
18 6 9 9 8 4 12 18 13 6 0 13 25 14 2 0 0 0 0 0 0 2 20 11 16 11 27 19 4 28 27 26 7 10 14 10 24 40 21 91 161 191 181 150 87
40 11 4 4 3 1 80 9 18 0 5 30 19 22 1 0 0 0 0 0 0 3 8 9 28 29 16 15 21 21 16 7 0 10 18 71 15 20 27 129 176 160 229 174 98
73 46 8 0 2 13 25 4 0 1 26 38 27 14 7 0 0 0 0 0 17 22 19 6 30 19 18 35 29 20 13 2 1 21 49 60 40 158 136 189 154 150 189 167 100
97 98 25 0 0 36 7 29 51 34 36 32 23 7 0 0 0 0 0 0 6 38 26 21 30 37 41 24 9 10 21 27 126 36 32 62 87 177 153 157 127 104 253 60 54
127 107 50 9 0 37 17 10 19 2 10 0 0 3 0 0 0 0 0 0 9 21 32 23 26 22 8 13 3 15 9 3 21 1 27 71 73 77 80 45 43 41 164 24 43
190 141 37 23 276 211 6 2 0 0 1 0 3 21 1 0 0 0 0 4 12 10 34 31 10 5 9 23 12 16 10 1 102 89 14 67 109 97 45 1 0 0 0 122 196
179 101 35 39 103 13 21 0 0 0 2 4 9 12 5 0 1 0 0 3 4 11 17 25 17 21 13 5 14 10 10 33 61 47 64 18 90 33 9 0 0 0 0 143 204
96 129 25 166 96 46 24 2 0 1 29 9 14 12 0 1 0 0 0 3 0 6 18 23 18 24 25 11 10 61 29 8 4 39 56 46 35 1 5 1 0 0 0 259 49
22 64 33 17 165 111 30 27 22 5 25 8 15 1 10 6 0 0 0 6 4 13 16 35 26 28 41 59 27 42 26 9 0 1 11 12 28 20 7 4 0 0 5 49 15
49 70 48 31 87 124 1 6 3 30 15 32 11 12 19 8 1 1 0 0 5 10 12 8 17 15 37 19 14 0 35 28 26 30 77 40 12 27 21 5 6 4 0 2 4
18 50 22 22 64 115 33 2 45 36 0 19 13 18 13 16 12 2 0 13 8 168 15 27 21 7 18 4 7 40 7 52 56 27 30 10 21 15 2 2 0 2 0 0 0
80 35 7 8 77 23 8 13 46 6 9 5 9 8 18 17 19 6 5 17 0 7 40 31 48 2 8 12 11 13 10 66 23 32 19 11 13 16 3 8 0 0 0 0 0
43 137 79 42 46 7 21 53 70 15 0 12 7 15 11 7 15 8 2 20 20 21 12 32 36 4 10 1 2 27 22 0 11 10 1 8 8 6 2 0 0 0 0 0 0
231 141 57 49 71 39 24 13 45 0 4 1 11 17 7 5 5 3 11 5 26 0 3 39 95 3 13 19 1 5 0 4 11 19 2 1 14 28 8 4 0 0 0 0 0
117 35 46 91 35 41 35 50 7 1 0 8 17 17 10 0 4 15 6 0 3 15 3 9 7 22 6 13 9 6 2 0 0 0 3 3 12 0 1 1 0 0 0 0 0
36 24 15 47 38 47 84 23 2 4 0 8 15 19 17 10 16 18 14 10 1 4 3 1 8 20 0 0 0 0 0 0 0 0 0 0 0 0 0 0 0 0 0 0 0
38 11 31 40 52 50 9 9 4 6 25 29 27 23 3 26 13 12 19 0 0 1 2 0 2 15 6 0 0 1 0 0 0 0 0 0 1 0 0 0 0 0 0 0 0
13 23 4 7 7 9 33 29 5 0 5 8 17 1 27 29 1 9 13 0 0 0 0 0 1 1 5 2 0 0 0 0 0 1 0 0 0 0 0 0 0 0 0 0 0
11 24 10 25 16 16 14 9 6 4 12 14 15 13 24 11 2 3 0 0 0 0 0 0 1 0 0 0 0 0 0 0 0 0 0 0 0 0 0 0 0 0 0 0 0
1 8 9 16 9 14 3 5 4 5 13 23 16 12 19 9 3 0 0 0 0 0 0 0 5 0 0 0 0 0 0 0 0 0 0 0 0 0 0 0 0 0 0 0 0
7 0 4 13 8 9 4 8 3 4 1 0 6 18 11 0 0 0 0 0 0 0 0 0 0 0 0 0 0 0 0 0 0 0 0 0 0 0 0 0 0 0 0 0 0

GFSSW_con_sbcape_102.txt.gz
CAPE
25 27 13 11 20 17 62 68 16 6 0 4 0 0 0 22 0 2 4 0 0 0 0 0 0 0 0 0 0 0 0 0 0 0 0 0 0 0 0 0 0 0 0 70 347
28 28 23 21 10 9 8 63 24 2 2 0 0 0 1 1 2 3 0 0 0 0 0 0 0 0 0 0 2 0 0 0 0 0 0 0 0 0 0 0 0 0 0 4 332
17 45 25 11 18 13 3 39 96 5 9 3 0 1 0 0 0 0 0 0 0 0 0 0 0 0 0 0 0 0 0 0 0 0 0 0 0 0 0 0 0 0 1 0 190
19 19 34 27 27 25 11 10 128 16 10 4 0 1 0 0 0 0 0 0 12 0 0 0 2 3 4 0 0 0 0 0 0 0 0 0 0 0 0 0 0 0 0 13 124
59 53 17 21 20 13 12 12 36 32 10 0 0 0 0 0 0 0 0 0 0 0 0 2 5 5 2 3 5 1 0 0 0 0 0 0 0 0 0 0 0 0 0 30 69
69 63 45 12 17 8 6 10 48 30 6 0 0 20 0 0 0 0 0 0 0 0 1 6 3 5 9 2 7 0 1 0 3 7 0 0 0 0 0 0 0 0 0 12 129
95 97 54 28 13 4 1 10 135 19 0 2 16 11 11 0 0 0 0 0 0 0 4 9 8 6 9 1 4 9 3 0 0 1 0 3 0 0 0 0 0 0 0 13 44
86 104 92 55 12 1 2 131 48 4 0 35 31 22 4 0 0 0 0 0 0 0 1 3 4 11 13 0 0 0 19 8 0 0 0 16 0 0 0 0 0 0 21 65 66
49 91 112 78 22 0 120 119 23 1 0 56 1 23 0 0 0 0 0 0 1 13 11 4 8 6 6 11 1 0 0 1 0 0 0 9 0 0 0 0 0 0 129 17 20
61 58 120 99 21 3 68 50 49 50 36 31 10 17 0 0 0 0 0 0 3 23 26 8 2 10 22 28 0 1 5 7 0 1 1 2 0 0 1 0 0 146 141 71 66
240 130 140 108 33 161 61 16 7 10 2 0 0 1 1 0 0 0 0 0 2 4 9 16 20 1 0 1 6 0 13 6 0 3 3 0 0 0 1 0 25 114 164 302 238
229 178 112 77 231 299 41 16 12 0 3 0 1 4 3 0 0 0 0 0 7 13 19 7 0 0 4 3 16 27 16 0 0 35 0 0 0 0 5 0 29 21 46 95 184
211 162 85 63 165 42 28 17 0 0 12 7 0 10 1 0 2 0 0 1 2 14 11 26 0 0 4 5 28 7 8 0 18 0 11 18 7 6 30 35 9 3 0 0 164
5 38 53 49 12 101 19 4 0 11 4 3 2 3 2 9 0 1 0 7 2 0 7 3 0 0 21 31 33 4 13 20 16 10 55 15 17 13 0 0 0 0 0 6 176
3 40 87 24 118 91 53 1 12 18 20 17 9 8 11 0 0 0 0 4 0 8 1 0 21 2 4 19 14 0 6 6 19 11 2 5 7 10 4 7 0 0 11 207 79
13 8 25 11 45 84 22 6 4 22 7 15 3 25 4 4 0 0 0 0 0 2 3 0 0 7 24 21 9 3 0 0 0 6 2 36 16 8 9 9 1 127 270 120 47
28 18 14 35 84 79 20 0 23 13 5 2 8 1 9 4 3 0 0 0 2 5 0 5 4 17 2 1 0 7 25 2 4 4 2 4 8 4 12 2 0 3 4 18 7
17 8 1 28 69 24 2 6 10 8 38 10 1 12 20 13 10 0 1 0 0 4 8 8 6 0 0 9 8 20 7 4 4 1 26 0 1 1 16 2 1 3 6 0 0
5 63 53 54 65 18 6 7 17 27 0 4 16 8 5 1 0 0 0 2 22 7 53 23 12 8 1 8 5 7 4 0 2 0 1 27 3 7 13 3 0 0 0 1 0
136 63 39 55 22 1 2 43 18 5 2 0 19 5 0 0 0 0 0 10 16 4 0 15 14 2 2 2 0 1 0 0 0 3 10 5 2 4 5 6 0 0 0 0 0
38 7 47 56 8 0 8 27 9 0 0 6 27 6 0 0 0 3 11 15 2 11 2 6 3 3 4 9 0 0 0 0 0 0 0 2 6 12 11 0 0 0 0 0 0
17 10 42 35 0 1 33 16 1 1 0 0 31 25 3 0 4 12 19 12 1 6 4 2 5 1 1 0 0 0 0 0 0 0 0 0 0 1 0 0 0 0 0 0 0
16 6 19 22 4 4 8 1 1 0 19 10 8 0 0 11 0 10 6 0 0 0 0 0 0 3 1 0 0 0 0 0 0 0 0 0 0 0 0 0 0 0 0 0 0
9 10 5 6 1 5 0 0 0 0 9 2 0 0 11 6 0 0 0 0 0 0 0 0 0 0 0 0 0 0 0 0 0 0 0 0 0 0 0 0 0 0 0 0 0
3 4 1 9 25 0 0 0 1 1 6 0 0 3 12 3 0 1 0 0 0 0 0 0 0 0 0 0 0 0 0 0 0 0 0 0 0 0 0 0 0 0 0 0 0
4 3 7 3 0 1 0 0 1 1 3 1 17 4 1 0 3 0 0 0 0 0 0 0 0 0 0 0 0 0 0 0 0 0 0 0 0 0 0 0 0 0 0 0 0
0 0 2 6 0 1 0 1 0 0 0 0 0 8 0 0 0 0 0 0 0 0 0 0 0 0 0 0 0 0 0 0 0 0 0 0 0 0 0 0 0 0 0 0 0

GFSSW_con_sbcape_105.txt.gz
CAPE
25 38 38 17 18 9 8 21 43 52 3 10 0 0 0 3 23 1 0 0 0 0 0 0 0 0 0 0 0 0 0 0 0 0 0 0 0 0 0 0 0 0 0 12 277
20 23 28 40 21 18 14 8 19 77 18 14 1 0 0 7 13 4 0 1 0 0 0 0 0 0 0 0 0 0 0 0 0 0 0 0 0 0 0 0 0 0 0 99 319
49 50 44 40 46 29 22 10 8 47 56 13 0 0 0 0 3 0 0 2 0 0 0 0 0 0 0 0 0 0 0 0 0 0 0 0 0 0 0 0 0 0 0 0 10
90 83 77 58 32 26 19 17 7 41 96 21 1 0 9 0 0 0 0 0 1 0 0 0 0 0 0 0 0 0 0 0 0 0 0 0 0 0 0 0 0 0 0 0 0
107 115 92 86 55 21 17 10 14 37 101 13 0 3 2 0 0 0 0 15 0 0 0 0 0 2 0 0 0 0 0 0 0 0 0 0 0 0 0 0 0 0 0 0 0
131 117 108 81 70 37 12 4 7 34 147 29 17 16 0 0 0 0 0 0 0 0 0 0 0 6 0 0 0 0 0 0 0 0 0 0 0 0 0 0 0 0 0 0 0
152 147 110 53 72 52 21 9 12 131 157 16 67 0 0 0 0 0 0 0 0 0 0 15 10 9 1 0 1 4 0 0 0 0 0 0 0 0 0 0 0 0 0 0 0
138 120 92 65 82 39 22 158 207 169 59 49 104 3 0 0 0 0 0 0 0 0 4 2 0 13 2 1 0 0 0 0 0 0 0 0 0 0 0 0 0 0 0 0 0
137 186 80 51 85 23 20 85 209 93 9 56 21 9 1 0 0 0 0 0 0 2 7 12 1 7 1 0 0 0 0 0 0 0 0 0 0 0 0 0 0 0 0 0 0
0 66 57 34 72 34 40 68 109 104 33 14 4 0 0 0 0 0 0 0 17 45 37 11 2 0 10 1 0 0 0 0 0 0 7 0 0 0 0 0 0 0 0 0 27
104 158 68 72 68 73 61 16 0 0 12 3 0 2 0 0 0 0 0 0 2 32 18 37 0 0 0 0 0 0 0 0 0 0 13 0 0 0 0 0 0 0 0 1 21
125 164 71 77 80 329 4 14 6 0 3 2 1 9 4 0 0 0 0 0 4 2 23 12 3 0 0 0 0 0 12 0 0 0 5 0 0 0 0 0 0 0 2 0 81
26 30 24 14 22 35 2 14 9 0 9 20 8 10 3 2 4 0 0 0 11 3 0 1 0 0 0 1 10 5 10 0 0 0 0 0 0 0 0 0 0 0 0 1 11
1 25 13 6 0 0 0 6 4 4 0 7 8 7 6 11 10 0 0 1 0 0 0 0 0 0 1 4 15 4 0 5 18 4 3 1 0 0 0 0 0 0 0 0 1
1 22 0 3 2 27 20 0 7 14 0 20 9 13 20 11 0 0 0 0 0 0 1 0 16 1 0 0 6 0 0 0 0 47 2 0 9 10 5 0 0 0 0 49 303
9 31 25 0 0 16 1 5 0 1 0 8 4 11 9 6 0 1 0 0 0 0 0 0 0 0 0 1 8 3 3 0 0 10 5 14 20 3 7 5 0 0 10 233 164
30 28 5 23 11 1 0 0 0 0 22 0 9 3 6 0 0 0 0 0 0 0 0 0 0 1 2 0 0 4 10 0 0 1 3 8 4 0 5 2 0 71 114 95 63
15 17 0 6 0 0 0 0 0 17 0 2 0 6 18 3 13 0 0 0 0 0 0 0 0 0 0 6 9 3 18 4 0 2 4 6 1 1 6 28 8 7 3 1 0
0 0 0 0 0 0 0 1 10 27 2 4 8 0 0 0 0 0 0 0 1 0 2 2 2 5 2 4 5 7 13 5 3 10 1 4 1 4 0 1 0 4 0 2 1
0 0 0 2 0 0 0 26 8 2 0 3 9 0 0 0 0 0 0 3 18 8 0 5 2 0 0 0 0 1 0 1 3 0 3 6 2 0 2 7 1 2 1 0 0
0 0 0 0 0 0 5 11 3 0 0 5 0 0 0 0 0 0 1 1 4 9 1 4 4 1 1 0 0 0 0 0 0 0 0 0 2 8 18 3 0 0 0 0 0
0 0 0 0 0 0 1 1 0 0 0 0 2 0 0 0 0 3 14 2 1 1 10 2 1 0 0 0 0 0 0 0 0 0 0 0 6 16 9 1 0 0 0 0 0
0 1 0 0 0 0 0 0 0 0 0 0 0 0 0 0 0 5 0 0 0 3 0 0 0 0 0 0 0 0 0 0 0 0 0 0 8 2 0 0 0 0 0 0 0
0 0 0 0 0 0 0 0 0 0 0 0 0 0 0 0 0 0 0 0 0 0 0 0 0 0 0 0 0 0 0 0 0 0 0 0 2 0 0 0 0 0 0 0 0
0 0 0 0 0 0 0 0 0 0 0 0 0 0 0 0 0 0 0 0 0 0 0 0 0 0 0 0 0 0 0 0 0 0 0 0 0 0 0 0 0 0 0 0 0
0 0 0 0 0 0 0 0 0 0 0 0 0 0 0 0 0 0 0 0 0 0 0 0 0 0 0 0 0 0 0 0 0 0 0 0 0 0 0 0 0 0 0 0 0
0 0 0 0 0 0 0 0 0 0 0 0 0 0 0 0 0 0 0 0 0 0 0 0 0 0 0 0 0 0 0 0 0 0 0 0 0 0 0 0 0 0 0 0 0

GFSSW_con_sbcape_108.txt.gz
CAPE
45 34 29 19 35 24 15 10 2 10 92 43 31 1 0 7 15 0 0 0 0 0 0 0 0 0 0 0 0 0 0 0 0 0 0 0 0 0 0 0 0 0 0 0 24
89 91 79 59 41 42 25 17 12 5 39 77 15 6 0 5 9 2 0 0 0 0 0 0 0 0 0 0 0 0 0 0 0 0 0 0 0 0 0 0 0 0 0 0 0
166 130 103 89 93 54 24 21 18 3 0 96 22 2 1 1 0 0 0 9 2 0 0 0 0 0 0 0 0 0 0 0 0 0 0 0 0 0 0 0 0 0 0 0 0
157 170 155 147 95 86 36 5 4 5 5 129 42 2 16 0 0 0 0 12 2 0 0 0 0 0 0 0 0 0 0 0 0 0 0 0 0 0 0 0 0 0 0 0 0
157 199 177 163 163 105 50 24 1 0 3 89 61 16 2 0 0 0 4 10 0 0 0 0 0 0 0 0 0 0 0 0 0 0 0 0 0 0 0 0 0 0 0 0 0
105 173 170 164 133 137 46 23 7 3 30 158 14 55 4 0 0 0 0 0 0 0 0 0 0 0 0 0 0 0 0 0 0 0 0 0 0 0 0 0 0 0 0 0 0
147 141 154 139 112 113 35 15 14 59 32 119 64 36 21 0 0 0 0 0 0 0 0 0 4 0 0 0 0 0 0 0 0 0 0 0 0 0 0 0 0 0 0 0 0
97 103 99 208 103 74 8 1 122 160 82 94 104 0 30 7 0 0 0 0 0 0 0 4 0 0 9 0 0 0 0 0 0 0 0 0 0 0 0 0 0 0 0 0 0
182 112 76 18 53 64 6 1 223 261 211 125 4 6 8 6 1 0 0 0 0 2 7 22 0 2 1 0 0 0 0 0 0 0 0 0 0 0 0 0 0 0 0 0 0
65 45 62 34 29 59 67 4 115 121 35 1 8 16 2 0 0 0 0 0 4 20 23 15 8 1 2 1 0 0 0 0 0 0 0 0 0 0 0 0 0 0 0 0 0
110 97 32 52 78 57 67 0 0 4 9 11 0 0 0 0 0 0 0 0 28 29 0 14 0 0 0 0 0 0 0 0 0 0 0 0 0 0 0 0 0 0 0 0 0
48 62 99 59 225 265 4 45 0 0 4 2 6 0 2 2 0 0 0 0 6 0 7 3 6 0 0 0 0 0 2 1 0 0 0 0 0 0 0 0 0 0 0 0 0
17 3 24 32 44 14 2 9 0 4 7 13 9 21 10 6 1 0 0 0 1 0 0 0 0 0 0 0 5 11 1 0 0 0 0 0 0 0 0 0 0 0 0 0 0
20 7 12 18 1 0 1 17 0 0 0 19 14 11 6 0 0 0 0 0 1 0 0 0 0 0 0 0 5 11 0 1 15 23 3 0 1 0 0 0 0 0 0 0 0
36 11 22 0 0 21 3 0 0 0 0 14 12 4 4 8 0 0 0 0 0 0 2 0 0 11 0 0 9 4 0 0 0 1 1 5 3 0 0 0 0 0 0 0 0
33 2 3 0 0 0 0 0 0 0 0 6 2 20 5 8 0 1 0 0 0 0 0 0 0 0 0 1 9 3 2 0 0 13 5 7 7 0 5 7 1 0 0 0 88
2 1 0 0 0 0 0 0 0 0 15 8 10 0 0 0 0 0 0 0 0 0 0 0 0 0 0 1 0 2 9 0 0 1 0 15 11 0 5 1 0 0 29 75 162
3 0 0 0 0 0 0 0 0 4 1 0 0 0 0 0 0 0 0 0 0 0 0 0 0 0 0 0 6 0 7 0 0 0 0 1 0 0 7 23 49 7 2 27 1
0 0 0 0 0 0 0 0 25 7 0 0 0 0 0 0 0 0 0 0 0 0 0 3 0 4 0 5 3 3 14 7 5 4 1 7 0 4 4 3 4 5 2 3 2
0 0 0 0 0 0 0 8 6 1 0 0 0 0 0 0 0 0 0 3 19 4 1 1 3 0 1 0 0 0 4 18 6 0 0 0 1 0 0 14 1 3 3 2 2
0 0 0 0 0 0 1 4 1 0 0 0 0 0 0 0 0 0 3 1 22 7 1 1 5 0 0 0 0 1 7 4 0 0 0 0 2 6 10 10 0 2 1 0 1
0 0 0 0 0 0 1 0 0 0 0 0 0 0 0 0 0 11 18 2 1 4 0 0 0 0 0 0 0 0 0 0 0 0 0 0 3 14 18 9 0 0 0 0 0
0 0 0 0 0 0 0 0 0 0 0 0 0 0 0 0 0 0 0 0 0 0 0 0 0 0 0 0 0 0 0 0 0 0 0 0 9 6 3 0 0 0 0 0 0
0 0 0 0 0 0 0 0 0 0 0 0 0 0 0 0 0 0 0 0 0 0 0 0 0 0 0 0 0 0 0 0 0 0 0 0 0 0 0 0 0 0 0 0 0
0 0 0 0 0 0 0 0 0 0 0 0 0 0 0 0 0 0 0 0 0 0 0 0 0 0 0 0 0 0 0 0 0 0 0 0 0 0 0 0 0 0 0 0 0
0 0 0 0 0 0 0 0 0 0 0 0 0 0 0 0 0 0 0 0 0 0 0 0 0 0 0 0 0 0 0 0 0 0 0 0 0 0 0 0 0 0 0 0 0
0 0 0 0 0 0 0 0 0 0 0 0 0 0 0 0 0 0 0 0 0 0 0 0 0 0 0 0 0 0 0 0 0 0 0 0 0 0 0 0 0 0 0 0 0

GFSSW_con_sbcape_111.txt.gz
CAPE
63 72 85 84 72 48 33 18 2 0 0 20 106 44 0 0 1 3 0 0 0 0 0 0 0 0 0 0 0 0 0 0 0 0 0 0 0 0 0 0 0 0 0 0 0
102 105 103 99 65 49 63 20 5 9 0 1 67 34 0 0 4 0 0 0 0 0 0 0 0 0 0 0 0 0 0 0 0 0 0 0 0 0 0 0 0 0 0 0 0
135 141 116 124 110 73 17 24 0 0 4 6 96 12 0 0 0 0 0 0 5 0 0 0 0 0 0 0 0 0 0 0 0 0 0 0 0 0 0 0 0 0 0 0 0
104 113 114 166 158 112 66 21 2 0 0 0 127 28 10 0 0 0 0 25 14 0 0 0 0 0 0 0 0 0 0 0 0 0 0 0 0 0 0 0 0 0 0 0 0
130 87 74 130 186 179 139 65 31 0 0 4 65 35 0 0 0 0 42 21 0 0 0 0 0 0 0 0 0 0 0 0 0 0 0 0 0 0 0 0 0 0 0 0 0
159 121 99 98 172 127 50 57 41 35 8 21 176 67 0 0 0 0 0 0 0 0 0 0 0 0 0 0 0 0 0 0 0 0 0 0 0 0 0 0 0 0 0 0 0
136 81 69 18 71 108 80 54 23 5 31 54 165 4 0 0 0 1 0 0 0 0 0 0 0 0 0 0 0 0 0 0 0 0 0 0 0 0 0 0 0 0 0 0 0
118 58 35 28 91 126 34 14 0 105 81 65 52 5 3 0 0 0 0 0 0 0 0 0 0 0 1 0 0 0 0 0 0 0 0 0 0 0 0 0 0 0 0 0 0
118 39 53 154 22 15 63 1 104 364 142 138 14 14 11 14 1 0 0 0 0 0 1 0 0 0 1 1 0 0 0 0 0 0 0 0 0 0 0 0 0 0 0 0 0
76 48 49 60 50 69 17 4 44 30 28 16 28 2 6 0 1 1 0 0 0 0 7 4 3 3 0 1 0 0 0 0 0 0 0 0 0 0 0 0 0 0 0 0 0
119 108 26 54 58 63 0 0 0 0 44 6 2 5 5 1 0 1 0 0 8 1 0 1 0 0 0 0 0 0 0 0 0 0 0 0 0 0 0 0 0 0 0 0 0
2 39 24 64 206 51 0 0 0 0 3 18 0 0 1 5 5 0 0 0 0 0 1 10 0 0 0 0 0 0 3 0 0 0 0 0 0 0 0 0 0 0 0 0 0
2 7 1 9 10 3 8 11 16 5 4 5 20 15 12 8 0 0 0 0 0 0 0 0 0 0 0 0 0 0 2 1 0 0 0 0 0 0 0 0 0 0 0 0 0
14 0 1 1 0 0 1 3 0 0 0 5 8 1 15 6 0 0 0 0 1 0 0 0 0 0 0 0 0 3 0 2 2 20 1 0 0 0 0 0 0 0 0 0 0
26 37 0 0 0 4 2 0 0 0 0 18 12 0 4 0 0 1 0 0 0 0 0 0 0 7 2 0 0 0 0 0 1 19 0 0 4 0 0 0 0 0 0 0 0
11 0 0 0 0 2 0 0 0 0 0 4 3 10 3 1 0 0 0 0 0 0 0 0 0 0 0 0 0 1 0 0 0 8 2 3 3 0 1 9 4 0 0 0 0
18 0 0 0 0 0 0 0 0 0 5 24 4 0 0 0 0 0 0 0 0 0 0 0 0 0 0 0 0 4 21 0 0 1 0 9 12 0 7 1 0 0 0 36 57
0 0 0 0 0 0 0 0 0 5 3 1 0 0 0 0 0 0 0 0 0 0 0 0 0 0 0 2 5 1 5 1 0 0 0 6 0 0 8 8 13 9 9 15 13
0 0 0 0 0 0 0 0 8 1 0 0 0 0 0 0 0 0 0 0 0 0 0 2 0 0 0 1 3 2 23 8 6 2 2 0 0 5 1 3 2 6 6 3 1
0 0 0 0 0 0 0 7 1 0 0 0 0 0 0 0 0 0 0 0 3 2 0 12 1 0 1 0 0 1 9 11 8 0 0 0 1 0 0 5 11 17 6 3 0
0 0 0 0 0 0 0 1 0 0 0 0 0 0 0 0 0 0 3 0 9 10 8 2 1 0 0 0 0 7 12 19 12 0 0 0 2 5 4 9 16 14 3 2 0
0 0 0 0 0 0 0 0 0 0 0 0 0 0 0 0 7 8 17 1 0 0 0 0 1 0 0 0 0 0 0 0 0 0 0 0 2 8 12 13 3 0 0 0 0
0 0 0 0 0 0 0 0 0 0 0 0 0 0 0 0 0 0 0 0 0 0 0 0 0 0 0 0 0 0 0 0 0 0 0 0 2 9 8 6 0 0 0 0 0
0 0 0 0 0 0 0 0 0 0 0 0 0 0 0 0 0 0 0 0 0 0 0 0 0 0 0 0 0 0 0 0 0 0 0 0 0 0 0 0 0 0 0 0 0
0 0 0 0 0 0 0 0 0 0 0 0 0 0 0 0 0 0 0 0 0 0 0 0 0 0 0 0 0 0 0 0 0 0 0 0 0 0 0 0 0 0 0 0 0
0 0 0 0 0 0 0 0 0 0 0 0 0 0 0 0 0 0 0 0 0 0 0 0 0 0 0 0 0 0 0 0 0 0 0 0 0 0 0 0 0 0 0 0 0
0 0 0 0 0 0 0 0 0 0 0 0 0 0 0 0 0 0 0 0 0 0 0 0 0 0 0 0 0 0 0 0 0 0 0 0 0 0 0 0 0 0 0 0 0

GFSSW_con_sbcape_114.txt.gz
CAPE
73 116 76 52 38 63 64 52 0 0 0 0 0 126 8 0 0 2 0 0 0 0 0 0 0 0 0 0 0 0 0 0 0 0 0 0 0 0 0 0 0 0 0 0 0
69 104 135 97 101 95 76 63 48 0 0 0 0 38 2 0 0 0 0 0 0 0 0 0 0 0 0 0 0 0 0 0 0 0 0 0 0 0 0 0 0 0 0 0 0
139 106 133 131 103 95 96 69 62 5 0 0 0 56 1 0 0 0 0 0 12 0 0 0 0 0 0 0 0 0 0 0 0 0 0 0 0 0 0 0 0 0 0 0 0
41 93 93 85 99 110 147 108 76 17 0 0 1 38 13 0 0 0 0 28 0 0 0 0 0 0 0 0 0 0 0 0 0 0 0 0 0 0 0 0 0 0 0 0 0
125 90 109 129 72 103 145 117 105 43 1 0 9 103 0 0 0 0 77 20 0 0 0 0 0 0 0 0 0 0 0 0 0 0 0 0 0 0 0 0 0 0 0 0 0
120 115 53 51 4 23 67 77 81 33 10 1 43 1 0 0 0 0 0 0 0 0 0 0 0 0 0 0 0 0 0 0 0 0 0 0 0 0 0 0 0 0 0 0 0
147 45 2 20 5 28 56 47 30 3 21 27 60 39 8 3 0 0 0 0 0 0 0 0 0 0 0 0 0 0 0 0 0 0 0 0 0 0 0 0 0 0 0 0 0
74 37 36 15 11 59 82 18 7 0 31 55 111 16 23 5 0 0 0 0 0 0 0 0 0 0 0 0 0 0 0 0 0 0 0 0 0 0 0 0 0 0 0 0 0
42 18 57 104 27 0 53 59 376 317 130 96 23 7 10 4 8 0 0 0 0 0 0 0 0 0 0 0 0 0 0 0 0 0 0 0 0 0 0 0 0 0 0 0 0
116 21 27 89 97 125 58 25 138 26 27 24 22 0 15 4 0 0 0 0 0 0 0 0 0 0 0 0 0 0 0 0 0 0 0 0 0 0 0 0 0 0 0 0 0
47 43 113 159 18 8 0 0 3 14 36 4 0 4 17 0 4 7 0 0 0 0 0 0 0 0 0 0 0 0 0 0 0 0 0 0 0 0 0 0 0 0 0 0 0
52 38 50 166 45 48 0 0 1 5 16 23 11 10 9 3 3 3 0 0 3 0 0 0 0 0 0 0 0 0 0 0 0 0 0 0 0 0 0 0 0 0 0 0 0
89 32 42 37 11 3 1 4 4 5 4 16 32 21 11 6 6 2 0 0 0 0 0 0 0 0 0 0 0 0 0 0 0 0 0 0 0 0 0 0 0 0 0 0 0
38 31 19 0 0 0 8 3 2 0 0 5 14 3 23 13 2 0 0 0 0 0 0 0 0 0 0 0 0 0 0 0 1 6 4 0 0 0 0 0 0 0 0 0 0
0 14 0 0 0 3 1 0 0 0 0 20 15 0 7 0 0 0 0 0 0 0 0 0 0 0 0 0 0 0 0 0 0 9 1 0 1 0 0 0 0 0 0 0 0
0 0 0 0 0 0 0 0 0 0 0 0 12 2 0 0 0 0 0 0 0 0 0 0 0 0 0 0 0 0 0 0 0 18 1 0 1 0 4 7 2 0 0 0 0
0 0 0 0 0 0 0 0 0 0 1 0 0 0 0 0 0 0 0 0 0 0 0 0 0 0 0 0 0 0 12 0 0 0 0 5 14 0 7 3 4 12 22 14 9
0 0 0 0 0 0 0 0 0 8 8 0 0 0 0 0 0 0 0 0 0 0 0 0 0 0 0 0 1 2 10 1 0 0 0 1 0 0 8 3 9 14 9 1 0
0 0 0 0 0 0 0 0 3 5 0 0 0 0 0 0 0 0 0 0 0 0 0 0 0 0 0 0 0 5 26 7 7 1 1 0 0 1 0 2 3 4 5 1 1
0 0 0 0 0 0 0 10 0 0 0 0 0 0 0 0 0 0 0 0 0 0 0 1 4 0 0 0 0 1 7 28 9 0 0 0 0 0 0 5 3 16 9 3 1
0 0 0 0 0 0 0 0 0 0 0 0 0 0 0 0 0 0 0 0 1 16 10 3 2 0 0 0 0 11 20 23 20 0 0 0 1 5 4 10 10 13 3 2 1
0 0 0 0 0 0 0 0 0 0 0 0 0 0 0 0 1 13 5 0 0 0 0 0 6 0 0 0 0 0 0 2 0 0 0 0 1 9 9 11 8 1 0 0 0
0 0 0 0 0 0 0 0 0 0 0 0 0 0 0 0 0 0 0 0 0 0 0 0 0 0 0 0 0 0 0 0 0 0 0 0 4 5 10 3 0 0 0 0 0
0 0 0 0 0 0 0 0 0 0 0 0 0 0 0 0 0 0 0 0 0 0 0 0 0 0 0 0 0 0 0 0 0 0 0 0 0 0 0 0 0 0 0 0 0
0 0 0 0 0 0 0 0 0 0 0 0 0 0 0 0 0 0 0 0 0 0 0 0 0 0 0 0 0 0 0 0 0 0 0 0 0 0 0 0 0 0 0 0 0
0 0 0 0 0 0 0 0 0 0 0 0 0 0 0 0 0 0 0 0 0 0 0 0 0 0 0 0 0 0 0 0 0 0 0 0 0 0 0 0 0 0 0 0 0
0 0 0 0 0 0 0 0 0 0 0 0 0 0 0 0 0 0 0 0 0 0 0 0 0 0 0 0 0 0 0 0 0 0 0 0 0 0 0 0 0 0 0 0 0

GFSSW_con_sbcape_117.txt.gz
CAPE
128 177 82 107 70 16 30 37 51 17 7 1 0 6 53 3 7 0 0 0 0 0 0 0 0 0 0 0 0 0 0 0 0 0 0 0 0 0 0 0 0 0 0 0 0
194 127 74 120 125 91 92 78 28 29 0 0 0 21 49 2 0 0 0 0 0 0 0 0 0 0 0 0 0 0 0 0 0 0 0 0 0 0 0 0 0 0 0 0 0
49 89 74 67 68 82 125 118 71 33 1 0 0 69 9 0 0 0 0 0 6 0 0 0 0 0 0 0 0 0 0 0 0 0 0 0 0 0 0 0 0 0 0 0 0
228 33 13 76 56 54 68 112 74 48 1 0 2 106 0 0 0 0 0 49 1 0 0 0 0 0 0 0 0 0 0 0 0 0 0 0 0 0 0 0 0 0 0 0 0
210 125 95 64 67 35 60 87 106 76 0 0 0 59 0 0 0 0 34 0 0 0 0 0 0 0 0 0 0 0 0 0 0 0 0 0 0 0 0 0 0 0 0 0 0
139 58 36 35 42 12 25 37 57 67 8 0 119 21 0 0 0 0 0 0 0 0 0 0 0 0 0 0 0 0 0 0 0 0 0 0 0 0 0 0 0 0 0 0 0
38 17 27 21 19 45 58 78 62 52 14 34 88 8 7 3 3 0 0 0 0 0 0 0 0 0 0 0 0 0 0 0 0 0 0 0 0 0 0 0 0 0 0 0 0
51 92 70 20 32 41 34 21 4 13 0 5 90 14 8 10 4 0 0 0 0 0 0 0 0 0 0 0 0 0 0 0 0 0 0 0 0 0 0 0 0 0 0 0 0
83 129 97 117 9 61 153 382 388 85 70 85 4 6 21 19 6 0 0 0 0 0 0 0 0 0 0 0 0 0 0 0 0 0 0 0 0 0 0 0 0 0 0 0 0
41 119 109 184 193 114 207 16 21 0 0 0 8 2 3 23 0 0 0 0 0 0 0 0 0 0 0 0 0 0 0 0 0 0 0 0 0 0 0 0 0 0 0 0 0
30 58 102 34 7 1 0 0 0 0 0 0 5 11 15 8 11 8 0 0 0 0 0 0 0 0 0 0 0 0 0 0 0 0 0 0 0 0 0 0 0 0 0 0 0
21 59 36 41 30 2 0 0 10 2 2 16 10 26 23 11 6 3 0 0 0 0 0 0 0 0 0 0 0 0 0 0 0 0 0 0 0 0 0 0 0 0 0 0 0
0 15 39 20 6 0 0 19 4 12 2 9 28 17 22 10 2 1 0 0 0 0 0 0 0 0 0 0 0 0 0 0 0 0 0 0 0 0 0 0 0 0 0 0 0
0 0 1 0 0 0 1 0 0 0 0 7 16 7 15 2 0 0 0 0 0 0 0 0 0 0 0 0 0 0 0 0 0 11 0 0 2 0 0 0 0 0 0 0 0
0 0 0 0 0 0 0 0 0 0 0 9 17 1 2 0 0 0 0 0 0 0 0 0 0 0 0 0 0 0 0 0 0 17 12 0 13 0 0 0 1 0 0 0 0
0 0 0 0 0 0 0 0 0 0 0 2 3 0 0 0 0 0 0 0 0 0 0 0 0 0 0 0 0 0 0 0 0 0 12 0 0 0 7 10 2 0 18 25 3
0 0 0 0 0 0 0 0 0 0 0 0 0 0 0 0 0 0 0 0 0 0 0 0 0 0 0 0 0 0 2 0 0 3 0 0 18 1 6 5 3 19 6 8 3
0 0 0 0 0 0 0 0 0 7 1 0 0 0 0 0 0 0 0 0 0 0 0 0 0 0 0 0 0 0 0 0 0 0 0 1 0 0 0 2 2 4 3 1 8
0 0 0 0 0 0 0 0 11 2 0 0 0 0 0 0 0 0 0 0 0 0 0 0 0 0 0 0 0 5 23 2 15 1 2 0 1 3 0 2 7 10 5 4 4
0 0 0 0 0 0 0 2 0 0 0 0 0 0 0 0 0 0 0 0 0 0 0 2 0 0 0 0 0 4 5 32 11 0 0 0 1 2 1 5 10 14 12 5 1
0 0 0 0 0 0 0 0 0 0 0 0 0 0 0 0 0 0 0 0 4 10 0 2 1 0 0 0 4 9 14 12 24 9 1 0 0 1 1 9 12 8 7 1 0
0 0 0 0 0 0 0 0 0 0 0 0 0 0 0 0 0 7 2 0 0 0 0 0 2 1 0 0 0 0 1 3 1 1 0 0 1 5 10 11 7 0 0 0 0
0 0 0 0 0 0 0 0 0 0 0 0 0 0 0 0 0 0 0 0 0 0 0 0 0 0 0 0 0 0 0 0 0 0 0 0 3 2 0 0 0 0 0 0 0
0 0 0 0 0 0 0 0 0 0 0 0 0 0 0 0 0 0 0 0 0 0 0 0 0 0 0 0 0 0 0 0 0 0 0 0 0 2 0 0 0 0 0 0 0
0 0 0 0 0 0 0 0 0 0 0 0 0 0 0 0 0 0 0 0 0 0 0 0 0 0 0 0 0 0 0 0 0 0 0 0 0 0 0 0 0 0 0 0 0
0 0 0 0 0 0 0 0 0 0 0 0 0 0 0 0 0 0 0 0 0 0 0 0 0 0 0 0 0 0 0 0 0 0 0 0 0 0 0 0 0 0 0 0 0
0 0 0 0 0 0 0 0 0 0 0 0 0 0 0 0 0 0 0 0 0 0 0 0 0 0 0 0 0 0 0 0 0 0 0 0 0 0 0 0 0 0 0 0 0